<?xml version="1.0" encoding="UTF-8" standalone="no" ?>
<gpx xmlns="http://www.topografix.com/GPX/1/1" xmlns:xsi="http://www.w3.org/2001/XMLSchema-instance" xsi:schemaLocation="http://www.topografix.com/GPX/1/1 http://www.topografix.com/GPX/1/1/gpx.xsd" version="1.1" creator="VisuGPX - https://www.visugpx.com">
  <metadata>
    <name>ballade VTT</name>
    <desc><![CDATA[ballade vignobles de Vouvray]]></desc>
  </metadata>
  <trk>
    <name><![CDATA[VTT]]></name>
    <trkseg>
      <trkpt lat="47.45231" lon="0.84139">
        <ele>91.199996948242</ele>
        <time>2015-12-30T13:17:15.000Z</time>
      </trkpt>
      <trkpt lat="47.45246" lon="0.84154">
        <ele>94.400001525879</ele>
        <time>2015-12-30T13:17:28.000Z</time>
      </trkpt>
      <trkpt lat="47.45246" lon="0.84154">
        <ele>94.400001525879</ele>
        <time>2015-12-30T13:17:37.000Z</time>
      </trkpt>
      <trkpt lat="47.4523" lon="0.84131">
        <ele>90.199996948242</ele>
        <time>2015-12-30T13:21:30.000Z</time>
      </trkpt>
      <trkpt lat="47.4523" lon="0.84131">
        <ele>90.199996948242</ele>
        <time>2015-12-30T13:21:32.000Z</time>
      </trkpt>
      <trkpt lat="47.4523" lon="0.84131">
        <ele>90.199996948242</ele>
        <time>2015-12-30T13:21:34.000Z</time>
      </trkpt>
      <trkpt lat="47.4523" lon="0.84131">
        <ele>90.199996948242</ele>
        <time>2015-12-30T13:21:36.000Z</time>
      </trkpt>
      <trkpt lat="47.4523" lon="0.84131">
        <ele>90.199996948242</ele>
        <time>2015-12-30T13:21:42.000Z</time>
      </trkpt>
      <trkpt lat="47.4523" lon="0.84131">
        <ele>90.199996948242</ele>
        <time>2015-12-30T13:21:44.000Z</time>
      </trkpt>
      <trkpt lat="47.4523" lon="0.84131">
        <ele>90.199996948242</ele>
        <time>2015-12-30T13:21:46.000Z</time>
      </trkpt>
      <trkpt lat="47.45226" lon="0.84133">
        <ele>90.199996948242</ele>
        <time>2015-12-30T13:21:52.000Z</time>
      </trkpt>
      <trkpt lat="47.45226" lon="0.84133">
        <ele>90.199996948242</ele>
        <time>2015-12-30T13:21:54.000Z</time>
      </trkpt>
      <trkpt lat="47.45226" lon="0.84133">
        <ele>90.199996948242</ele>
        <time>2015-12-30T13:21:56.000Z</time>
      </trkpt>
      <trkpt lat="47.45226" lon="0.84133">
        <ele>90.199996948242</ele>
        <time>2015-12-30T13:21:58.000Z</time>
      </trkpt>
      <trkpt lat="47.45226" lon="0.84133">
        <ele>90.199996948242</ele>
        <time>2015-12-30T13:22:00.000Z</time>
      </trkpt>
      <trkpt lat="47.45213" lon="0.84138">
        <ele>90.199996948242</ele>
        <time>2015-12-30T13:24:52.000Z</time>
      </trkpt>
      <trkpt lat="47.45204" lon="0.84141">
        <ele>90.199996948242</ele>
        <time>2015-12-30T13:24:54.000Z</time>
      </trkpt>
      <trkpt lat="47.45197" lon="0.84142">
        <ele>90</ele>
        <time>2015-12-30T13:24:56.000Z</time>
      </trkpt>
      <trkpt lat="47.45191" lon="0.84144">
        <ele>90.199996948242</ele>
        <time>2015-12-30T13:24:58.000Z</time>
      </trkpt>
      <trkpt lat="47.45185" lon="0.84145">
        <ele>90</ele>
        <time>2015-12-30T13:25:00.000Z</time>
      </trkpt>
      <trkpt lat="47.45174" lon="0.84147">
        <ele>89.800003051758</ele>
        <time>2015-12-30T13:25:02.000Z</time>
      </trkpt>
      <trkpt lat="47.45165" lon="0.84148">
        <ele>89.199996948242</ele>
        <time>2015-12-30T13:25:06.000Z</time>
      </trkpt>
      <trkpt lat="47.45155" lon="0.84151">
        <ele>89.199996948242</ele>
        <time>2015-12-30T13:25:10.000Z</time>
      </trkpt>
      <trkpt lat="47.45143" lon="0.84157">
        <ele>89.199996948242</ele>
        <time>2015-12-30T13:25:14.000Z</time>
      </trkpt>
      <trkpt lat="47.45128" lon="0.84161">
        <ele>88.800003051758</ele>
        <time>2015-12-30T13:25:18.000Z</time>
      </trkpt>
      <trkpt lat="47.45114" lon="0.84167">
        <ele>88.599998474121</ele>
        <time>2015-12-30T13:25:22.000Z</time>
      </trkpt>
      <trkpt lat="47.45105" lon="0.8417">
        <ele>88.800003051758</ele>
        <time>2015-12-30T13:25:24.000Z</time>
      </trkpt>
      <trkpt lat="47.45095" lon="0.84174">
        <ele>89.199996948242</ele>
        <time>2015-12-30T13:25:26.000Z</time>
      </trkpt>
      <trkpt lat="47.45085" lon="0.84177">
        <ele>89.400001525879</ele>
        <time>2015-12-30T13:25:28.000Z</time>
      </trkpt>
      <trkpt lat="47.45074" lon="0.84182">
        <ele>89.599998474121</ele>
        <time>2015-12-30T13:25:30.000Z</time>
      </trkpt>
      <trkpt lat="47.45074" lon="0.84182">
        <ele>89.599998474121</ele>
        <time>2015-12-30T13:25:32.000Z</time>
      </trkpt>
      <trkpt lat="47.45058" lon="0.8419">
        <ele>90</ele>
        <time>2015-12-30T13:25:34.000Z</time>
      </trkpt>
      <trkpt lat="47.45058" lon="0.8419">
        <ele>90</ele>
        <time>2015-12-30T13:25:36.000Z</time>
      </trkpt>
      <trkpt lat="47.45058" lon="0.8419">
        <ele>90</ele>
        <time>2015-12-30T13:25:38.000Z</time>
      </trkpt>
      <trkpt lat="47.45058" lon="0.8419">
        <ele>90</ele>
        <time>2015-12-30T13:25:40.000Z</time>
      </trkpt>
      <trkpt lat="47.45058" lon="0.8419">
        <ele>90</ele>
        <time>2015-12-30T13:25:42.000Z</time>
      </trkpt>
      <trkpt lat="47.45058" lon="0.8419">
        <ele>90</ele>
        <time>2015-12-30T13:25:44.000Z</time>
      </trkpt>
      <trkpt lat="47.45058" lon="0.8419">
        <ele>90</ele>
        <time>2015-12-30T13:25:46.000Z</time>
      </trkpt>
      <trkpt lat="47.45058" lon="0.8419">
        <ele>90</ele>
        <time>2015-12-30T13:25:48.000Z</time>
      </trkpt>
      <trkpt lat="47.45058" lon="0.8419">
        <ele>90</ele>
        <time>2015-12-30T13:25:50.000Z</time>
      </trkpt>
      <trkpt lat="47.45058" lon="0.8419">
        <ele>90</ele>
        <time>2015-12-30T13:25:52.000Z</time>
      </trkpt>
      <trkpt lat="47.45058" lon="0.8419">
        <ele>90</ele>
        <time>2015-12-30T13:25:54.000Z</time>
      </trkpt>
      <trkpt lat="47.45058" lon="0.8419">
        <ele>90</ele>
        <time>2015-12-30T13:25:56.000Z</time>
      </trkpt>
      <trkpt lat="47.45058" lon="0.8419">
        <ele>90</ele>
        <time>2015-12-30T13:25:58.000Z</time>
      </trkpt>
      <trkpt lat="47.44996" lon="0.84219">
        <ele>88.400001525879</ele>
        <time>2015-12-30T13:26:02.000Z</time>
      </trkpt>
      <trkpt lat="47.44986" lon="0.84219">
        <ele>87.400001525879</ele>
        <time>2015-12-30T13:26:06.000Z</time>
      </trkpt>
      <trkpt lat="47.44973" lon="0.8422">
        <ele>86</ele>
        <time>2015-12-30T13:26:10.000Z</time>
      </trkpt>
      <trkpt lat="47.4496" lon="0.8422">
        <ele>84.599998474121</ele>
        <time>2015-12-30T13:26:14.000Z</time>
      </trkpt>
      <trkpt lat="47.44947" lon="0.84225">
        <ele>83.599998474121</ele>
        <time>2015-12-30T13:26:18.000Z</time>
      </trkpt>
      <trkpt lat="47.44947" lon="0.84225">
        <ele>83.599998474121</ele>
        <time>2015-12-30T13:26:20.000Z</time>
      </trkpt>
      <trkpt lat="47.44934" lon="0.84227">
        <ele>82.599998474121</ele>
        <time>2015-12-30T13:26:22.000Z</time>
      </trkpt>
      <trkpt lat="47.44934" lon="0.84227">
        <ele>82.599998474121</ele>
        <time>2015-12-30T13:26:24.000Z</time>
      </trkpt>
      <trkpt lat="47.44934" lon="0.84227">
        <ele>82.599998474121</ele>
        <time>2015-12-30T13:26:26.000Z</time>
      </trkpt>
      <trkpt lat="47.44934" lon="0.84227">
        <ele>82.599998474121</ele>
        <time>2015-12-30T13:26:28.000Z</time>
      </trkpt>
      <trkpt lat="47.44934" lon="0.84227">
        <ele>82.599998474121</ele>
        <time>2015-12-30T13:26:30.000Z</time>
      </trkpt>
      <trkpt lat="47.44934" lon="0.84227">
        <ele>82.599998474121</ele>
        <time>2015-12-30T13:26:32.000Z</time>
      </trkpt>
      <trkpt lat="47.44916" lon="0.84245">
        <ele>82.400001525879</ele>
        <time>2015-12-30T13:26:36.000Z</time>
      </trkpt>
      <trkpt lat="47.44903" lon="0.84259">
        <ele>83</ele>
        <time>2015-12-30T13:26:38.000Z</time>
      </trkpt>
      <trkpt lat="47.44895" lon="0.84273">
        <ele>83.800003051758</ele>
        <time>2015-12-30T13:26:40.000Z</time>
      </trkpt>
      <trkpt lat="47.44889" lon="0.84285">
        <ele>84.199996948242</ele>
        <time>2015-12-30T13:26:42.000Z</time>
      </trkpt>
      <trkpt lat="47.44886" lon="0.84304">
        <ele>84.400001525879</ele>
        <time>2015-12-30T13:26:45.000Z</time>
      </trkpt>
      <trkpt lat="47.4488" lon="0.84342">
        <ele>83</ele>
        <time>2015-12-30T13:26:47.000Z</time>
      </trkpt>
      <trkpt lat="47.44876" lon="0.84355">
        <ele>82.400001525879</ele>
        <time>2015-12-30T13:26:49.000Z</time>
      </trkpt>
      <trkpt lat="47.44875" lon="0.84385">
        <ele>83</ele>
        <time>2015-12-30T13:26:52.000Z</time>
      </trkpt>
      <trkpt lat="47.4487" lon="0.84404">
        <ele>82.599998474121</ele>
        <time>2015-12-30T13:26:55.000Z</time>
      </trkpt>
      <trkpt lat="47.4487" lon="0.84404">
        <ele>82.599998474121</ele>
        <time>2015-12-30T13:26:57.000Z</time>
      </trkpt>
      <trkpt lat="47.4487" lon="0.84404">
        <ele>82.599998474121</ele>
        <time>2015-12-30T13:26:59.000Z</time>
      </trkpt>
      <trkpt lat="47.4487" lon="0.84404">
        <ele>82.599998474121</ele>
        <time>2015-12-30T13:27:01.000Z</time>
      </trkpt>
      <trkpt lat="47.4487" lon="0.84404">
        <ele>82.599998474121</ele>
        <time>2015-12-30T13:27:03.000Z</time>
      </trkpt>
      <trkpt lat="47.4487" lon="0.84404">
        <ele>82.599998474121</ele>
        <time>2015-12-30T13:27:05.000Z</time>
      </trkpt>
      <trkpt lat="47.4483" lon="0.84488">
        <ele>76.199996948242</ele>
        <time>2015-12-30T13:27:10.000Z</time>
      </trkpt>
      <trkpt lat="47.44813" lon="0.84487">
        <ele>75.599998474121</ele>
        <time>2015-12-30T13:27:12.000Z</time>
      </trkpt>
      <trkpt lat="47.44795" lon="0.84491">
        <ele>75</ele>
        <time>2015-12-30T13:27:14.000Z</time>
      </trkpt>
      <trkpt lat="47.4478" lon="0.84494">
        <ele>74.599998474121</ele>
        <time>2015-12-30T13:27:16.000Z</time>
      </trkpt>
      <trkpt lat="47.44769" lon="0.84497">
        <ele>74.199996948242</ele>
        <time>2015-12-30T13:27:18.000Z</time>
      </trkpt>
      <trkpt lat="47.44759" lon="0.84495">
        <ele>73.800003051758</ele>
        <time>2015-12-30T13:27:20.000Z</time>
      </trkpt>
      <trkpt lat="47.44747" lon="0.84495">
        <ele>73.199996948242</ele>
        <time>2015-12-30T13:27:22.000Z</time>
      </trkpt>
      <trkpt lat="47.44734" lon="0.84491">
        <ele>73</ele>
        <time>2015-12-30T13:27:24.000Z</time>
      </trkpt>
      <trkpt lat="47.44734" lon="0.84491">
        <ele>73</ele>
        <time>2015-12-30T13:27:28.000Z</time>
      </trkpt>
      <trkpt lat="47.44734" lon="0.84491">
        <ele>73</ele>
        <time>2015-12-30T13:27:30.000Z</time>
      </trkpt>
      <trkpt lat="47.44738" lon="0.84561">
        <ele>73.599998474121</ele>
        <time>2015-12-30T13:27:36.000Z</time>
      </trkpt>
      <trkpt lat="47.44738" lon="0.8458">
        <ele>73</ele>
        <time>2015-12-30T13:27:38.000Z</time>
      </trkpt>
      <trkpt lat="47.44736" lon="0.84596">
        <ele>72.400001525879</ele>
        <time>2015-12-30T13:27:40.000Z</time>
      </trkpt>
      <trkpt lat="47.44736" lon="0.84613">
        <ele>71.800003051758</ele>
        <time>2015-12-30T13:27:42.000Z</time>
      </trkpt>
      <trkpt lat="47.44736" lon="0.84628">
        <ele>71.199996948242</ele>
        <time>2015-12-30T13:27:44.000Z</time>
      </trkpt>
      <trkpt lat="47.44738" lon="0.84645">
        <ele>70.800003051758</ele>
        <time>2015-12-30T13:27:46.000Z</time>
      </trkpt>
      <trkpt lat="47.44737" lon="0.84665">
        <ele>70.400001525879</ele>
        <time>2015-12-30T13:27:48.000Z</time>
      </trkpt>
      <trkpt lat="47.4474" lon="0.84679">
        <ele>70</ele>
        <time>2015-12-30T13:27:51.000Z</time>
      </trkpt>
      <trkpt lat="47.4474" lon="0.84679">
        <ele>70</ele>
        <time>2015-12-30T13:27:53.000Z</time>
      </trkpt>
      <trkpt lat="47.4474" lon="0.84679">
        <ele>70</ele>
        <time>2015-12-30T13:27:55.000Z</time>
      </trkpt>
      <trkpt lat="47.4474" lon="0.84679">
        <ele>70</ele>
        <time>2015-12-30T13:27:57.000Z</time>
      </trkpt>
      <trkpt lat="47.4474" lon="0.84679">
        <ele>70</ele>
        <time>2015-12-30T13:27:59.000Z</time>
      </trkpt>
      <trkpt lat="47.44734" lon="0.84783">
        <ele>69.199996948242</ele>
        <time>2015-12-30T13:28:03.000Z</time>
      </trkpt>
      <trkpt lat="47.44731" lon="0.84796">
        <ele>69.199996948242</ele>
        <time>2015-12-30T13:28:05.000Z</time>
      </trkpt>
      <trkpt lat="47.44731" lon="0.84796">
        <ele>69.199996948242</ele>
        <time>2015-12-30T13:28:08.000Z</time>
      </trkpt>
      <trkpt lat="47.44731" lon="0.84796">
        <ele>69.199996948242</ele>
        <time>2015-12-30T13:28:10.000Z</time>
      </trkpt>
      <trkpt lat="47.44729" lon="0.84865">
        <ele>68.599998474121</ele>
        <time>2015-12-30T13:28:14.000Z</time>
      </trkpt>
      <trkpt lat="47.44728" lon="0.84881">
        <ele>68.199996948242</ele>
        <time>2015-12-30T13:28:16.000Z</time>
      </trkpt>
      <trkpt lat="47.44725" lon="0.84897">
        <ele>68</ele>
        <time>2015-12-30T13:28:18.000Z</time>
      </trkpt>
      <trkpt lat="47.44724" lon="0.84911">
        <ele>68</ele>
        <time>2015-12-30T13:28:20.000Z</time>
      </trkpt>
      <trkpt lat="47.44724" lon="0.84927">
        <ele>68</ele>
        <time>2015-12-30T13:28:22.000Z</time>
      </trkpt>
      <trkpt lat="47.44724" lon="0.84927">
        <ele>68</ele>
        <time>2015-12-30T13:28:24.000Z</time>
      </trkpt>
      <trkpt lat="47.44724" lon="0.84927">
        <ele>68</ele>
        <time>2015-12-30T13:28:26.000Z</time>
      </trkpt>
      <trkpt lat="47.44724" lon="0.84927">
        <ele>68</ele>
        <time>2015-12-30T13:28:28.000Z</time>
      </trkpt>
      <trkpt lat="47.44724" lon="0.84927">
        <ele>68</ele>
        <time>2015-12-30T13:28:30.000Z</time>
      </trkpt>
      <trkpt lat="47.44724" lon="0.84927">
        <ele>68</ele>
        <time>2015-12-30T13:28:32.000Z</time>
      </trkpt>
      <trkpt lat="47.44704" lon="0.85034">
        <ele>67.400001525879</ele>
        <time>2015-12-30T13:28:36.000Z</time>
      </trkpt>
      <trkpt lat="47.44702" lon="0.85048">
        <ele>67</ele>
        <time>2015-12-30T13:28:38.000Z</time>
      </trkpt>
      <trkpt lat="47.44699" lon="0.85061">
        <ele>66.800003051758</ele>
        <time>2015-12-30T13:28:40.000Z</time>
      </trkpt>
      <trkpt lat="47.44694" lon="0.85075">
        <ele>66.800003051758</ele>
        <time>2015-12-30T13:28:42.000Z</time>
      </trkpt>
      <trkpt lat="47.44687" lon="0.85088">
        <ele>66.599998474121</ele>
        <time>2015-12-30T13:28:44.000Z</time>
      </trkpt>
      <trkpt lat="47.44687" lon="0.85088">
        <ele>66.599998474121</ele>
        <time>2015-12-30T13:28:46.000Z</time>
      </trkpt>
      <trkpt lat="47.44687" lon="0.85088">
        <ele>66.599998474121</ele>
        <time>2015-12-30T13:28:49.000Z</time>
      </trkpt>
      <trkpt lat="47.44687" lon="0.85088">
        <ele>66.599998474121</ele>
        <time>2015-12-30T13:28:51.000Z</time>
      </trkpt>
      <trkpt lat="47.44687" lon="0.85088">
        <ele>66.599998474121</ele>
        <time>2015-12-30T13:28:53.000Z</time>
      </trkpt>
      <trkpt lat="47.44687" lon="0.85088">
        <ele>66.599998474121</ele>
        <time>2015-12-30T13:28:55.000Z</time>
      </trkpt>
      <trkpt lat="47.44687" lon="0.85088">
        <ele>66.599998474121</ele>
        <time>2015-12-30T13:28:57.000Z</time>
      </trkpt>
      <trkpt lat="47.44665" lon="0.85143">
        <ele>66</ele>
        <time>2015-12-30T13:29:01.000Z</time>
      </trkpt>
      <trkpt lat="47.44652" lon="0.85175">
        <ele>65.400001525879</ele>
        <time>2015-12-30T13:29:03.000Z</time>
      </trkpt>
      <trkpt lat="47.44643" lon="0.85198">
        <ele>65</ele>
        <time>2015-12-30T13:29:05.000Z</time>
      </trkpt>
      <trkpt lat="47.44636" lon="0.85214">
        <ele>65</ele>
        <time>2015-12-30T13:29:07.000Z</time>
      </trkpt>
      <trkpt lat="47.44636" lon="0.85214">
        <ele>65</ele>
        <time>2015-12-30T13:29:09.000Z</time>
      </trkpt>
      <trkpt lat="47.44636" lon="0.85214">
        <ele>65</ele>
        <time>2015-12-30T13:29:11.000Z</time>
      </trkpt>
      <trkpt lat="47.44617" lon="0.85245">
        <ele>65</ele>
        <time>2015-12-30T13:29:15.000Z</time>
      </trkpt>
      <trkpt lat="47.44604" lon="0.85264">
        <ele>64.800003051758</ele>
        <time>2015-12-30T13:29:17.000Z</time>
      </trkpt>
      <trkpt lat="47.44593" lon="0.85278">
        <ele>64.400001525879</ele>
        <time>2015-12-30T13:29:19.000Z</time>
      </trkpt>
      <trkpt lat="47.44582" lon="0.8529">
        <ele>64.199996948242</ele>
        <time>2015-12-30T13:29:21.000Z</time>
      </trkpt>
      <trkpt lat="47.44574" lon="0.85299">
        <ele>64.199996948242</ele>
        <time>2015-12-30T13:29:23.000Z</time>
      </trkpt>
      <trkpt lat="47.44574" lon="0.85299">
        <ele>64.199996948242</ele>
        <time>2015-12-30T13:29:25.000Z</time>
      </trkpt>
      <trkpt lat="47.44574" lon="0.85299">
        <ele>64.199996948242</ele>
        <time>2015-12-30T13:29:27.000Z</time>
      </trkpt>
      <trkpt lat="47.44574" lon="0.85299">
        <ele>64.199996948242</ele>
        <time>2015-12-30T13:29:29.000Z</time>
      </trkpt>
      <trkpt lat="47.44574" lon="0.85299">
        <ele>64.199996948242</ele>
        <time>2015-12-30T13:29:31.000Z</time>
      </trkpt>
      <trkpt lat="47.44574" lon="0.85299">
        <ele>64.199996948242</ele>
        <time>2015-12-30T13:29:33.000Z</time>
      </trkpt>
      <trkpt lat="47.44494" lon="0.85363">
        <ele>64.400001525879</ele>
        <time>2015-12-30T13:29:39.000Z</time>
      </trkpt>
      <trkpt lat="47.44487" lon="0.85373">
        <ele>64.400001525879</ele>
        <time>2015-12-30T13:29:41.000Z</time>
      </trkpt>
      <trkpt lat="47.4448" lon="0.85385">
        <ele>64.400001525879</ele>
        <time>2015-12-30T13:29:43.000Z</time>
      </trkpt>
      <trkpt lat="47.44473" lon="0.85396">
        <ele>64.400001525879</ele>
        <time>2015-12-30T13:29:45.000Z</time>
      </trkpt>
      <trkpt lat="47.44464" lon="0.85409">
        <ele>64.599998474121</ele>
        <time>2015-12-30T13:29:47.000Z</time>
      </trkpt>
      <trkpt lat="47.44448" lon="0.85417">
        <ele>65</ele>
        <time>2015-12-30T13:29:49.000Z</time>
      </trkpt>
      <trkpt lat="47.44437" lon="0.85434">
        <ele>64.800003051758</ele>
        <time>2015-12-30T13:29:52.000Z</time>
      </trkpt>
      <trkpt lat="47.44427" lon="0.85443">
        <ele>64.400001525879</ele>
        <time>2015-12-30T13:29:54.000Z</time>
      </trkpt>
      <trkpt lat="47.44417" lon="0.8545">
        <ele>64.199996948242</ele>
        <time>2015-12-30T13:29:56.000Z</time>
      </trkpt>
      <trkpt lat="47.44408" lon="0.85457">
        <ele>65</ele>
        <time>2015-12-30T13:29:58.000Z</time>
      </trkpt>
      <trkpt lat="47.44408" lon="0.85457">
        <ele>65</ele>
        <time>2015-12-30T13:30:00.000Z</time>
      </trkpt>
      <trkpt lat="47.44408" lon="0.85457">
        <ele>65</ele>
        <time>2015-12-30T13:30:03.000Z</time>
      </trkpt>
      <trkpt lat="47.44408" lon="0.85457">
        <ele>65</ele>
        <time>2015-12-30T13:30:04.000Z</time>
      </trkpt>
      <trkpt lat="47.44408" lon="0.85457">
        <ele>65</ele>
        <time>2015-12-30T13:30:06.000Z</time>
      </trkpt>
      <trkpt lat="47.44408" lon="0.85457">
        <ele>65</ele>
        <time>2015-12-30T13:30:08.000Z</time>
      </trkpt>
      <trkpt lat="47.44408" lon="0.85457">
        <ele>65</ele>
        <time>2015-12-30T13:30:10.000Z</time>
      </trkpt>
      <trkpt lat="47.44408" lon="0.85457">
        <ele>65</ele>
        <time>2015-12-30T13:30:12.000Z</time>
      </trkpt>
      <trkpt lat="47.44408" lon="0.85457">
        <ele>65</ele>
        <time>2015-12-30T13:30:14.000Z</time>
      </trkpt>
      <trkpt lat="47.44408" lon="0.85457">
        <ele>65</ele>
        <time>2015-12-30T13:30:16.000Z</time>
      </trkpt>
      <trkpt lat="47.44408" lon="0.85457">
        <ele>65</ele>
        <time>2015-12-30T13:30:18.000Z</time>
      </trkpt>
      <trkpt lat="47.44408" lon="0.85457">
        <ele>65</ele>
        <time>2015-12-30T13:30:20.000Z</time>
      </trkpt>
      <trkpt lat="47.44408" lon="0.85457">
        <ele>65</ele>
        <time>2015-12-30T13:30:23.000Z</time>
      </trkpt>
      <trkpt lat="47.44314" lon="0.85531">
        <ele>67.199996948242</ele>
        <time>2015-12-30T13:30:26.000Z</time>
      </trkpt>
      <trkpt lat="47.44314" lon="0.85531">
        <ele>67.199996948242</ele>
        <time>2015-12-30T13:30:30.000Z</time>
      </trkpt>
      <trkpt lat="47.44314" lon="0.85531">
        <ele>67.199996948242</ele>
        <time>2015-12-30T13:30:32.000Z</time>
      </trkpt>
      <trkpt lat="47.44314" lon="0.85531">
        <ele>67.199996948242</ele>
        <time>2015-12-30T13:30:34.000Z</time>
      </trkpt>
      <trkpt lat="47.44267" lon="0.85546">
        <ele>70</ele>
        <time>2015-12-30T13:30:40.000Z</time>
      </trkpt>
      <trkpt lat="47.44254" lon="0.85547">
        <ele>71</ele>
        <time>2015-12-30T13:30:44.000Z</time>
      </trkpt>
      <trkpt lat="47.4424" lon="0.85543">
        <ele>71</ele>
        <time>2015-12-30T13:30:48.000Z</time>
      </trkpt>
      <trkpt lat="47.44228" lon="0.85543">
        <ele>70.599998474121</ele>
        <time>2015-12-30T13:30:52.000Z</time>
      </trkpt>
      <trkpt lat="47.4422" lon="0.85543">
        <ele>70.199996948242</ele>
        <time>2015-12-30T13:30:56.000Z</time>
      </trkpt>
      <trkpt lat="47.44212" lon="0.85543">
        <ele>70</ele>
        <time>2015-12-30T13:30:58.000Z</time>
      </trkpt>
      <trkpt lat="47.44203" lon="0.85543">
        <ele>69.599998474121</ele>
        <time>2015-12-30T13:31:00.000Z</time>
      </trkpt>
      <trkpt lat="47.44193" lon="0.85542">
        <ele>69.400001525879</ele>
        <time>2015-12-30T13:31:02.000Z</time>
      </trkpt>
      <trkpt lat="47.44183" lon="0.85543">
        <ele>69</ele>
        <time>2015-12-30T13:31:04.000Z</time>
      </trkpt>
      <trkpt lat="47.44159" lon="0.85546">
        <ele>68</ele>
        <time>2015-12-30T13:31:06.000Z</time>
      </trkpt>
      <trkpt lat="47.44147" lon="0.85548">
        <ele>67.199996948242</ele>
        <time>2015-12-30T13:31:08.000Z</time>
      </trkpt>
      <trkpt lat="47.44134" lon="0.85549">
        <ele>66.599998474121</ele>
        <time>2015-12-30T13:31:10.000Z</time>
      </trkpt>
      <trkpt lat="47.4412" lon="0.8555">
        <ele>66</ele>
        <time>2015-12-30T13:31:12.000Z</time>
      </trkpt>
      <trkpt lat="47.44107" lon="0.85551">
        <ele>65.400001525879</ele>
        <time>2015-12-30T13:31:14.000Z</time>
      </trkpt>
      <trkpt lat="47.44093" lon="0.85551">
        <ele>64.599998474121</ele>
        <time>2015-12-30T13:31:16.000Z</time>
      </trkpt>
      <trkpt lat="47.44079" lon="0.85551">
        <ele>64</ele>
        <time>2015-12-30T13:31:18.000Z</time>
      </trkpt>
      <trkpt lat="47.44066" lon="0.85551">
        <ele>63.400001525879</ele>
        <time>2015-12-30T13:31:20.000Z</time>
      </trkpt>
      <trkpt lat="47.44051" lon="0.85554">
        <ele>62.599998474121</ele>
        <time>2015-12-30T13:31:22.000Z</time>
      </trkpt>
      <trkpt lat="47.44036" lon="0.85557">
        <ele>61.799999237061</ele>
        <time>2015-12-30T13:31:24.000Z</time>
      </trkpt>
      <trkpt lat="47.4402" lon="0.85563">
        <ele>60.799999237061</ele>
        <time>2015-12-30T13:31:26.000Z</time>
      </trkpt>
      <trkpt lat="47.44007" lon="0.85563">
        <ele>60.200000762939</ele>
        <time>2015-12-30T13:31:28.000Z</time>
      </trkpt>
      <trkpt lat="47.4399" lon="0.85568">
        <ele>59.599998474121</ele>
        <time>2015-12-30T13:31:30.000Z</time>
      </trkpt>
      <trkpt lat="47.43976" lon="0.8557">
        <ele>59</ele>
        <time>2015-12-30T13:31:32.000Z</time>
      </trkpt>
      <trkpt lat="47.43962" lon="0.85573">
        <ele>58.799999237061</ele>
        <time>2015-12-30T13:31:34.000Z</time>
      </trkpt>
      <trkpt lat="47.43948" lon="0.85573">
        <ele>58.400001525879</ele>
        <time>2015-12-30T13:31:36.000Z</time>
      </trkpt>
      <trkpt lat="47.43933" lon="0.85575">
        <ele>58</ele>
        <time>2015-12-30T13:31:38.000Z</time>
      </trkpt>
      <trkpt lat="47.43919" lon="0.85576">
        <ele>57.400001525879</ele>
        <time>2015-12-30T13:31:40.000Z</time>
      </trkpt>
      <trkpt lat="47.43907" lon="0.85581">
        <ele>57</ele>
        <time>2015-12-30T13:31:42.000Z</time>
      </trkpt>
      <trkpt lat="47.43898" lon="0.85569">
        <ele>57.400001525879</ele>
        <time>2015-12-30T13:31:44.000Z</time>
      </trkpt>
      <trkpt lat="47.43865" lon="0.85589">
        <ele>56.200000762939</ele>
        <time>2015-12-30T13:31:48.000Z</time>
      </trkpt>
      <trkpt lat="47.43847" lon="0.85597">
        <ele>56</ele>
        <time>2015-12-30T13:31:50.000Z</time>
      </trkpt>
      <trkpt lat="47.43847" lon="0.85597">
        <ele>56</ele>
        <time>2015-12-30T13:31:55.000Z</time>
      </trkpt>
      <trkpt lat="47.43847" lon="0.85597">
        <ele>56</ele>
        <time>2015-12-30T13:32:02.000Z</time>
      </trkpt>
      <trkpt lat="47.43847" lon="0.85597">
        <ele>56</ele>
        <time>2015-12-30T13:32:04.000Z</time>
      </trkpt>
      <trkpt lat="47.43847" lon="0.85597">
        <ele>56</ele>
        <time>2015-12-30T13:32:06.000Z</time>
      </trkpt>
      <trkpt lat="47.43847" lon="0.85597">
        <ele>56</ele>
        <time>2015-12-30T13:32:08.000Z</time>
      </trkpt>
      <trkpt lat="47.43847" lon="0.85597">
        <ele>56</ele>
        <time>2015-12-30T13:32:10.000Z</time>
      </trkpt>
      <trkpt lat="47.43808" lon="0.85615">
        <ele>55.200000762939</ele>
        <time>2015-12-30T13:32:13.000Z</time>
      </trkpt>
      <trkpt lat="47.43816" lon="0.85624">
        <ele>55.200000762939</ele>
        <time>2015-12-30T13:32:15.000Z</time>
      </trkpt>
      <trkpt lat="47.43824" lon="0.85636">
        <ele>55</ele>
        <time>2015-12-30T13:32:17.000Z</time>
      </trkpt>
      <trkpt lat="47.43834" lon="0.85649">
        <ele>55</ele>
        <time>2015-12-30T13:32:19.000Z</time>
      </trkpt>
      <trkpt lat="47.43842" lon="0.8566">
        <ele>55.200000762939</ele>
        <time>2015-12-30T13:32:21.000Z</time>
      </trkpt>
      <trkpt lat="47.4385" lon="0.85675">
        <ele>55.200000762939</ele>
        <time>2015-12-30T13:32:23.000Z</time>
      </trkpt>
      <trkpt lat="47.4386" lon="0.85687">
        <ele>55.400001525879</ele>
        <time>2015-12-30T13:32:25.000Z</time>
      </trkpt>
      <trkpt lat="47.43867" lon="0.85699">
        <ele>55.400001525879</ele>
        <time>2015-12-30T13:32:27.000Z</time>
      </trkpt>
      <trkpt lat="47.43876" lon="0.85709">
        <ele>55.599998474121</ele>
        <time>2015-12-30T13:32:29.000Z</time>
      </trkpt>
      <trkpt lat="47.43883" lon="0.8572">
        <ele>55.599998474121</ele>
        <time>2015-12-30T13:32:31.000Z</time>
      </trkpt>
      <trkpt lat="47.43892" lon="0.85731">
        <ele>55.799999237061</ele>
        <time>2015-12-30T13:32:33.000Z</time>
      </trkpt>
      <trkpt lat="47.439" lon="0.85741">
        <ele>56</ele>
        <time>2015-12-30T13:32:35.000Z</time>
      </trkpt>
      <trkpt lat="47.43909" lon="0.85753">
        <ele>56.200000762939</ele>
        <time>2015-12-30T13:32:37.000Z</time>
      </trkpt>
      <trkpt lat="47.43916" lon="0.85762">
        <ele>56.400001525879</ele>
        <time>2015-12-30T13:32:39.000Z</time>
      </trkpt>
      <trkpt lat="47.43924" lon="0.85772">
        <ele>56.599998474121</ele>
        <time>2015-12-30T13:32:41.000Z</time>
      </trkpt>
      <trkpt lat="47.43931" lon="0.85783">
        <ele>56.799999237061</ele>
        <time>2015-12-30T13:32:43.000Z</time>
      </trkpt>
      <trkpt lat="47.43931" lon="0.85783">
        <ele>56.799999237061</ele>
        <time>2015-12-30T13:32:45.000Z</time>
      </trkpt>
      <trkpt lat="47.43931" lon="0.85783">
        <ele>56.799999237061</ele>
        <time>2015-12-30T13:32:47.000Z</time>
      </trkpt>
      <trkpt lat="47.43931" lon="0.85783">
        <ele>56.799999237061</ele>
        <time>2015-12-30T13:32:49.000Z</time>
      </trkpt>
      <trkpt lat="47.43931" lon="0.85783">
        <ele>56.799999237061</ele>
        <time>2015-12-30T13:32:51.000Z</time>
      </trkpt>
      <trkpt lat="47.43931" lon="0.85783">
        <ele>56.799999237061</ele>
        <time>2015-12-30T13:32:53.000Z</time>
      </trkpt>
      <trkpt lat="47.43913" lon="0.85865">
        <ele>57</ele>
        <time>2015-12-30T13:32:57.000Z</time>
      </trkpt>
      <trkpt lat="47.43905" lon="0.85875">
        <ele>56.799999237061</ele>
        <time>2015-12-30T13:32:59.000Z</time>
      </trkpt>
      <trkpt lat="47.43899" lon="0.85887">
        <ele>56.599998474121</ele>
        <time>2015-12-30T13:33:01.000Z</time>
      </trkpt>
      <trkpt lat="47.4389" lon="0.85895">
        <ele>56.200000762939</ele>
        <time>2015-12-30T13:33:03.000Z</time>
      </trkpt>
      <trkpt lat="47.43883" lon="0.85905">
        <ele>55.799999237061</ele>
        <time>2015-12-30T13:33:05.000Z</time>
      </trkpt>
      <trkpt lat="47.43878" lon="0.85918">
        <ele>55.400001525879</ele>
        <time>2015-12-30T13:33:07.000Z</time>
      </trkpt>
      <trkpt lat="47.43878" lon="0.85918">
        <ele>55.400001525879</ele>
        <time>2015-12-30T13:33:09.000Z</time>
      </trkpt>
      <trkpt lat="47.43878" lon="0.85918">
        <ele>55.400001525879</ele>
        <time>2015-12-30T13:33:12.000Z</time>
      </trkpt>
      <trkpt lat="47.43878" lon="0.85918">
        <ele>55.400001525879</ele>
        <time>2015-12-30T13:33:14.000Z</time>
      </trkpt>
      <trkpt lat="47.43878" lon="0.85918">
        <ele>55.400001525879</ele>
        <time>2015-12-30T13:33:16.000Z</time>
      </trkpt>
      <trkpt lat="47.43878" lon="0.85918">
        <ele>55.400001525879</ele>
        <time>2015-12-30T13:33:18.000Z</time>
      </trkpt>
      <trkpt lat="47.43896" lon="0.85961">
        <ele>55</ele>
        <time>2015-12-30T13:33:22.000Z</time>
      </trkpt>
      <trkpt lat="47.43905" lon="0.85975">
        <ele>55.200000762939</ele>
        <time>2015-12-30T13:33:26.000Z</time>
      </trkpt>
      <trkpt lat="47.43917" lon="0.85988">
        <ele>55</ele>
        <time>2015-12-30T13:33:30.000Z</time>
      </trkpt>
      <trkpt lat="47.43917" lon="0.85988">
        <ele>55</ele>
        <time>2015-12-30T13:33:32.000Z</time>
      </trkpt>
      <trkpt lat="47.43917" lon="0.85988">
        <ele>55</ele>
        <time>2015-12-30T13:33:34.000Z</time>
      </trkpt>
      <trkpt lat="47.43917" lon="0.85988">
        <ele>55</ele>
        <time>2015-12-30T13:33:36.000Z</time>
      </trkpt>
      <trkpt lat="47.43917" lon="0.85988">
        <ele>55</ele>
        <time>2015-12-30T13:33:38.000Z</time>
      </trkpt>
      <trkpt lat="47.43917" lon="0.85988">
        <ele>55</ele>
        <time>2015-12-30T13:33:42.000Z</time>
      </trkpt>
      <trkpt lat="47.43917" lon="0.85988">
        <ele>55</ele>
        <time>2015-12-30T13:33:46.000Z</time>
      </trkpt>
      <trkpt lat="47.43917" lon="0.85988">
        <ele>55</ele>
        <time>2015-12-30T13:33:48.000Z</time>
      </trkpt>
      <trkpt lat="47.43917" lon="0.85988">
        <ele>55</ele>
        <time>2015-12-30T13:33:50.000Z</time>
      </trkpt>
      <trkpt lat="47.43917" lon="0.85988">
        <ele>55</ele>
        <time>2015-12-30T13:33:52.000Z</time>
      </trkpt>
      <trkpt lat="47.43953" lon="0.86034">
        <ele>56</ele>
        <time>2015-12-30T13:33:58.000Z</time>
      </trkpt>
      <trkpt lat="47.43975" lon="0.8606">
        <ele>56.400001525879</ele>
        <time>2015-12-30T13:34:00.000Z</time>
      </trkpt>
      <trkpt lat="47.43989" lon="0.86077">
        <ele>56.799999237061</ele>
        <time>2015-12-30T13:34:02.000Z</time>
      </trkpt>
      <trkpt lat="47.44" lon="0.86088">
        <ele>57</ele>
        <time>2015-12-30T13:34:04.000Z</time>
      </trkpt>
      <trkpt lat="47.4401" lon="0.86097">
        <ele>56.799999237061</ele>
        <time>2015-12-30T13:34:06.000Z</time>
      </trkpt>
      <trkpt lat="47.44027" lon="0.86117">
        <ele>56.599998474121</ele>
        <time>2015-12-30T13:34:08.000Z</time>
      </trkpt>
      <trkpt lat="47.44046" lon="0.86129">
        <ele>56.400001525879</ele>
        <time>2015-12-30T13:34:11.000Z</time>
      </trkpt>
      <trkpt lat="47.44059" lon="0.86136">
        <ele>56.200000762939</ele>
        <time>2015-12-30T13:34:13.000Z</time>
      </trkpt>
      <trkpt lat="47.44066" lon="0.86146">
        <ele>56</ele>
        <time>2015-12-30T13:34:15.000Z</time>
      </trkpt>
      <trkpt lat="47.44066" lon="0.86146">
        <ele>56</ele>
        <time>2015-12-30T13:34:17.000Z</time>
      </trkpt>
      <trkpt lat="47.44066" lon="0.86146">
        <ele>56</ele>
        <time>2015-12-30T13:34:19.000Z</time>
      </trkpt>
      <trkpt lat="47.44066" lon="0.86146">
        <ele>56</ele>
        <time>2015-12-30T13:34:21.000Z</time>
      </trkpt>
      <trkpt lat="47.44104" lon="0.86181">
        <ele>55.799999237061</ele>
        <time>2015-12-30T13:34:25.000Z</time>
      </trkpt>
      <trkpt lat="47.44112" lon="0.86191">
        <ele>55.799999237061</ele>
        <time>2015-12-30T13:34:27.000Z</time>
      </trkpt>
      <trkpt lat="47.4412" lon="0.86199">
        <ele>56</ele>
        <time>2015-12-30T13:34:29.000Z</time>
      </trkpt>
      <trkpt lat="47.44128" lon="0.86211">
        <ele>56</ele>
        <time>2015-12-30T13:34:31.000Z</time>
      </trkpt>
      <trkpt lat="47.44139" lon="0.8622">
        <ele>56.200000762939</ele>
        <time>2015-12-30T13:34:33.000Z</time>
      </trkpt>
      <trkpt lat="47.44147" lon="0.86229">
        <ele>56.200000762939</ele>
        <time>2015-12-30T13:34:35.000Z</time>
      </trkpt>
      <trkpt lat="47.44158" lon="0.86238">
        <ele>56.400001525879</ele>
        <time>2015-12-30T13:34:37.000Z</time>
      </trkpt>
      <trkpt lat="47.44167" lon="0.86246">
        <ele>56.400001525879</ele>
        <time>2015-12-30T13:34:39.000Z</time>
      </trkpt>
      <trkpt lat="47.44176" lon="0.86253">
        <ele>56.599998474121</ele>
        <time>2015-12-30T13:34:41.000Z</time>
      </trkpt>
      <trkpt lat="47.44183" lon="0.86267">
        <ele>56.400001525879</ele>
        <time>2015-12-30T13:34:43.000Z</time>
      </trkpt>
      <trkpt lat="47.44192" lon="0.86273">
        <ele>56.400001525879</ele>
        <time>2015-12-30T13:34:45.000Z</time>
      </trkpt>
      <trkpt lat="47.44202" lon="0.86282">
        <ele>56.400001525879</ele>
        <time>2015-12-30T13:34:47.000Z</time>
      </trkpt>
      <trkpt lat="47.44202" lon="0.86282">
        <ele>56.400001525879</ele>
        <time>2015-12-30T13:34:49.000Z</time>
      </trkpt>
      <trkpt lat="47.44202" lon="0.86282">
        <ele>56.400001525879</ele>
        <time>2015-12-30T13:34:51.000Z</time>
      </trkpt>
      <trkpt lat="47.44202" lon="0.86282">
        <ele>56.400001525879</ele>
        <time>2015-12-30T13:34:53.000Z</time>
      </trkpt>
      <trkpt lat="47.44202" lon="0.86282">
        <ele>56.400001525879</ele>
        <time>2015-12-30T13:34:55.000Z</time>
      </trkpt>
      <trkpt lat="47.44202" lon="0.86282">
        <ele>56.400001525879</ele>
        <time>2015-12-30T13:34:57.000Z</time>
      </trkpt>
      <trkpt lat="47.44202" lon="0.86282">
        <ele>56.400001525879</ele>
        <time>2015-12-30T13:34:59.000Z</time>
      </trkpt>
      <trkpt lat="47.44202" lon="0.86282">
        <ele>56.400001525879</ele>
        <time>2015-12-30T13:35:01.000Z</time>
      </trkpt>
      <trkpt lat="47.44202" lon="0.86282">
        <ele>56.400001525879</ele>
        <time>2015-12-30T13:35:03.000Z</time>
      </trkpt>
      <trkpt lat="47.44202" lon="0.86282">
        <ele>56.400001525879</ele>
        <time>2015-12-30T13:35:05.000Z</time>
      </trkpt>
      <trkpt lat="47.44202" lon="0.86282">
        <ele>56.400001525879</ele>
        <time>2015-12-30T13:35:07.000Z</time>
      </trkpt>
      <trkpt lat="47.44202" lon="0.86282">
        <ele>56.400001525879</ele>
        <time>2015-12-30T13:35:09.000Z</time>
      </trkpt>
      <trkpt lat="47.44286" lon="0.86366">
        <ele>57.200000762939</ele>
        <time>2015-12-30T13:35:13.000Z</time>
      </trkpt>
      <trkpt lat="47.44302" lon="0.86382">
        <ele>57.400001525879</ele>
        <time>2015-12-30T13:35:17.000Z</time>
      </trkpt>
      <trkpt lat="47.4431" lon="0.86389">
        <ele>57.400001525879</ele>
        <time>2015-12-30T13:35:19.000Z</time>
      </trkpt>
      <trkpt lat="47.44318" lon="0.86397">
        <ele>57.599998474121</ele>
        <time>2015-12-30T13:35:21.000Z</time>
      </trkpt>
      <trkpt lat="47.44327" lon="0.86404">
        <ele>57.599998474121</ele>
        <time>2015-12-30T13:35:23.000Z</time>
      </trkpt>
      <trkpt lat="47.44337" lon="0.86412">
        <ele>57.799999237061</ele>
        <time>2015-12-30T13:35:25.000Z</time>
      </trkpt>
      <trkpt lat="47.44345" lon="0.86418">
        <ele>57.599998474121</ele>
        <time>2015-12-30T13:35:27.000Z</time>
      </trkpt>
      <trkpt lat="47.44354" lon="0.86426">
        <ele>57.599998474121</ele>
        <time>2015-12-30T13:35:29.000Z</time>
      </trkpt>
      <trkpt lat="47.44361" lon="0.86438">
        <ele>57.400001525879</ele>
        <time>2015-12-30T13:35:31.000Z</time>
      </trkpt>
      <trkpt lat="47.44374" lon="0.86436">
        <ele>57.400001525879</ele>
        <time>2015-12-30T13:35:33.000Z</time>
      </trkpt>
      <trkpt lat="47.44382" lon="0.86445">
        <ele>57.400001525879</ele>
        <time>2015-12-30T13:35:35.000Z</time>
      </trkpt>
      <trkpt lat="47.44387" lon="0.86462">
        <ele>57.200000762939</ele>
        <time>2015-12-30T13:35:37.000Z</time>
      </trkpt>
      <trkpt lat="47.44398" lon="0.86472">
        <ele>57</ele>
        <time>2015-12-30T13:35:39.000Z</time>
      </trkpt>
      <trkpt lat="47.44414" lon="0.86497">
        <ele>57</ele>
        <time>2015-12-30T13:35:43.000Z</time>
      </trkpt>
      <trkpt lat="47.44429" lon="0.86512">
        <ele>57.400001525879</ele>
        <time>2015-12-30T13:35:47.000Z</time>
      </trkpt>
      <trkpt lat="47.44437" lon="0.86522">
        <ele>57.799999237061</ele>
        <time>2015-12-30T13:35:49.000Z</time>
      </trkpt>
      <trkpt lat="47.44446" lon="0.86532">
        <ele>58</ele>
        <time>2015-12-30T13:35:51.000Z</time>
      </trkpt>
      <trkpt lat="47.44455" lon="0.86543">
        <ele>58.400001525879</ele>
        <time>2015-12-30T13:35:53.000Z</time>
      </trkpt>
      <trkpt lat="47.44466" lon="0.86552">
        <ele>58.799999237061</ele>
        <time>2015-12-30T13:35:55.000Z</time>
      </trkpt>
      <trkpt lat="47.44466" lon="0.86552">
        <ele>58.799999237061</ele>
        <time>2015-12-30T13:35:57.000Z</time>
      </trkpt>
      <trkpt lat="47.44466" lon="0.86552">
        <ele>58.799999237061</ele>
        <time>2015-12-30T13:35:59.000Z</time>
      </trkpt>
      <trkpt lat="47.44466" lon="0.86552">
        <ele>58.799999237061</ele>
        <time>2015-12-30T13:36:01.000Z</time>
      </trkpt>
      <trkpt lat="47.44466" lon="0.86552">
        <ele>58.799999237061</ele>
        <time>2015-12-30T13:36:03.000Z</time>
      </trkpt>
      <trkpt lat="47.44516" lon="0.86621">
        <ele>59.200000762939</ele>
        <time>2015-12-30T13:36:07.000Z</time>
      </trkpt>
      <trkpt lat="47.44525" lon="0.86631">
        <ele>59.200000762939</ele>
        <time>2015-12-30T13:36:09.000Z</time>
      </trkpt>
      <trkpt lat="47.44536" lon="0.86641">
        <ele>59</ele>
        <time>2015-12-30T13:36:11.000Z</time>
      </trkpt>
      <trkpt lat="47.44544" lon="0.86658">
        <ele>59</ele>
        <time>2015-12-30T13:36:13.000Z</time>
      </trkpt>
      <trkpt lat="47.44555" lon="0.86669">
        <ele>59</ele>
        <time>2015-12-30T13:36:15.000Z</time>
      </trkpt>
      <trkpt lat="47.44566" lon="0.86681">
        <ele>59</ele>
        <time>2015-12-30T13:36:17.000Z</time>
      </trkpt>
      <trkpt lat="47.44576" lon="0.86693">
        <ele>59</ele>
        <time>2015-12-30T13:36:19.000Z</time>
      </trkpt>
      <trkpt lat="47.44585" lon="0.86704">
        <ele>59</ele>
        <time>2015-12-30T13:36:21.000Z</time>
      </trkpt>
      <trkpt lat="47.44595" lon="0.86714">
        <ele>59.400001525879</ele>
        <time>2015-12-30T13:36:23.000Z</time>
      </trkpt>
      <trkpt lat="47.44603" lon="0.86726">
        <ele>59.599998474121</ele>
        <time>2015-12-30T13:36:25.000Z</time>
      </trkpt>
      <trkpt lat="47.44609" lon="0.86738">
        <ele>59.799999237061</ele>
        <time>2015-12-30T13:36:27.000Z</time>
      </trkpt>
      <trkpt lat="47.44609" lon="0.86738">
        <ele>59.799999237061</ele>
        <time>2015-12-30T13:36:29.000Z</time>
      </trkpt>
      <trkpt lat="47.44609" lon="0.86738">
        <ele>59.799999237061</ele>
        <time>2015-12-30T13:36:31.000Z</time>
      </trkpt>
      <trkpt lat="47.44648" lon="0.86781">
        <ele>60.599998474121</ele>
        <time>2015-12-30T13:36:35.000Z</time>
      </trkpt>
      <trkpt lat="47.44654" lon="0.86796">
        <ele>60.799999237061</ele>
        <time>2015-12-30T13:36:37.000Z</time>
      </trkpt>
      <trkpt lat="47.44665" lon="0.86805">
        <ele>61</ele>
        <time>2015-12-30T13:36:39.000Z</time>
      </trkpt>
      <trkpt lat="47.44672" lon="0.86815">
        <ele>60.599998474121</ele>
        <time>2015-12-30T13:36:41.000Z</time>
      </trkpt>
      <trkpt lat="47.44683" lon="0.86827">
        <ele>60.200000762939</ele>
        <time>2015-12-30T13:36:43.000Z</time>
      </trkpt>
      <trkpt lat="47.4469" lon="0.86841">
        <ele>59.599998474121</ele>
        <time>2015-12-30T13:36:45.000Z</time>
      </trkpt>
      <trkpt lat="47.44698" lon="0.86852">
        <ele>59.200000762939</ele>
        <time>2015-12-30T13:36:47.000Z</time>
      </trkpt>
      <trkpt lat="47.44707" lon="0.86863">
        <ele>58.799999237061</ele>
        <time>2015-12-30T13:36:49.000Z</time>
      </trkpt>
      <trkpt lat="47.44715" lon="0.86874">
        <ele>58.400001525879</ele>
        <time>2015-12-30T13:36:51.000Z</time>
      </trkpt>
      <trkpt lat="47.44723" lon="0.86885">
        <ele>58</ele>
        <time>2015-12-30T13:36:53.000Z</time>
      </trkpt>
      <trkpt lat="47.44732" lon="0.869">
        <ele>57.599998474121</ele>
        <time>2015-12-30T13:36:55.000Z</time>
      </trkpt>
      <trkpt lat="47.44741" lon="0.86912">
        <ele>57.400001525879</ele>
        <time>2015-12-30T13:36:57.000Z</time>
      </trkpt>
      <trkpt lat="47.4475" lon="0.86923">
        <ele>57.200000762939</ele>
        <time>2015-12-30T13:36:59.000Z</time>
      </trkpt>
      <trkpt lat="47.44759" lon="0.8693">
        <ele>57.200000762939</ele>
        <time>2015-12-30T13:37:01.000Z</time>
      </trkpt>
      <trkpt lat="47.44766" lon="0.86944">
        <ele>57.200000762939</ele>
        <time>2015-12-30T13:37:03.000Z</time>
      </trkpt>
      <trkpt lat="47.44766" lon="0.86944">
        <ele>57.200000762939</ele>
        <time>2015-12-30T13:37:05.000Z</time>
      </trkpt>
      <trkpt lat="47.44766" lon="0.86944">
        <ele>57.200000762939</ele>
        <time>2015-12-30T13:37:07.000Z</time>
      </trkpt>
      <trkpt lat="47.44786" lon="0.8697">
        <ele>57</ele>
        <time>2015-12-30T13:37:13.000Z</time>
      </trkpt>
      <trkpt lat="47.44786" lon="0.8697">
        <ele>57</ele>
        <time>2015-12-30T13:37:15.000Z</time>
      </trkpt>
      <trkpt lat="47.44786" lon="0.8697">
        <ele>57</ele>
        <time>2015-12-30T13:37:17.000Z</time>
      </trkpt>
      <trkpt lat="47.44786" lon="0.8697">
        <ele>57</ele>
        <time>2015-12-30T13:37:19.000Z</time>
      </trkpt>
      <trkpt lat="47.44786" lon="0.8697">
        <ele>57</ele>
        <time>2015-12-30T13:37:21.000Z</time>
      </trkpt>
      <trkpt lat="47.44786" lon="0.8697">
        <ele>57</ele>
        <time>2015-12-30T13:37:23.000Z</time>
      </trkpt>
      <trkpt lat="47.44786" lon="0.8697">
        <ele>57</ele>
        <time>2015-12-30T13:37:25.000Z</time>
      </trkpt>
      <trkpt lat="47.44786" lon="0.8697">
        <ele>57</ele>
        <time>2015-12-30T13:37:27.000Z</time>
      </trkpt>
      <trkpt lat="47.44829" lon="0.87026">
        <ele>58</ele>
        <time>2015-12-30T13:37:33.000Z</time>
      </trkpt>
      <trkpt lat="47.44854" lon="0.87059">
        <ele>58</ele>
        <time>2015-12-30T13:37:35.000Z</time>
      </trkpt>
      <trkpt lat="47.44868" lon="0.87082">
        <ele>57.599998474121</ele>
        <time>2015-12-30T13:37:37.000Z</time>
      </trkpt>
      <trkpt lat="47.4488" lon="0.87098">
        <ele>57.400001525879</ele>
        <time>2015-12-30T13:37:39.000Z</time>
      </trkpt>
      <trkpt lat="47.44889" lon="0.87112">
        <ele>57.400001525879</ele>
        <time>2015-12-30T13:37:41.000Z</time>
      </trkpt>
      <trkpt lat="47.44907" lon="0.87135">
        <ele>57</ele>
        <time>2015-12-30T13:37:43.000Z</time>
      </trkpt>
      <trkpt lat="47.44915" lon="0.87145">
        <ele>57</ele>
        <time>2015-12-30T13:37:45.000Z</time>
      </trkpt>
      <trkpt lat="47.44923" lon="0.87155">
        <ele>57.200000762939</ele>
        <time>2015-12-30T13:37:47.000Z</time>
      </trkpt>
      <trkpt lat="47.44928" lon="0.87167">
        <ele>57.400001525879</ele>
        <time>2015-12-30T13:37:49.000Z</time>
      </trkpt>
      <trkpt lat="47.44933" lon="0.87178">
        <ele>57.599998474121</ele>
        <time>2015-12-30T13:37:51.000Z</time>
      </trkpt>
      <trkpt lat="47.44941" lon="0.87188">
        <ele>57.799999237061</ele>
        <time>2015-12-30T13:37:53.000Z</time>
      </trkpt>
      <trkpt lat="47.44949" lon="0.87196">
        <ele>58</ele>
        <time>2015-12-30T13:37:55.000Z</time>
      </trkpt>
      <trkpt lat="47.44961" lon="0.87215">
        <ele>58.400001525879</ele>
        <time>2015-12-30T13:37:59.000Z</time>
      </trkpt>
      <trkpt lat="47.4497" lon="0.87228">
        <ele>58.599998474121</ele>
        <time>2015-12-30T13:38:01.000Z</time>
      </trkpt>
      <trkpt lat="47.44977" lon="0.87238">
        <ele>58.799999237061</ele>
        <time>2015-12-30T13:38:03.000Z</time>
      </trkpt>
      <trkpt lat="47.44977" lon="0.87238">
        <ele>58.799999237061</ele>
        <time>2015-12-30T13:38:05.000Z</time>
      </trkpt>
      <trkpt lat="47.44977" lon="0.87238">
        <ele>58.799999237061</ele>
        <time>2015-12-30T13:38:07.000Z</time>
      </trkpt>
      <trkpt lat="47.44977" lon="0.87238">
        <ele>58.799999237061</ele>
        <time>2015-12-30T13:38:09.000Z</time>
      </trkpt>
      <trkpt lat="47.45022" lon="0.87293">
        <ele>59.200000762939</ele>
        <time>2015-12-30T13:38:15.000Z</time>
      </trkpt>
      <trkpt lat="47.45029" lon="0.87303">
        <ele>59.400001525879</ele>
        <time>2015-12-30T13:38:17.000Z</time>
      </trkpt>
      <trkpt lat="47.45037" lon="0.87314">
        <ele>59.400001525879</ele>
        <time>2015-12-30T13:38:19.000Z</time>
      </trkpt>
      <trkpt lat="47.45037" lon="0.87314">
        <ele>59.400001525879</ele>
        <time>2015-12-30T13:38:21.000Z</time>
      </trkpt>
      <trkpt lat="47.45037" lon="0.87314">
        <ele>59.400001525879</ele>
        <time>2015-12-30T13:38:23.000Z</time>
      </trkpt>
      <trkpt lat="47.45037" lon="0.87314">
        <ele>59.400001525879</ele>
        <time>2015-12-30T13:38:25.000Z</time>
      </trkpt>
      <trkpt lat="47.45037" lon="0.87314">
        <ele>59.400001525879</ele>
        <time>2015-12-30T13:38:27.000Z</time>
      </trkpt>
      <trkpt lat="47.45037" lon="0.87314">
        <ele>59.400001525879</ele>
        <time>2015-12-30T13:38:29.000Z</time>
      </trkpt>
      <trkpt lat="47.45083" lon="0.87379">
        <ele>60</ele>
        <time>2015-12-30T13:38:33.000Z</time>
      </trkpt>
      <trkpt lat="47.45083" lon="0.87379">
        <ele>60</ele>
        <time>2015-12-30T13:38:35.000Z</time>
      </trkpt>
      <trkpt lat="47.45097" lon="0.87394">
        <ele>59.799999237061</ele>
        <time>2015-12-30T13:38:37.000Z</time>
      </trkpt>
      <trkpt lat="47.45097" lon="0.87394">
        <ele>59.799999237061</ele>
        <time>2015-12-30T13:38:39.000Z</time>
      </trkpt>
      <trkpt lat="47.4511" lon="0.87415">
        <ele>59</ele>
        <time>2015-12-30T13:38:41.000Z</time>
      </trkpt>
      <trkpt lat="47.45117" lon="0.87424">
        <ele>58.799999237061</ele>
        <time>2015-12-30T13:38:43.000Z</time>
      </trkpt>
      <trkpt lat="47.45125" lon="0.8743">
        <ele>58.599998474121</ele>
        <time>2015-12-30T13:38:45.000Z</time>
      </trkpt>
      <trkpt lat="47.45133" lon="0.87437">
        <ele>58.200000762939</ele>
        <time>2015-12-30T13:38:47.000Z</time>
      </trkpt>
      <trkpt lat="47.45133" lon="0.87437">
        <ele>58.200000762939</ele>
        <time>2015-12-30T13:38:49.000Z</time>
      </trkpt>
      <trkpt lat="47.45133" lon="0.87437">
        <ele>58.200000762939</ele>
        <time>2015-12-30T13:38:51.000Z</time>
      </trkpt>
      <trkpt lat="47.45133" lon="0.87437">
        <ele>58.200000762939</ele>
        <time>2015-12-30T13:38:53.000Z</time>
      </trkpt>
      <trkpt lat="47.45133" lon="0.87437">
        <ele>58.200000762939</ele>
        <time>2015-12-30T13:38:55.000Z</time>
      </trkpt>
      <trkpt lat="47.45171" lon="0.87479">
        <ele>57.200000762939</ele>
        <time>2015-12-30T13:39:01.000Z</time>
      </trkpt>
      <trkpt lat="47.45183" lon="0.87489">
        <ele>57.599998474121</ele>
        <time>2015-12-30T13:39:05.000Z</time>
      </trkpt>
      <trkpt lat="47.45183" lon="0.87489">
        <ele>57.599998474121</ele>
        <time>2015-12-30T13:39:07.000Z</time>
      </trkpt>
      <trkpt lat="47.45198" lon="0.87504">
        <ele>58.200000762939</ele>
        <time>2015-12-30T13:39:09.000Z</time>
      </trkpt>
      <trkpt lat="47.45207" lon="0.8751">
        <ele>58.400001525879</ele>
        <time>2015-12-30T13:39:11.000Z</time>
      </trkpt>
      <trkpt lat="47.45216" lon="0.87521">
        <ele>58.799999237061</ele>
        <time>2015-12-30T13:39:13.000Z</time>
      </trkpt>
      <trkpt lat="47.45224" lon="0.87529">
        <ele>59.200000762939</ele>
        <time>2015-12-30T13:39:15.000Z</time>
      </trkpt>
      <trkpt lat="47.45232" lon="0.87538">
        <ele>59.400001525879</ele>
        <time>2015-12-30T13:39:17.000Z</time>
      </trkpt>
      <trkpt lat="47.45242" lon="0.87545">
        <ele>59.799999237061</ele>
        <time>2015-12-30T13:39:19.000Z</time>
      </trkpt>
      <trkpt lat="47.4525" lon="0.87556">
        <ele>60</ele>
        <time>2015-12-30T13:39:21.000Z</time>
      </trkpt>
      <trkpt lat="47.45258" lon="0.87565">
        <ele>60</ele>
        <time>2015-12-30T13:39:23.000Z</time>
      </trkpt>
      <trkpt lat="47.45267" lon="0.87574">
        <ele>60</ele>
        <time>2015-12-30T13:39:25.000Z</time>
      </trkpt>
      <trkpt lat="47.45277" lon="0.87581">
        <ele>60</ele>
        <time>2015-12-30T13:39:27.000Z</time>
      </trkpt>
      <trkpt lat="47.45287" lon="0.87589">
        <ele>60</ele>
        <time>2015-12-30T13:39:29.000Z</time>
      </trkpt>
      <trkpt lat="47.45296" lon="0.87597">
        <ele>60</ele>
        <time>2015-12-30T13:39:31.000Z</time>
      </trkpt>
      <trkpt lat="47.45306" lon="0.87604">
        <ele>59.799999237061</ele>
        <time>2015-12-30T13:39:33.000Z</time>
      </trkpt>
      <trkpt lat="47.45315" lon="0.87609">
        <ele>59.799999237061</ele>
        <time>2015-12-30T13:39:35.000Z</time>
      </trkpt>
      <trkpt lat="47.45315" lon="0.87609">
        <ele>59.799999237061</ele>
        <time>2015-12-30T13:39:37.000Z</time>
      </trkpt>
      <trkpt lat="47.45315" lon="0.87609">
        <ele>59.799999237061</ele>
        <time>2015-12-30T13:39:39.000Z</time>
      </trkpt>
      <trkpt lat="47.45315" lon="0.87609">
        <ele>59.799999237061</ele>
        <time>2015-12-30T13:39:41.000Z</time>
      </trkpt>
      <trkpt lat="47.45315" lon="0.87609">
        <ele>59.799999237061</ele>
        <time>2015-12-30T13:39:43.000Z</time>
      </trkpt>
      <trkpt lat="47.45315" lon="0.87609">
        <ele>59.799999237061</ele>
        <time>2015-12-30T13:39:45.000Z</time>
      </trkpt>
      <trkpt lat="47.45315" lon="0.87609">
        <ele>59.799999237061</ele>
        <time>2015-12-30T13:39:47.000Z</time>
      </trkpt>
      <trkpt lat="47.45315" lon="0.87609">
        <ele>59.799999237061</ele>
        <time>2015-12-30T13:39:49.000Z</time>
      </trkpt>
      <trkpt lat="47.45315" lon="0.87609">
        <ele>59.799999237061</ele>
        <time>2015-12-30T13:39:51.000Z</time>
      </trkpt>
      <trkpt lat="47.45315" lon="0.87609">
        <ele>59.799999237061</ele>
        <time>2015-12-30T13:39:53.000Z</time>
      </trkpt>
      <trkpt lat="47.45315" lon="0.87609">
        <ele>59.799999237061</ele>
        <time>2015-12-30T13:39:55.000Z</time>
      </trkpt>
      <trkpt lat="47.4537" lon="0.87652">
        <ele>60</ele>
        <time>2015-12-30T13:39:59.000Z</time>
      </trkpt>
      <trkpt lat="47.45402" lon="0.87677">
        <ele>59.400001525879</ele>
        <time>2015-12-30T13:40:01.000Z</time>
      </trkpt>
      <trkpt lat="47.45423" lon="0.87691">
        <ele>59.400001525879</ele>
        <time>2015-12-30T13:40:03.000Z</time>
      </trkpt>
      <trkpt lat="47.45437" lon="0.877">
        <ele>59.799999237061</ele>
        <time>2015-12-30T13:40:05.000Z</time>
      </trkpt>
      <trkpt lat="47.45437" lon="0.877">
        <ele>59.799999237061</ele>
        <time>2015-12-30T13:40:08.000Z</time>
      </trkpt>
      <trkpt lat="47.45465" lon="0.87707">
        <ele>61</ele>
        <time>2015-12-30T13:40:12.000Z</time>
      </trkpt>
      <trkpt lat="47.45484" lon="0.87715">
        <ele>61.599998474121</ele>
        <time>2015-12-30T13:40:14.000Z</time>
      </trkpt>
      <trkpt lat="47.45498" lon="0.87723">
        <ele>62</ele>
        <time>2015-12-30T13:40:16.000Z</time>
      </trkpt>
      <trkpt lat="47.45508" lon="0.87729">
        <ele>62</ele>
        <time>2015-12-30T13:40:18.000Z</time>
      </trkpt>
      <trkpt lat="47.45508" lon="0.87729">
        <ele>62</ele>
        <time>2015-12-30T13:40:20.000Z</time>
      </trkpt>
      <trkpt lat="47.45508" lon="0.87729">
        <ele>62</ele>
        <time>2015-12-30T13:40:22.000Z</time>
      </trkpt>
      <trkpt lat="47.45528" lon="0.87745">
        <ele>62</ele>
        <time>2015-12-30T13:40:24.000Z</time>
      </trkpt>
      <trkpt lat="47.45543" lon="0.87755">
        <ele>61.799999237061</ele>
        <time>2015-12-30T13:40:26.000Z</time>
      </trkpt>
      <trkpt lat="47.45555" lon="0.87762">
        <ele>62</ele>
        <time>2015-12-30T13:40:28.000Z</time>
      </trkpt>
      <trkpt lat="47.45567" lon="0.87769">
        <ele>62</ele>
        <time>2015-12-30T13:40:30.000Z</time>
      </trkpt>
      <trkpt lat="47.45588" lon="0.87776">
        <ele>62.200000762939</ele>
        <time>2015-12-30T13:40:34.000Z</time>
      </trkpt>
      <trkpt lat="47.45588" lon="0.87776">
        <ele>62.200000762939</ele>
        <time>2015-12-30T13:40:38.000Z</time>
      </trkpt>
      <trkpt lat="47.45588" lon="0.87776">
        <ele>62.200000762939</ele>
        <time>2015-12-30T13:40:40.000Z</time>
      </trkpt>
      <trkpt lat="47.45588" lon="0.87776">
        <ele>62.200000762939</ele>
        <time>2015-12-30T13:40:43.000Z</time>
      </trkpt>
      <trkpt lat="47.45588" lon="0.87776">
        <ele>62.200000762939</ele>
        <time>2015-12-30T13:40:46.000Z</time>
      </trkpt>
      <trkpt lat="47.45588" lon="0.87776">
        <ele>62.200000762939</ele>
        <time>2015-12-30T13:40:48.000Z</time>
      </trkpt>
      <trkpt lat="47.45588" lon="0.87776">
        <ele>62.200000762939</ele>
        <time>2015-12-30T13:40:50.000Z</time>
      </trkpt>
      <trkpt lat="47.45588" lon="0.87776">
        <ele>62.200000762939</ele>
        <time>2015-12-30T13:40:52.000Z</time>
      </trkpt>
      <trkpt lat="47.45588" lon="0.87776">
        <ele>62.200000762939</ele>
        <time>2015-12-30T13:40:54.000Z</time>
      </trkpt>
      <trkpt lat="47.45588" lon="0.87776">
        <ele>62.200000762939</ele>
        <time>2015-12-30T13:40:56.000Z</time>
      </trkpt>
      <trkpt lat="47.45588" lon="0.87776">
        <ele>62.200000762939</ele>
        <time>2015-12-30T13:40:58.000Z</time>
      </trkpt>
      <trkpt lat="47.45588" lon="0.87776">
        <ele>62.200000762939</ele>
        <time>2015-12-30T13:41:00.000Z</time>
      </trkpt>
      <trkpt lat="47.45588" lon="0.87776">
        <ele>62.200000762939</ele>
        <time>2015-12-30T13:41:02.000Z</time>
      </trkpt>
      <trkpt lat="47.45588" lon="0.87776">
        <ele>62.200000762939</ele>
        <time>2015-12-30T13:41:04.000Z</time>
      </trkpt>
      <trkpt lat="47.45751" lon="0.87839">
        <ele>63.799999237061</ele>
        <time>2015-12-30T13:41:08.000Z</time>
      </trkpt>
      <trkpt lat="47.45767" lon="0.87843">
        <ele>63.200000762939</ele>
        <time>2015-12-30T13:41:12.000Z</time>
      </trkpt>
      <trkpt lat="47.45787" lon="0.87849">
        <ele>62.599998474121</ele>
        <time>2015-12-30T13:41:16.000Z</time>
      </trkpt>
      <trkpt lat="47.45795" lon="0.87852">
        <ele>62.200000762939</ele>
        <time>2015-12-30T13:41:18.000Z</time>
      </trkpt>
      <trkpt lat="47.45811" lon="0.87855">
        <ele>61.400001525879</ele>
        <time>2015-12-30T13:41:22.000Z</time>
      </trkpt>
      <trkpt lat="47.45823" lon="0.8786">
        <ele>60.799999237061</ele>
        <time>2015-12-30T13:41:24.000Z</time>
      </trkpt>
      <trkpt lat="47.45835" lon="0.87862">
        <ele>60.400001525879</ele>
        <time>2015-12-30T13:41:26.000Z</time>
      </trkpt>
      <trkpt lat="47.45845" lon="0.87864">
        <ele>60.400001525879</ele>
        <time>2015-12-30T13:41:28.000Z</time>
      </trkpt>
      <trkpt lat="47.45859" lon="0.87867">
        <ele>60.200000762939</ele>
        <time>2015-12-30T13:41:30.000Z</time>
      </trkpt>
      <trkpt lat="47.45872" lon="0.87868">
        <ele>60.200000762939</ele>
        <time>2015-12-30T13:41:32.000Z</time>
      </trkpt>
      <trkpt lat="47.45883" lon="0.87873">
        <ele>60.200000762939</ele>
        <time>2015-12-30T13:41:34.000Z</time>
      </trkpt>
      <trkpt lat="47.45892" lon="0.87877">
        <ele>60.200000762939</ele>
        <time>2015-12-30T13:41:36.000Z</time>
      </trkpt>
      <trkpt lat="47.45892" lon="0.87877">
        <ele>60.200000762939</ele>
        <time>2015-12-30T13:41:38.000Z</time>
      </trkpt>
      <trkpt lat="47.45892" lon="0.87877">
        <ele>60.200000762939</ele>
        <time>2015-12-30T13:41:40.000Z</time>
      </trkpt>
      <trkpt lat="47.45892" lon="0.87877">
        <ele>60.200000762939</ele>
        <time>2015-12-30T13:41:42.000Z</time>
      </trkpt>
      <trkpt lat="47.45892" lon="0.87877">
        <ele>60.200000762939</ele>
        <time>2015-12-30T13:41:44.000Z</time>
      </trkpt>
      <trkpt lat="47.45892" lon="0.87877">
        <ele>60.200000762939</ele>
        <time>2015-12-30T13:41:46.000Z</time>
      </trkpt>
      <trkpt lat="47.45961" lon="0.87895">
        <ele>60.400001525879</ele>
        <time>2015-12-30T13:41:50.000Z</time>
      </trkpt>
      <trkpt lat="47.45971" lon="0.87899">
        <ele>60.400001525879</ele>
        <time>2015-12-30T13:41:52.000Z</time>
      </trkpt>
      <trkpt lat="47.45985" lon="0.87904">
        <ele>60.400001525879</ele>
        <time>2015-12-30T13:41:54.000Z</time>
      </trkpt>
      <trkpt lat="47.45999" lon="0.87904">
        <ele>60.599998474121</ele>
        <time>2015-12-30T13:41:56.000Z</time>
      </trkpt>
      <trkpt lat="47.46008" lon="0.87905">
        <ele>60.799999237061</ele>
        <time>2015-12-30T13:41:58.000Z</time>
      </trkpt>
      <trkpt lat="47.46021" lon="0.8791">
        <ele>60.799999237061</ele>
        <time>2015-12-30T13:42:00.000Z</time>
      </trkpt>
      <trkpt lat="47.46032" lon="0.87914">
        <ele>60.799999237061</ele>
        <time>2015-12-30T13:42:02.000Z</time>
      </trkpt>
      <trkpt lat="47.46046" lon="0.87917">
        <ele>60.599998474121</ele>
        <time>2015-12-30T13:42:04.000Z</time>
      </trkpt>
      <trkpt lat="47.46046" lon="0.87917">
        <ele>60.599998474121</ele>
        <time>2015-12-30T13:42:06.000Z</time>
      </trkpt>
      <trkpt lat="47.46046" lon="0.87917">
        <ele>60.599998474121</ele>
        <time>2015-12-30T13:42:08.000Z</time>
      </trkpt>
      <trkpt lat="47.46095" lon="0.87936">
        <ele>60.599998474121</ele>
        <time>2015-12-30T13:42:12.000Z</time>
      </trkpt>
      <trkpt lat="47.46106" lon="0.87938">
        <ele>60.799999237061</ele>
        <time>2015-12-30T13:42:14.000Z</time>
      </trkpt>
      <trkpt lat="47.46106" lon="0.87938">
        <ele>60.799999237061</ele>
        <time>2015-12-30T13:42:16.000Z</time>
      </trkpt>
      <trkpt lat="47.46106" lon="0.87938">
        <ele>60.799999237061</ele>
        <time>2015-12-30T13:42:18.000Z</time>
      </trkpt>
      <trkpt lat="47.46106" lon="0.87938">
        <ele>60.799999237061</ele>
        <time>2015-12-30T13:42:20.000Z</time>
      </trkpt>
      <trkpt lat="47.46106" lon="0.87938">
        <ele>60.799999237061</ele>
        <time>2015-12-30T13:42:22.000Z</time>
      </trkpt>
      <trkpt lat="47.46106" lon="0.87938">
        <ele>60.799999237061</ele>
        <time>2015-12-30T13:42:24.000Z</time>
      </trkpt>
      <trkpt lat="47.46106" lon="0.87938">
        <ele>60.799999237061</ele>
        <time>2015-12-30T13:42:26.000Z</time>
      </trkpt>
      <trkpt lat="47.46106" lon="0.87938">
        <ele>60.799999237061</ele>
        <time>2015-12-30T13:42:28.000Z</time>
      </trkpt>
      <trkpt lat="47.46128" lon="0.87965">
        <ele>60.599998474121</ele>
        <time>2015-12-30T13:42:33.000Z</time>
      </trkpt>
      <trkpt lat="47.46136" lon="0.87986">
        <ele>60.400001525879</ele>
        <time>2015-12-30T13:42:35.000Z</time>
      </trkpt>
      <trkpt lat="47.46138" lon="0.88003">
        <ele>60.400001525879</ele>
        <time>2015-12-30T13:42:37.000Z</time>
      </trkpt>
      <trkpt lat="47.46139" lon="0.8802">
        <ele>60.200000762939</ele>
        <time>2015-12-30T13:42:39.000Z</time>
      </trkpt>
      <trkpt lat="47.46137" lon="0.88035">
        <ele>60</ele>
        <time>2015-12-30T13:42:41.000Z</time>
      </trkpt>
      <trkpt lat="47.46131" lon="0.88065">
        <ele>59.400001525879</ele>
        <time>2015-12-30T13:42:43.000Z</time>
      </trkpt>
      <trkpt lat="47.4613" lon="0.88079">
        <ele>59.200000762939</ele>
        <time>2015-12-30T13:42:45.000Z</time>
      </trkpt>
      <trkpt lat="47.4613" lon="0.88079">
        <ele>59.200000762939</ele>
        <time>2015-12-30T13:42:47.000Z</time>
      </trkpt>
      <trkpt lat="47.4613" lon="0.88079">
        <ele>59.200000762939</ele>
        <time>2015-12-30T13:42:51.000Z</time>
      </trkpt>
      <trkpt lat="47.4613" lon="0.88079">
        <ele>59.200000762939</ele>
        <time>2015-12-30T13:42:55.000Z</time>
      </trkpt>
      <trkpt lat="47.4613" lon="0.88079">
        <ele>59.200000762939</ele>
        <time>2015-12-30T13:42:57.000Z</time>
      </trkpt>
      <trkpt lat="47.46091" lon="0.88191">
        <ele>60.599998474121</ele>
        <time>2015-12-30T13:43:01.000Z</time>
      </trkpt>
      <trkpt lat="47.46082" lon="0.88204">
        <ele>60.799999237061</ele>
        <time>2015-12-30T13:43:03.000Z</time>
      </trkpt>
      <trkpt lat="47.46076" lon="0.88219">
        <ele>61</ele>
        <time>2015-12-30T13:43:05.000Z</time>
      </trkpt>
      <trkpt lat="47.46073" lon="0.88238">
        <ele>61.200000762939</ele>
        <time>2015-12-30T13:43:07.000Z</time>
      </trkpt>
      <trkpt lat="47.46073" lon="0.88238">
        <ele>61.200000762939</ele>
        <time>2015-12-30T13:43:09.000Z</time>
      </trkpt>
      <trkpt lat="47.46073" lon="0.88282">
        <ele>61.799999237061</ele>
        <time>2015-12-30T13:43:12.000Z</time>
      </trkpt>
      <trkpt lat="47.46076" lon="0.88304">
        <ele>61.799999237061</ele>
        <time>2015-12-30T13:43:14.000Z</time>
      </trkpt>
      <trkpt lat="47.46083" lon="0.88317">
        <ele>62</ele>
        <time>2015-12-30T13:43:16.000Z</time>
      </trkpt>
      <trkpt lat="47.46089" lon="0.88333">
        <ele>62</ele>
        <time>2015-12-30T13:43:18.000Z</time>
      </trkpt>
      <trkpt lat="47.46094" lon="0.88351">
        <ele>62.200000762939</ele>
        <time>2015-12-30T13:43:20.000Z</time>
      </trkpt>
      <trkpt lat="47.46102" lon="0.88364">
        <ele>62.200000762939</ele>
        <time>2015-12-30T13:43:22.000Z</time>
      </trkpt>
      <trkpt lat="47.46109" lon="0.88378">
        <ele>62.400001525879</ele>
        <time>2015-12-30T13:43:24.000Z</time>
      </trkpt>
      <trkpt lat="47.46117" lon="0.88391">
        <ele>62.400001525879</ele>
        <time>2015-12-30T13:43:26.000Z</time>
      </trkpt>
      <trkpt lat="47.46125" lon="0.88401">
        <ele>62.200000762939</ele>
        <time>2015-12-30T13:43:28.000Z</time>
      </trkpt>
      <trkpt lat="47.46133" lon="0.88414">
        <ele>62</ele>
        <time>2015-12-30T13:43:30.000Z</time>
      </trkpt>
      <trkpt lat="47.46133" lon="0.88414">
        <ele>62</ele>
        <time>2015-12-30T13:43:32.000Z</time>
      </trkpt>
      <trkpt lat="47.46133" lon="0.88414">
        <ele>62</ele>
        <time>2015-12-30T13:43:34.000Z</time>
      </trkpt>
      <trkpt lat="47.46133" lon="0.88414">
        <ele>62</ele>
        <time>2015-12-30T13:43:36.000Z</time>
      </trkpt>
      <trkpt lat="47.46133" lon="0.88414">
        <ele>62</ele>
        <time>2015-12-30T13:43:38.000Z</time>
      </trkpt>
      <trkpt lat="47.46133" lon="0.88414">
        <ele>62</ele>
        <time>2015-12-30T13:43:40.000Z</time>
      </trkpt>
      <trkpt lat="47.46133" lon="0.88414">
        <ele>62</ele>
        <time>2015-12-30T13:43:42.000Z</time>
      </trkpt>
      <trkpt lat="47.46133" lon="0.88414">
        <ele>62</ele>
        <time>2015-12-30T13:43:44.000Z</time>
      </trkpt>
      <trkpt lat="47.46123" lon="0.88531">
        <ele>63.400001525879</ele>
        <time>2015-12-30T13:43:50.000Z</time>
      </trkpt>
      <trkpt lat="47.46115" lon="0.88554">
        <ele>64.400001525879</ele>
        <time>2015-12-30T13:43:54.000Z</time>
      </trkpt>
      <trkpt lat="47.46111" lon="0.88565">
        <ele>65.599998474121</ele>
        <time>2015-12-30T13:43:56.000Z</time>
      </trkpt>
      <trkpt lat="47.46111" lon="0.88565">
        <ele>65.599998474121</ele>
        <time>2015-12-30T13:43:58.000Z</time>
      </trkpt>
      <trkpt lat="47.46111" lon="0.88565">
        <ele>65.599998474121</ele>
        <time>2015-12-30T13:44:00.000Z</time>
      </trkpt>
      <trkpt lat="47.46111" lon="0.88565">
        <ele>65.599998474121</ele>
        <time>2015-12-30T13:44:02.000Z</time>
      </trkpt>
      <trkpt lat="47.46111" lon="0.88565">
        <ele>65.599998474121</ele>
        <time>2015-12-30T13:44:04.000Z</time>
      </trkpt>
      <trkpt lat="47.46111" lon="0.88565">
        <ele>65.599998474121</ele>
        <time>2015-12-30T13:44:06.000Z</time>
      </trkpt>
      <trkpt lat="47.46111" lon="0.88565">
        <ele>65.599998474121</ele>
        <time>2015-12-30T13:44:08.000Z</time>
      </trkpt>
      <trkpt lat="47.46061" lon="0.8859">
        <ele>69.199996948242</ele>
        <time>2015-12-30T13:44:12.000Z</time>
      </trkpt>
      <trkpt lat="47.46051" lon="0.88585">
        <ele>68.800003051758</ele>
        <time>2015-12-30T13:44:14.000Z</time>
      </trkpt>
      <trkpt lat="47.46042" lon="0.8858">
        <ele>68.199996948242</ele>
        <time>2015-12-30T13:44:16.000Z</time>
      </trkpt>
      <trkpt lat="47.46031" lon="0.88576">
        <ele>67.800003051758</ele>
        <time>2015-12-30T13:44:18.000Z</time>
      </trkpt>
      <trkpt lat="47.46021" lon="0.88567">
        <ele>67</ele>
        <time>2015-12-30T13:44:20.000Z</time>
      </trkpt>
      <trkpt lat="47.4601" lon="0.88561">
        <ele>66.400001525879</ele>
        <time>2015-12-30T13:44:22.000Z</time>
      </trkpt>
      <trkpt lat="47.46" lon="0.88556">
        <ele>66</ele>
        <time>2015-12-30T13:44:24.000Z</time>
      </trkpt>
      <trkpt lat="47.45991" lon="0.88551">
        <ele>65.800003051758</ele>
        <time>2015-12-30T13:44:26.000Z</time>
      </trkpt>
      <trkpt lat="47.45991" lon="0.88551">
        <ele>65.800003051758</ele>
        <time>2015-12-30T13:44:28.000Z</time>
      </trkpt>
      <trkpt lat="47.45991" lon="0.88551">
        <ele>65.800003051758</ele>
        <time>2015-12-30T13:44:30.000Z</time>
      </trkpt>
      <trkpt lat="47.45991" lon="0.88551">
        <ele>65.800003051758</ele>
        <time>2015-12-30T13:44:32.000Z</time>
      </trkpt>
      <trkpt lat="47.45991" lon="0.88551">
        <ele>65.800003051758</ele>
        <time>2015-12-30T13:44:34.000Z</time>
      </trkpt>
      <trkpt lat="47.45991" lon="0.88551">
        <ele>65.800003051758</ele>
        <time>2015-12-30T13:44:36.000Z</time>
      </trkpt>
      <trkpt lat="47.45991" lon="0.88551">
        <ele>65.800003051758</ele>
        <time>2015-12-30T13:44:38.000Z</time>
      </trkpt>
      <trkpt lat="47.45991" lon="0.88551">
        <ele>65.800003051758</ele>
        <time>2015-12-30T13:44:40.000Z</time>
      </trkpt>
      <trkpt lat="47.45946" lon="0.88532">
        <ele>64.800003051758</ele>
        <time>2015-12-30T13:44:46.000Z</time>
      </trkpt>
      <trkpt lat="47.45918" lon="0.88521">
        <ele>64.199996948242</ele>
        <time>2015-12-30T13:44:48.000Z</time>
      </trkpt>
      <trkpt lat="47.45899" lon="0.88514">
        <ele>63.799999237061</ele>
        <time>2015-12-30T13:44:50.000Z</time>
      </trkpt>
      <trkpt lat="47.45884" lon="0.88509">
        <ele>63.400001525879</ele>
        <time>2015-12-30T13:44:52.000Z</time>
      </trkpt>
      <trkpt lat="47.4587" lon="0.88504">
        <ele>63.200000762939</ele>
        <time>2015-12-30T13:44:54.000Z</time>
      </trkpt>
      <trkpt lat="47.45847" lon="0.88499">
        <ele>63</ele>
        <time>2015-12-30T13:44:56.000Z</time>
      </trkpt>
      <trkpt lat="47.45835" lon="0.88492">
        <ele>62.599998474121</ele>
        <time>2015-12-30T13:44:58.000Z</time>
      </trkpt>
      <trkpt lat="47.45825" lon="0.88484">
        <ele>62.400001525879</ele>
        <time>2015-12-30T13:45:00.000Z</time>
      </trkpt>
      <trkpt lat="47.45825" lon="0.88484">
        <ele>62.400001525879</ele>
        <time>2015-12-30T13:45:02.000Z</time>
      </trkpt>
      <trkpt lat="47.45825" lon="0.88484">
        <ele>62.400001525879</ele>
        <time>2015-12-30T13:45:04.000Z</time>
      </trkpt>
      <trkpt lat="47.45825" lon="0.88484">
        <ele>62.400001525879</ele>
        <time>2015-12-30T13:45:06.000Z</time>
      </trkpt>
      <trkpt lat="47.45825" lon="0.88484">
        <ele>62.400001525879</ele>
        <time>2015-12-30T13:45:14.000Z</time>
      </trkpt>
      <trkpt lat="47.45825" lon="0.88484">
        <ele>62.400001525879</ele>
        <time>2015-12-30T13:45:20.000Z</time>
      </trkpt>
      <trkpt lat="47.45825" lon="0.88484">
        <ele>62.400001525879</ele>
        <time>2015-12-30T13:45:22.000Z</time>
      </trkpt>
      <trkpt lat="47.45825" lon="0.88484">
        <ele>62.400001525879</ele>
        <time>2015-12-30T13:45:24.000Z</time>
      </trkpt>
      <trkpt lat="47.45825" lon="0.88484">
        <ele>62.400001525879</ele>
        <time>2015-12-30T13:45:26.000Z</time>
      </trkpt>
      <trkpt lat="47.45701" lon="0.88428">
        <ele>63.599998474121</ele>
        <time>2015-12-30T13:45:30.000Z</time>
      </trkpt>
      <trkpt lat="47.45701" lon="0.88428">
        <ele>63.599998474121</ele>
        <time>2015-12-30T13:45:32.000Z</time>
      </trkpt>
      <trkpt lat="47.45701" lon="0.88428">
        <ele>63.599998474121</ele>
        <time>2015-12-30T13:45:34.000Z</time>
      </trkpt>
      <trkpt lat="47.45701" lon="0.88428">
        <ele>63.599998474121</ele>
        <time>2015-12-30T13:45:36.000Z</time>
      </trkpt>
      <trkpt lat="47.45701" lon="0.88428">
        <ele>63.599998474121</ele>
        <time>2015-12-30T13:45:38.000Z</time>
      </trkpt>
      <trkpt lat="47.45651" lon="0.88412">
        <ele>64.199996948242</ele>
        <time>2015-12-30T13:45:42.000Z</time>
      </trkpt>
      <trkpt lat="47.45636" lon="0.88405">
        <ele>63.599998474121</ele>
        <time>2015-12-30T13:45:46.000Z</time>
      </trkpt>
      <trkpt lat="47.45625" lon="0.88399">
        <ele>63.200000762939</ele>
        <time>2015-12-30T13:45:48.000Z</time>
      </trkpt>
      <trkpt lat="47.45615" lon="0.88393">
        <ele>62.799999237061</ele>
        <time>2015-12-30T13:45:50.000Z</time>
      </trkpt>
      <trkpt lat="47.45599" lon="0.88383">
        <ele>62.200000762939</ele>
        <time>2015-12-30T13:45:54.000Z</time>
      </trkpt>
      <trkpt lat="47.45588" lon="0.88376">
        <ele>61.799999237061</ele>
        <time>2015-12-30T13:45:56.000Z</time>
      </trkpt>
      <trkpt lat="47.45578" lon="0.88372">
        <ele>61.599998474121</ele>
        <time>2015-12-30T13:45:58.000Z</time>
      </trkpt>
      <trkpt lat="47.45568" lon="0.88366">
        <ele>61.799999237061</ele>
        <time>2015-12-30T13:46:00.000Z</time>
      </trkpt>
      <trkpt lat="47.45558" lon="0.88361">
        <ele>62</ele>
        <time>2015-12-30T13:46:02.000Z</time>
      </trkpt>
      <trkpt lat="47.45549" lon="0.88356">
        <ele>62</ele>
        <time>2015-12-30T13:46:04.000Z</time>
      </trkpt>
      <trkpt lat="47.45539" lon="0.88351">
        <ele>62.200000762939</ele>
        <time>2015-12-30T13:46:06.000Z</time>
      </trkpt>
      <trkpt lat="47.45531" lon="0.88345">
        <ele>62.200000762939</ele>
        <time>2015-12-30T13:46:08.000Z</time>
      </trkpt>
      <trkpt lat="47.45521" lon="0.88339">
        <ele>62.400001525879</ele>
        <time>2015-12-30T13:46:10.000Z</time>
      </trkpt>
      <trkpt lat="47.45512" lon="0.88333">
        <ele>62.599998474121</ele>
        <time>2015-12-30T13:46:12.000Z</time>
      </trkpt>
      <trkpt lat="47.45502" lon="0.88328">
        <ele>62.599998474121</ele>
        <time>2015-12-30T13:46:14.000Z</time>
      </trkpt>
      <trkpt lat="47.45493" lon="0.8832">
        <ele>62.599998474121</ele>
        <time>2015-12-30T13:46:16.000Z</time>
      </trkpt>
      <trkpt lat="47.45493" lon="0.8832">
        <ele>62.599998474121</ele>
        <time>2015-12-30T13:46:18.000Z</time>
      </trkpt>
      <trkpt lat="47.45493" lon="0.8832">
        <ele>62.599998474121</ele>
        <time>2015-12-30T13:46:20.000Z</time>
      </trkpt>
      <trkpt lat="47.45493" lon="0.8832">
        <ele>62.599998474121</ele>
        <time>2015-12-30T13:46:22.000Z</time>
      </trkpt>
      <trkpt lat="47.45438" lon="0.88285">
        <ele>62</ele>
        <time>2015-12-30T13:46:28.000Z</time>
      </trkpt>
      <trkpt lat="47.45428" lon="0.88278">
        <ele>61.799999237061</ele>
        <time>2015-12-30T13:46:30.000Z</time>
      </trkpt>
      <trkpt lat="47.45419" lon="0.88271">
        <ele>61.599998474121</ele>
        <time>2015-12-30T13:46:32.000Z</time>
      </trkpt>
      <trkpt lat="47.45409" lon="0.88261">
        <ele>61.599998474121</ele>
        <time>2015-12-30T13:46:34.000Z</time>
      </trkpt>
      <trkpt lat="47.45401" lon="0.88247">
        <ele>61.200000762939</ele>
        <time>2015-12-30T13:46:36.000Z</time>
      </trkpt>
      <trkpt lat="47.45391" lon="0.88237">
        <ele>61</ele>
        <time>2015-12-30T13:46:38.000Z</time>
      </trkpt>
      <trkpt lat="47.45383" lon="0.88226">
        <ele>60.799999237061</ele>
        <time>2015-12-30T13:46:40.000Z</time>
      </trkpt>
      <trkpt lat="47.45375" lon="0.88213">
        <ele>60.799999237061</ele>
        <time>2015-12-30T13:46:42.000Z</time>
      </trkpt>
      <trkpt lat="47.45366" lon="0.88202">
        <ele>60.599998474121</ele>
        <time>2015-12-30T13:46:44.000Z</time>
      </trkpt>
      <trkpt lat="47.45358" lon="0.88191">
        <ele>60.599998474121</ele>
        <time>2015-12-30T13:46:46.000Z</time>
      </trkpt>
      <trkpt lat="47.45349" lon="0.88182">
        <ele>60.599998474121</ele>
        <time>2015-12-30T13:46:48.000Z</time>
      </trkpt>
      <trkpt lat="47.45349" lon="0.88182">
        <ele>60.599998474121</ele>
        <time>2015-12-30T13:46:50.000Z</time>
      </trkpt>
      <trkpt lat="47.45349" lon="0.88182">
        <ele>60.599998474121</ele>
        <time>2015-12-30T13:46:52.000Z</time>
      </trkpt>
      <trkpt lat="47.45318" lon="0.88158">
        <ele>60.200000762939</ele>
        <time>2015-12-30T13:46:54.000Z</time>
      </trkpt>
      <trkpt lat="47.45307" lon="0.88163">
        <ele>60.200000762939</ele>
        <time>2015-12-30T13:46:56.000Z</time>
      </trkpt>
      <trkpt lat="47.45307" lon="0.88163">
        <ele>60.200000762939</ele>
        <time>2015-12-30T13:46:58.000Z</time>
      </trkpt>
      <trkpt lat="47.45307" lon="0.88163">
        <ele>60.200000762939</ele>
        <time>2015-12-30T13:47:00.000Z</time>
      </trkpt>
      <trkpt lat="47.45307" lon="0.88163">
        <ele>60.200000762939</ele>
        <time>2015-12-30T13:47:02.000Z</time>
      </trkpt>
      <trkpt lat="47.45307" lon="0.88163">
        <ele>60.200000762939</ele>
        <time>2015-12-30T13:47:04.000Z</time>
      </trkpt>
      <trkpt lat="47.45307" lon="0.88163">
        <ele>60.200000762939</ele>
        <time>2015-12-30T13:47:06.000Z</time>
      </trkpt>
      <trkpt lat="47.45307" lon="0.88163">
        <ele>60.200000762939</ele>
        <time>2015-12-30T13:47:08.000Z</time>
      </trkpt>
      <trkpt lat="47.45307" lon="0.88163">
        <ele>60.200000762939</ele>
        <time>2015-12-30T13:47:10.000Z</time>
      </trkpt>
      <trkpt lat="47.45307" lon="0.88163">
        <ele>60.200000762939</ele>
        <time>2015-12-30T13:47:12.000Z</time>
      </trkpt>
      <trkpt lat="47.45307" lon="0.88163">
        <ele>60.200000762939</ele>
        <time>2015-12-30T13:47:14.000Z</time>
      </trkpt>
      <trkpt lat="47.45307" lon="0.88163">
        <ele>60.200000762939</ele>
        <time>2015-12-30T13:47:16.000Z</time>
      </trkpt>
      <trkpt lat="47.45307" lon="0.88163">
        <ele>60.200000762939</ele>
        <time>2015-12-30T13:47:18.000Z</time>
      </trkpt>
      <trkpt lat="47.45279" lon="0.88224">
        <ele>60.799999237061</ele>
        <time>2015-12-30T13:47:22.000Z</time>
      </trkpt>
      <trkpt lat="47.45263" lon="0.88258">
        <ele>61.200000762939</ele>
        <time>2015-12-30T13:47:24.000Z</time>
      </trkpt>
      <trkpt lat="47.45263" lon="0.88258">
        <ele>61.200000762939</ele>
        <time>2015-12-30T13:47:26.000Z</time>
      </trkpt>
      <trkpt lat="47.45247" lon="0.88291">
        <ele>62.400001525879</ele>
        <time>2015-12-30T13:47:30.000Z</time>
      </trkpt>
      <trkpt lat="47.45236" lon="0.88311">
        <ele>63.200000762939</ele>
        <time>2015-12-30T13:47:32.000Z</time>
      </trkpt>
      <trkpt lat="47.45229" lon="0.88326">
        <ele>63.799999237061</ele>
        <time>2015-12-30T13:47:34.000Z</time>
      </trkpt>
      <trkpt lat="47.45222" lon="0.88337">
        <ele>64.199996948242</ele>
        <time>2015-12-30T13:47:36.000Z</time>
      </trkpt>
      <trkpt lat="47.45216" lon="0.88347">
        <ele>64.400001525879</ele>
        <time>2015-12-30T13:47:38.000Z</time>
      </trkpt>
      <trkpt lat="47.45205" lon="0.88367">
        <ele>65.199996948242</ele>
        <time>2015-12-30T13:47:40.000Z</time>
      </trkpt>
      <trkpt lat="47.45193" lon="0.88386">
        <ele>65.800003051758</ele>
        <time>2015-12-30T13:47:44.000Z</time>
      </trkpt>
      <trkpt lat="47.45188" lon="0.88397">
        <ele>66.199996948242</ele>
        <time>2015-12-30T13:47:46.000Z</time>
      </trkpt>
      <trkpt lat="47.45182" lon="0.88409">
        <ele>66.599998474121</ele>
        <time>2015-12-30T13:47:48.000Z</time>
      </trkpt>
      <trkpt lat="47.45176" lon="0.8842">
        <ele>66.800003051758</ele>
        <time>2015-12-30T13:47:50.000Z</time>
      </trkpt>
      <trkpt lat="47.4517" lon="0.88441">
        <ele>67.199996948242</ele>
        <time>2015-12-30T13:47:54.000Z</time>
      </trkpt>
      <trkpt lat="47.4517" lon="0.88441">
        <ele>67.199996948242</ele>
        <time>2015-12-30T13:47:56.000Z</time>
      </trkpt>
      <trkpt lat="47.4517" lon="0.88441">
        <ele>67.199996948242</ele>
        <time>2015-12-30T13:47:58.000Z</time>
      </trkpt>
      <trkpt lat="47.4517" lon="0.88441">
        <ele>67.199996948242</ele>
        <time>2015-12-30T13:48:00.000Z</time>
      </trkpt>
      <trkpt lat="47.4517" lon="0.88441">
        <ele>67.199996948242</ele>
        <time>2015-12-30T13:48:02.000Z</time>
      </trkpt>
      <trkpt lat="47.4517" lon="0.88441">
        <ele>67.199996948242</ele>
        <time>2015-12-30T13:48:08.000Z</time>
      </trkpt>
      <trkpt lat="47.4517" lon="0.88441">
        <ele>67.199996948242</ele>
        <time>2015-12-30T13:48:10.000Z</time>
      </trkpt>
      <trkpt lat="47.4517" lon="0.88441">
        <ele>67.199996948242</ele>
        <time>2015-12-30T13:48:12.000Z</time>
      </trkpt>
      <trkpt lat="47.4517" lon="0.88441">
        <ele>67.199996948242</ele>
        <time>2015-12-30T13:48:14.000Z</time>
      </trkpt>
      <trkpt lat="47.4517" lon="0.88441">
        <ele>67.199996948242</ele>
        <time>2015-12-30T13:48:16.000Z</time>
      </trkpt>
      <trkpt lat="47.4517" lon="0.88441">
        <ele>67.199996948242</ele>
        <time>2015-12-30T13:48:20.000Z</time>
      </trkpt>
      <trkpt lat="47.45122" lon="0.88584">
        <ele>70.400001525879</ele>
        <time>2015-12-30T13:48:24.000Z</time>
      </trkpt>
      <trkpt lat="47.45124" lon="0.88608">
        <ele>70.400001525879</ele>
        <time>2015-12-30T13:48:28.000Z</time>
      </trkpt>
      <trkpt lat="47.45124" lon="0.88608">
        <ele>70.400001525879</ele>
        <time>2015-12-30T13:48:30.000Z</time>
      </trkpt>
      <trkpt lat="47.4513" lon="0.88628">
        <ele>70.199996948242</ele>
        <time>2015-12-30T13:48:32.000Z</time>
      </trkpt>
      <trkpt lat="47.4513" lon="0.88628">
        <ele>70.199996948242</ele>
        <time>2015-12-30T13:48:34.000Z</time>
      </trkpt>
      <trkpt lat="47.4513" lon="0.88628">
        <ele>70.199996948242</ele>
        <time>2015-12-30T13:48:36.000Z</time>
      </trkpt>
      <trkpt lat="47.4513" lon="0.88628">
        <ele>70.199996948242</ele>
        <time>2015-12-30T13:48:38.000Z</time>
      </trkpt>
      <trkpt lat="47.4513" lon="0.88628">
        <ele>70.199996948242</ele>
        <time>2015-12-30T13:48:41.000Z</time>
      </trkpt>
      <trkpt lat="47.4513" lon="0.88628">
        <ele>70.199996948242</ele>
        <time>2015-12-30T13:48:42.000Z</time>
      </trkpt>
      <trkpt lat="47.4513" lon="0.88628">
        <ele>70.199996948242</ele>
        <time>2015-12-30T13:48:44.000Z</time>
      </trkpt>
      <trkpt lat="47.45152" lon="0.88717">
        <ele>71.400001525879</ele>
        <time>2015-12-30T13:48:50.000Z</time>
      </trkpt>
      <trkpt lat="47.45156" lon="0.88736">
        <ele>72.199996948242</ele>
        <time>2015-12-30T13:48:54.000Z</time>
      </trkpt>
      <trkpt lat="47.45156" lon="0.88736">
        <ele>72.199996948242</ele>
        <time>2015-12-30T13:48:56.000Z</time>
      </trkpt>
      <trkpt lat="47.45156" lon="0.88736">
        <ele>72.199996948242</ele>
        <time>2015-12-30T13:48:58.000Z</time>
      </trkpt>
      <trkpt lat="47.45156" lon="0.88736">
        <ele>72.199996948242</ele>
        <time>2015-12-30T13:49:00.000Z</time>
      </trkpt>
      <trkpt lat="47.45156" lon="0.88736">
        <ele>72.199996948242</ele>
        <time>2015-12-30T13:49:04.000Z</time>
      </trkpt>
      <trkpt lat="47.45156" lon="0.88736">
        <ele>72.199996948242</ele>
        <time>2015-12-30T13:49:06.000Z</time>
      </trkpt>
      <trkpt lat="47.45156" lon="0.88736">
        <ele>72.199996948242</ele>
        <time>2015-12-30T13:49:08.000Z</time>
      </trkpt>
      <trkpt lat="47.45156" lon="0.88736">
        <ele>72.199996948242</ele>
        <time>2015-12-30T13:49:10.000Z</time>
      </trkpt>
      <trkpt lat="47.45156" lon="0.88736">
        <ele>72.199996948242</ele>
        <time>2015-12-30T13:49:12.000Z</time>
      </trkpt>
      <trkpt lat="47.45156" lon="0.88736">
        <ele>72.199996948242</ele>
        <time>2015-12-30T13:49:14.000Z</time>
      </trkpt>
      <trkpt lat="47.45156" lon="0.88736">
        <ele>72.199996948242</ele>
        <time>2015-12-30T13:49:16.000Z</time>
      </trkpt>
      <trkpt lat="47.45156" lon="0.88736">
        <ele>72.199996948242</ele>
        <time>2015-12-30T13:49:18.000Z</time>
      </trkpt>
      <trkpt lat="47.45156" lon="0.88736">
        <ele>72.199996948242</ele>
        <time>2015-12-30T13:49:20.000Z</time>
      </trkpt>
      <trkpt lat="47.45156" lon="0.88736">
        <ele>72.199996948242</ele>
        <time>2015-12-30T13:49:22.000Z</time>
      </trkpt>
      <trkpt lat="47.45156" lon="0.88736">
        <ele>72.199996948242</ele>
        <time>2015-12-30T13:49:24.000Z</time>
      </trkpt>
      <trkpt lat="47.45156" lon="0.88736">
        <ele>72.199996948242</ele>
        <time>2015-12-30T13:49:26.000Z</time>
      </trkpt>
      <trkpt lat="47.45156" lon="0.88736">
        <ele>72.199996948242</ele>
        <time>2015-12-30T13:49:28.000Z</time>
      </trkpt>
      <trkpt lat="47.45156" lon="0.88736">
        <ele>72.199996948242</ele>
        <time>2015-12-30T13:49:30.000Z</time>
      </trkpt>
      <trkpt lat="47.45156" lon="0.88736">
        <ele>72.199996948242</ele>
        <time>2015-12-30T13:49:32.000Z</time>
      </trkpt>
      <trkpt lat="47.4519" lon="0.88807">
        <ele>78</ele>
        <time>2015-12-30T13:49:36.000Z</time>
      </trkpt>
      <trkpt lat="47.45208" lon="0.88844">
        <ele>81.400001525879</ele>
        <time>2015-12-30T13:49:38.000Z</time>
      </trkpt>
      <trkpt lat="47.45219" lon="0.88864">
        <ele>83</ele>
        <time>2015-12-30T13:49:40.000Z</time>
      </trkpt>
      <trkpt lat="47.45219" lon="0.88864">
        <ele>83</ele>
        <time>2015-12-30T13:49:42.000Z</time>
      </trkpt>
      <trkpt lat="47.45231" lon="0.88882">
        <ele>84.599998474121</ele>
        <time>2015-12-30T13:49:46.000Z</time>
      </trkpt>
      <trkpt lat="47.4524" lon="0.88893">
        <ele>85.800003051758</ele>
        <time>2015-12-30T13:49:48.000Z</time>
      </trkpt>
      <trkpt lat="47.45245" lon="0.88902">
        <ele>86.800003051758</ele>
        <time>2015-12-30T13:49:50.000Z</time>
      </trkpt>
      <trkpt lat="47.4525" lon="0.88908">
        <ele>87.599998474121</ele>
        <time>2015-12-30T13:49:52.000Z</time>
      </trkpt>
      <trkpt lat="47.45254" lon="0.88914">
        <ele>88</ele>
        <time>2015-12-30T13:49:54.000Z</time>
      </trkpt>
      <trkpt lat="47.45263" lon="0.88924">
        <ele>89</ele>
        <time>2015-12-30T13:49:56.000Z</time>
      </trkpt>
      <trkpt lat="47.45273" lon="0.88932">
        <ele>90</ele>
        <time>2015-12-30T13:50:00.000Z</time>
      </trkpt>
      <trkpt lat="47.4528" lon="0.88941">
        <ele>90.800003051758</ele>
        <time>2015-12-30T13:50:04.000Z</time>
      </trkpt>
      <trkpt lat="47.4528" lon="0.88941">
        <ele>90.800003051758</ele>
        <time>2015-12-30T13:50:06.000Z</time>
      </trkpt>
      <trkpt lat="47.4528" lon="0.88941">
        <ele>90.800003051758</ele>
        <time>2015-12-30T13:50:08.000Z</time>
      </trkpt>
      <trkpt lat="47.4528" lon="0.88941">
        <ele>90.800003051758</ele>
        <time>2015-12-30T13:50:10.000Z</time>
      </trkpt>
      <trkpt lat="47.4528" lon="0.88941">
        <ele>90.800003051758</ele>
        <time>2015-12-30T13:50:12.000Z</time>
      </trkpt>
      <trkpt lat="47.4528" lon="0.88941">
        <ele>90.800003051758</ele>
        <time>2015-12-30T13:50:14.000Z</time>
      </trkpt>
      <trkpt lat="47.4528" lon="0.88941">
        <ele>90.800003051758</ele>
        <time>2015-12-30T13:50:16.000Z</time>
      </trkpt>
      <trkpt lat="47.4528" lon="0.88941">
        <ele>90.800003051758</ele>
        <time>2015-12-30T13:50:18.000Z</time>
      </trkpt>
      <trkpt lat="47.4528" lon="0.88941">
        <ele>90.800003051758</ele>
        <time>2015-12-30T13:50:20.000Z</time>
      </trkpt>
      <trkpt lat="47.45312" lon="0.88977">
        <ele>94.599998474121</ele>
        <time>2015-12-30T13:50:22.000Z</time>
      </trkpt>
      <trkpt lat="47.4532" lon="0.88989">
        <ele>95.800003051758</ele>
        <time>2015-12-30T13:50:26.000Z</time>
      </trkpt>
      <trkpt lat="47.4532" lon="0.88989">
        <ele>95.800003051758</ele>
        <time>2015-12-30T13:50:28.000Z</time>
      </trkpt>
      <trkpt lat="47.4532" lon="0.88989">
        <ele>95.800003051758</ele>
        <time>2015-12-30T13:50:30.000Z</time>
      </trkpt>
      <trkpt lat="47.4532" lon="0.88989">
        <ele>95.800003051758</ele>
        <time>2015-12-30T13:50:32.000Z</time>
      </trkpt>
      <trkpt lat="47.4532" lon="0.88989">
        <ele>95.800003051758</ele>
        <time>2015-12-30T13:50:34.000Z</time>
      </trkpt>
      <trkpt lat="47.4532" lon="0.88989">
        <ele>95.800003051758</ele>
        <time>2015-12-30T13:50:36.000Z</time>
      </trkpt>
      <trkpt lat="47.45348" lon="0.89015">
        <ele>98.599998474121</ele>
        <time>2015-12-30T13:50:40.000Z</time>
      </trkpt>
      <trkpt lat="47.45356" lon="0.89022">
        <ele>99.199996948242</ele>
        <time>2015-12-30T13:50:44.000Z</time>
      </trkpt>
      <trkpt lat="47.45365" lon="0.89035">
        <ele>100</ele>
        <time>2015-12-30T13:50:50.000Z</time>
      </trkpt>
      <trkpt lat="47.45365" lon="0.89035">
        <ele>100</ele>
        <time>2015-12-30T13:50:52.000Z</time>
      </trkpt>
      <trkpt lat="47.45365" lon="0.89035">
        <ele>100</ele>
        <time>2015-12-30T13:50:54.000Z</time>
      </trkpt>
      <trkpt lat="47.45382" lon="0.89052">
        <ele>101.40000152588</ele>
        <time>2015-12-30T13:51:00.000Z</time>
      </trkpt>
      <trkpt lat="47.45382" lon="0.89052">
        <ele>101.40000152588</ele>
        <time>2015-12-30T13:51:04.000Z</time>
      </trkpt>
      <trkpt lat="47.45382" lon="0.89052">
        <ele>101.40000152588</ele>
        <time>2015-12-30T13:51:06.000Z</time>
      </trkpt>
      <trkpt lat="47.45382" lon="0.89052">
        <ele>101.40000152588</ele>
        <time>2015-12-30T13:51:08.000Z</time>
      </trkpt>
      <trkpt lat="47.45401" lon="0.89068">
        <ele>102.40000152588</ele>
        <time>2015-12-30T13:51:10.000Z</time>
      </trkpt>
      <trkpt lat="47.4541" lon="0.89075">
        <ele>102.80000305176</ele>
        <time>2015-12-30T13:51:14.000Z</time>
      </trkpt>
      <trkpt lat="47.4541" lon="0.89075">
        <ele>102.80000305176</ele>
        <time>2015-12-30T13:51:16.000Z</time>
      </trkpt>
      <trkpt lat="47.45414" lon="0.89081">
        <ele>103.19999694824</ele>
        <time>2015-12-30T13:51:20.000Z</time>
      </trkpt>
      <trkpt lat="47.45418" lon="0.89086">
        <ele>103.40000152588</ele>
        <time>2015-12-30T13:51:22.000Z</time>
      </trkpt>
      <trkpt lat="47.45421" lon="0.89092">
        <ele>103.59999847412</ele>
        <time>2015-12-30T13:51:24.000Z</time>
      </trkpt>
      <trkpt lat="47.45425" lon="0.89098">
        <ele>103.80000305176</ele>
        <time>2015-12-30T13:51:26.000Z</time>
      </trkpt>
      <trkpt lat="47.45425" lon="0.89098">
        <ele>103.80000305176</ele>
        <time>2015-12-30T13:51:28.000Z</time>
      </trkpt>
      <trkpt lat="47.45431" lon="0.89113">
        <ele>104.40000152588</ele>
        <time>2015-12-30T13:51:34.000Z</time>
      </trkpt>
      <trkpt lat="47.45435" lon="0.89124">
        <ele>104.80000305176</ele>
        <time>2015-12-30T13:51:36.000Z</time>
      </trkpt>
      <trkpt lat="47.45437" lon="0.89131">
        <ele>105</ele>
        <time>2015-12-30T13:51:38.000Z</time>
      </trkpt>
      <trkpt lat="47.4544" lon="0.89138">
        <ele>105.40000152588</ele>
        <time>2015-12-30T13:51:40.000Z</time>
      </trkpt>
      <trkpt lat="47.45443" lon="0.89144">
        <ele>105.40000152588</ele>
        <time>2015-12-30T13:51:42.000Z</time>
      </trkpt>
      <trkpt lat="47.45447" lon="0.89157">
        <ele>105.59999847412</ele>
        <time>2015-12-30T13:51:44.000Z</time>
      </trkpt>
      <trkpt lat="47.45454" lon="0.8917">
        <ele>105.80000305176</ele>
        <time>2015-12-30T13:51:48.000Z</time>
      </trkpt>
      <trkpt lat="47.45454" lon="0.8917">
        <ele>105.80000305176</ele>
        <time>2015-12-30T13:51:50.000Z</time>
      </trkpt>
      <trkpt lat="47.45454" lon="0.8917">
        <ele>105.80000305176</ele>
        <time>2015-12-30T13:51:52.000Z</time>
      </trkpt>
      <trkpt lat="47.45469" lon="0.89191">
        <ele>106</ele>
        <time>2015-12-30T13:51:56.000Z</time>
      </trkpt>
      <trkpt lat="47.45475" lon="0.892">
        <ele>106</ele>
        <time>2015-12-30T13:52:00.000Z</time>
      </trkpt>
      <trkpt lat="47.45484" lon="0.8921">
        <ele>106</ele>
        <time>2015-12-30T13:52:04.000Z</time>
      </trkpt>
      <trkpt lat="47.45493" lon="0.89219">
        <ele>106</ele>
        <time>2015-12-30T13:52:08.000Z</time>
      </trkpt>
      <trkpt lat="47.45502" lon="0.89226">
        <ele>106</ele>
        <time>2015-12-30T13:52:12.000Z</time>
      </trkpt>
      <trkpt lat="47.45502" lon="0.89226">
        <ele>106</ele>
        <time>2015-12-30T13:52:14.000Z</time>
      </trkpt>
      <trkpt lat="47.45502" lon="0.89226">
        <ele>106</ele>
        <time>2015-12-30T13:52:16.000Z</time>
      </trkpt>
      <trkpt lat="47.45502" lon="0.89226">
        <ele>106</ele>
        <time>2015-12-30T13:52:18.000Z</time>
      </trkpt>
      <trkpt lat="47.45502" lon="0.89226">
        <ele>106</ele>
        <time>2015-12-30T13:52:20.000Z</time>
      </trkpt>
      <trkpt lat="47.45502" lon="0.89226">
        <ele>106</ele>
        <time>2015-12-30T13:52:22.000Z</time>
      </trkpt>
      <trkpt lat="47.4553" lon="0.89246">
        <ele>106</ele>
        <time>2015-12-30T13:52:24.000Z</time>
      </trkpt>
      <trkpt lat="47.45539" lon="0.89252">
        <ele>106</ele>
        <time>2015-12-30T13:52:28.000Z</time>
      </trkpt>
      <trkpt lat="47.45549" lon="0.8926">
        <ele>106</ele>
        <time>2015-12-30T13:52:32.000Z</time>
      </trkpt>
      <trkpt lat="47.4556" lon="0.89268">
        <ele>106</ele>
        <time>2015-12-30T13:52:36.000Z</time>
      </trkpt>
      <trkpt lat="47.4557" lon="0.89273">
        <ele>106</ele>
        <time>2015-12-30T13:52:40.000Z</time>
      </trkpt>
      <trkpt lat="47.45583" lon="0.89279">
        <ele>106</ele>
        <time>2015-12-30T13:52:44.000Z</time>
      </trkpt>
      <trkpt lat="47.45596" lon="0.89291">
        <ele>106.40000152588</ele>
        <time>2015-12-30T13:52:48.000Z</time>
      </trkpt>
      <trkpt lat="47.45609" lon="0.89301">
        <ele>107</ele>
        <time>2015-12-30T13:52:52.000Z</time>
      </trkpt>
      <trkpt lat="47.45609" lon="0.89301">
        <ele>107</ele>
        <time>2015-12-30T13:52:54.000Z</time>
      </trkpt>
      <trkpt lat="47.45621" lon="0.89312">
        <ele>107.19999694824</ele>
        <time>2015-12-30T13:52:56.000Z</time>
      </trkpt>
      <trkpt lat="47.45633" lon="0.89322">
        <ele>107.40000152588</ele>
        <time>2015-12-30T13:53:00.000Z</time>
      </trkpt>
      <trkpt lat="47.45633" lon="0.89322">
        <ele>107.40000152588</ele>
        <time>2015-12-30T13:53:04.000Z</time>
      </trkpt>
      <trkpt lat="47.45633" lon="0.89322">
        <ele>107.40000152588</ele>
        <time>2015-12-30T13:53:05.000Z</time>
      </trkpt>
      <trkpt lat="47.45633" lon="0.89322">
        <ele>107.40000152588</ele>
        <time>2015-12-30T13:53:07.000Z</time>
      </trkpt>
      <trkpt lat="47.45633" lon="0.89322">
        <ele>107.40000152588</ele>
        <time>2015-12-30T13:53:09.000Z</time>
      </trkpt>
      <trkpt lat="47.45633" lon="0.89322">
        <ele>107.40000152588</ele>
        <time>2015-12-30T13:53:11.000Z</time>
      </trkpt>
      <trkpt lat="47.45633" lon="0.89322">
        <ele>107.40000152588</ele>
        <time>2015-12-30T13:53:13.000Z</time>
      </trkpt>
      <trkpt lat="47.45633" lon="0.89322">
        <ele>107.40000152588</ele>
        <time>2015-12-30T13:53:15.000Z</time>
      </trkpt>
      <trkpt lat="47.45633" lon="0.89322">
        <ele>107.40000152588</ele>
        <time>2015-12-30T13:53:17.000Z</time>
      </trkpt>
      <trkpt lat="47.45633" lon="0.89322">
        <ele>107.40000152588</ele>
        <time>2015-12-30T13:53:25.000Z</time>
      </trkpt>
      <trkpt lat="47.45651" lon="0.89341">
        <ele>107.59999847412</ele>
        <time>2015-12-30T13:58:19.000Z</time>
      </trkpt>
      <trkpt lat="47.45663" lon="0.89355">
        <ele>107.80000305176</ele>
        <time>2015-12-30T13:58:21.000Z</time>
      </trkpt>
      <trkpt lat="47.45669" lon="0.89366">
        <ele>107.80000305176</ele>
        <time>2015-12-30T13:58:23.000Z</time>
      </trkpt>
      <trkpt lat="47.45675" lon="0.89375">
        <ele>107.80000305176</ele>
        <time>2015-12-30T13:58:25.000Z</time>
      </trkpt>
      <trkpt lat="47.45679" lon="0.89383">
        <ele>107.80000305176</ele>
        <time>2015-12-30T13:58:27.000Z</time>
      </trkpt>
      <trkpt lat="47.45686" lon="0.89396">
        <ele>108</ele>
        <time>2015-12-30T13:58:29.000Z</time>
      </trkpt>
      <trkpt lat="47.45686" lon="0.89396">
        <ele>108</ele>
        <time>2015-12-30T13:58:31.000Z</time>
      </trkpt>
      <trkpt lat="47.45692" lon="0.8941">
        <ele>108.19999694824</ele>
        <time>2015-12-30T13:58:33.000Z</time>
      </trkpt>
      <trkpt lat="47.45697" lon="0.89424">
        <ele>108.40000152588</ele>
        <time>2015-12-30T13:58:37.000Z</time>
      </trkpt>
      <trkpt lat="47.45697" lon="0.89424">
        <ele>108.40000152588</ele>
        <time>2015-12-30T13:58:39.000Z</time>
      </trkpt>
      <trkpt lat="47.45697" lon="0.89424">
        <ele>108.40000152588</ele>
        <time>2015-12-30T13:58:41.000Z</time>
      </trkpt>
      <trkpt lat="47.45704" lon="0.89446">
        <ele>108.80000305176</ele>
        <time>2015-12-30T13:58:43.000Z</time>
      </trkpt>
      <trkpt lat="47.4571" lon="0.89464">
        <ele>109.19999694824</ele>
        <time>2015-12-30T13:58:47.000Z</time>
      </trkpt>
      <trkpt lat="47.45715" lon="0.89477">
        <ele>109.19999694824</ele>
        <time>2015-12-30T13:58:51.000Z</time>
      </trkpt>
      <trkpt lat="47.45715" lon="0.89477">
        <ele>109.19999694824</ele>
        <time>2015-12-30T13:58:53.000Z</time>
      </trkpt>
      <trkpt lat="47.45715" lon="0.89477">
        <ele>109.19999694824</ele>
        <time>2015-12-30T13:58:55.000Z</time>
      </trkpt>
      <trkpt lat="47.45718" lon="0.89514">
        <ele>108</ele>
        <time>2015-12-30T13:58:59.000Z</time>
      </trkpt>
      <trkpt lat="47.45723" lon="0.8953">
        <ele>107.59999847412</ele>
        <time>2015-12-30T13:59:03.000Z</time>
      </trkpt>
      <trkpt lat="47.45723" lon="0.8953">
        <ele>107.59999847412</ele>
        <time>2015-12-30T13:59:05.000Z</time>
      </trkpt>
      <trkpt lat="47.45725" lon="0.8955">
        <ele>107.80000305176</ele>
        <time>2015-12-30T13:59:07.000Z</time>
      </trkpt>
      <trkpt lat="47.45725" lon="0.8955">
        <ele>107.80000305176</ele>
        <time>2015-12-30T13:59:09.000Z</time>
      </trkpt>
      <trkpt lat="47.45725" lon="0.8955">
        <ele>107.80000305176</ele>
        <time>2015-12-30T13:59:11.000Z</time>
      </trkpt>
      <trkpt lat="47.45724" lon="0.89601">
        <ele>107.19999694824</ele>
        <time>2015-12-30T13:59:17.000Z</time>
      </trkpt>
      <trkpt lat="47.45726" lon="0.89625">
        <ele>107</ele>
        <time>2015-12-30T13:59:23.000Z</time>
      </trkpt>
      <trkpt lat="47.45726" lon="0.89625">
        <ele>107</ele>
        <time>2015-12-30T13:59:25.000Z</time>
      </trkpt>
      <trkpt lat="47.45729" lon="0.89641">
        <ele>107</ele>
        <time>2015-12-30T13:59:27.000Z</time>
      </trkpt>
      <trkpt lat="47.45731" lon="0.8966">
        <ele>107.80000305176</ele>
        <time>2015-12-30T13:59:31.000Z</time>
      </trkpt>
      <trkpt lat="47.4573" lon="0.89683">
        <ele>108.59999847412</ele>
        <time>2015-12-30T13:59:35.000Z</time>
      </trkpt>
      <trkpt lat="47.45731" lon="0.89703">
        <ele>109.19999694824</ele>
        <time>2015-12-30T13:59:39.000Z</time>
      </trkpt>
      <trkpt lat="47.45731" lon="0.89703">
        <ele>109.19999694824</ele>
        <time>2015-12-30T13:59:41.000Z</time>
      </trkpt>
      <trkpt lat="47.45731" lon="0.89703">
        <ele>109.19999694824</ele>
        <time>2015-12-30T13:59:43.000Z</time>
      </trkpt>
      <trkpt lat="47.45731" lon="0.89703">
        <ele>109.19999694824</ele>
        <time>2015-12-30T13:59:45.000Z</time>
      </trkpt>
      <trkpt lat="47.45731" lon="0.89703">
        <ele>109.19999694824</ele>
        <time>2015-12-30T13:59:47.000Z</time>
      </trkpt>
      <trkpt lat="47.45738" lon="0.89764">
        <ele>111</ele>
        <time>2015-12-30T13:59:51.000Z</time>
      </trkpt>
      <trkpt lat="47.45742" lon="0.89783">
        <ele>111.40000152588</ele>
        <time>2015-12-30T13:59:55.000Z</time>
      </trkpt>
      <trkpt lat="47.45749" lon="0.89805">
        <ele>112</ele>
        <time>2015-12-30T13:59:59.000Z</time>
      </trkpt>
      <trkpt lat="47.45755" lon="0.89828">
        <ele>112.19999694824</ele>
        <time>2015-12-30T14:00:03.000Z</time>
      </trkpt>
      <trkpt lat="47.45758" lon="0.89839">
        <ele>112.19999694824</ele>
        <time>2015-12-30T14:00:07.000Z</time>
      </trkpt>
      <trkpt lat="47.4576" lon="0.89848">
        <ele>112.40000152588</ele>
        <time>2015-12-30T14:00:09.000Z</time>
      </trkpt>
      <trkpt lat="47.4576" lon="0.89848">
        <ele>112.40000152588</ele>
        <time>2015-12-30T14:00:11.000Z</time>
      </trkpt>
      <trkpt lat="47.4576" lon="0.89848">
        <ele>112.40000152588</ele>
        <time>2015-12-30T14:00:13.000Z</time>
      </trkpt>
      <trkpt lat="47.4576" lon="0.89848">
        <ele>112.40000152588</ele>
        <time>2015-12-30T14:00:15.000Z</time>
      </trkpt>
      <trkpt lat="47.45773" lon="0.89886">
        <ele>112.40000152588</ele>
        <time>2015-12-30T14:00:21.000Z</time>
      </trkpt>
      <trkpt lat="47.45782" lon="0.89909">
        <ele>112.19999694824</ele>
        <time>2015-12-30T14:00:23.000Z</time>
      </trkpt>
      <trkpt lat="47.45787" lon="0.89926">
        <ele>112.19999694824</ele>
        <time>2015-12-30T14:00:25.000Z</time>
      </trkpt>
      <trkpt lat="47.45792" lon="0.8994">
        <ele>112</ele>
        <time>2015-12-30T14:00:27.000Z</time>
      </trkpt>
      <trkpt lat="47.45795" lon="0.89953">
        <ele>112</ele>
        <time>2015-12-30T14:00:29.000Z</time>
      </trkpt>
      <trkpt lat="47.45802" lon="0.89973">
        <ele>111.80000305176</ele>
        <time>2015-12-30T14:00:31.000Z</time>
      </trkpt>
      <trkpt lat="47.45804" lon="0.89987">
        <ele>111.80000305176</ele>
        <time>2015-12-30T14:00:33.000Z</time>
      </trkpt>
      <trkpt lat="47.45804" lon="0.89987">
        <ele>111.80000305176</ele>
        <time>2015-12-30T14:00:35.000Z</time>
      </trkpt>
      <trkpt lat="47.45804" lon="0.89987">
        <ele>111.80000305176</ele>
        <time>2015-12-30T14:00:37.000Z</time>
      </trkpt>
      <trkpt lat="47.45804" lon="0.89987">
        <ele>111.80000305176</ele>
        <time>2015-12-30T14:00:39.000Z</time>
      </trkpt>
      <trkpt lat="47.45813" lon="0.90048">
        <ele>111.59999847412</ele>
        <time>2015-12-30T14:00:45.000Z</time>
      </trkpt>
      <trkpt lat="47.45814" lon="0.90061">
        <ele>111.19999694824</ele>
        <time>2015-12-30T14:00:47.000Z</time>
      </trkpt>
      <trkpt lat="47.45821" lon="0.90085">
        <ele>111.40000152588</ele>
        <time>2015-12-30T14:00:51.000Z</time>
      </trkpt>
      <trkpt lat="47.45824" lon="0.901">
        <ele>111.59999847412</ele>
        <time>2015-12-30T14:00:53.000Z</time>
      </trkpt>
      <trkpt lat="47.45825" lon="0.90123">
        <ele>111.80000305176</ele>
        <time>2015-12-30T14:00:57.000Z</time>
      </trkpt>
      <trkpt lat="47.45824" lon="0.90138">
        <ele>111.59999847412</ele>
        <time>2015-12-30T14:00:59.000Z</time>
      </trkpt>
      <trkpt lat="47.4583" lon="0.90151">
        <ele>111.40000152588</ele>
        <time>2015-12-30T14:01:01.000Z</time>
      </trkpt>
      <trkpt lat="47.4583" lon="0.90151">
        <ele>111.40000152588</ele>
        <time>2015-12-30T14:01:05.000Z</time>
      </trkpt>
      <trkpt lat="47.4583" lon="0.90151">
        <ele>111.40000152588</ele>
        <time>2015-12-30T14:01:07.000Z</time>
      </trkpt>
      <trkpt lat="47.4583" lon="0.90151">
        <ele>111.40000152588</ele>
        <time>2015-12-30T14:01:09.000Z</time>
      </trkpt>
      <trkpt lat="47.4583" lon="0.90151">
        <ele>111.40000152588</ele>
        <time>2015-12-30T14:01:11.000Z</time>
      </trkpt>
      <trkpt lat="47.4583" lon="0.90151">
        <ele>111.40000152588</ele>
        <time>2015-12-30T14:01:14.000Z</time>
      </trkpt>
      <trkpt lat="47.4583" lon="0.90151">
        <ele>111.40000152588</ele>
        <time>2015-12-30T14:01:16.000Z</time>
      </trkpt>
      <trkpt lat="47.45875" lon="0.90205">
        <ele>109.59999847412</ele>
        <time>2015-12-30T14:01:20.000Z</time>
      </trkpt>
      <trkpt lat="47.45878" lon="0.90184">
        <ele>110.40000152588</ele>
        <time>2015-12-30T14:01:24.000Z</time>
      </trkpt>
      <trkpt lat="47.45878" lon="0.90184">
        <ele>110.40000152588</ele>
        <time>2015-12-30T14:01:26.000Z</time>
      </trkpt>
      <trkpt lat="47.45883" lon="0.9016">
        <ele>111.59999847412</ele>
        <time>2015-12-30T14:01:28.000Z</time>
      </trkpt>
      <trkpt lat="47.45886" lon="0.90135">
        <ele>112.59999847412</ele>
        <time>2015-12-30T14:01:32.000Z</time>
      </trkpt>
      <trkpt lat="47.45886" lon="0.90135">
        <ele>112.59999847412</ele>
        <time>2015-12-30T14:01:34.000Z</time>
      </trkpt>
      <trkpt lat="47.45886" lon="0.90135">
        <ele>112.59999847412</ele>
        <time>2015-12-30T14:01:36.000Z</time>
      </trkpt>
      <trkpt lat="47.45902" lon="0.90093">
        <ele>112.19999694824</ele>
        <time>2015-12-30T14:01:40.000Z</time>
      </trkpt>
      <trkpt lat="47.45913" lon="0.90076">
        <ele>112.19999694824</ele>
        <time>2015-12-30T14:01:44.000Z</time>
      </trkpt>
      <trkpt lat="47.4592" lon="0.90066">
        <ele>112.19999694824</ele>
        <time>2015-12-30T14:01:46.000Z</time>
      </trkpt>
      <trkpt lat="47.45927" lon="0.90057">
        <ele>112.19999694824</ele>
        <time>2015-12-30T14:01:48.000Z</time>
      </trkpt>
      <trkpt lat="47.45935" lon="0.90046">
        <ele>112</ele>
        <time>2015-12-30T14:01:50.000Z</time>
      </trkpt>
      <trkpt lat="47.45943" lon="0.90036">
        <ele>111.59999847412</ele>
        <time>2015-12-30T14:01:52.000Z</time>
      </trkpt>
      <trkpt lat="47.45949" lon="0.90022">
        <ele>111.19999694824</ele>
        <time>2015-12-30T14:01:54.000Z</time>
      </trkpt>
      <trkpt lat="47.45959" lon="0.90011">
        <ele>111</ele>
        <time>2015-12-30T14:01:56.000Z</time>
      </trkpt>
      <trkpt lat="47.45966" lon="0.90001">
        <ele>111</ele>
        <time>2015-12-30T14:01:58.000Z</time>
      </trkpt>
      <trkpt lat="47.45974" lon="0.89992">
        <ele>111.19999694824</ele>
        <time>2015-12-30T14:02:00.000Z</time>
      </trkpt>
      <trkpt lat="47.4598" lon="0.8998">
        <ele>111.19999694824</ele>
        <time>2015-12-30T14:02:02.000Z</time>
      </trkpt>
      <trkpt lat="47.45991" lon="0.89966">
        <ele>111.59999847412</ele>
        <time>2015-12-30T14:02:04.000Z</time>
      </trkpt>
      <trkpt lat="47.46" lon="0.89956">
        <ele>111.19999694824</ele>
        <time>2015-12-30T14:02:06.000Z</time>
      </trkpt>
      <trkpt lat="47.46008" lon="0.89948">
        <ele>110.40000152588</ele>
        <time>2015-12-30T14:02:08.000Z</time>
      </trkpt>
      <trkpt lat="47.46015" lon="0.89934">
        <ele>109.59999847412</ele>
        <time>2015-12-30T14:02:10.000Z</time>
      </trkpt>
      <trkpt lat="47.46022" lon="0.8992">
        <ele>108.59999847412</ele>
        <time>2015-12-30T14:02:12.000Z</time>
      </trkpt>
      <trkpt lat="47.46031" lon="0.89905">
        <ele>108.40000152588</ele>
        <time>2015-12-30T14:02:14.000Z</time>
      </trkpt>
      <trkpt lat="47.46031" lon="0.89905">
        <ele>108.40000152588</ele>
        <time>2015-12-30T14:02:16.000Z</time>
      </trkpt>
      <trkpt lat="47.46031" lon="0.89905">
        <ele>108.40000152588</ele>
        <time>2015-12-30T14:02:18.000Z</time>
      </trkpt>
      <trkpt lat="47.46031" lon="0.89905">
        <ele>108.40000152588</ele>
        <time>2015-12-30T14:02:20.000Z</time>
      </trkpt>
      <trkpt lat="47.46066" lon="0.89938">
        <ele>108.80000305176</ele>
        <time>2015-12-30T14:02:24.000Z</time>
      </trkpt>
      <trkpt lat="47.46074" lon="0.89955">
        <ele>108.80000305176</ele>
        <time>2015-12-30T14:02:28.000Z</time>
      </trkpt>
      <trkpt lat="47.46074" lon="0.89955">
        <ele>108.80000305176</ele>
        <time>2015-12-30T14:02:29.000Z</time>
      </trkpt>
      <trkpt lat="47.46074" lon="0.89955">
        <ele>108.80000305176</ele>
        <time>2015-12-30T14:02:31.000Z</time>
      </trkpt>
      <trkpt lat="47.46074" lon="0.89955">
        <ele>108.80000305176</ele>
        <time>2015-12-30T14:02:33.000Z</time>
      </trkpt>
      <trkpt lat="47.46074" lon="0.89955">
        <ele>108.80000305176</ele>
        <time>2015-12-30T14:02:35.000Z</time>
      </trkpt>
      <trkpt lat="47.46074" lon="0.89955">
        <ele>108.80000305176</ele>
        <time>2015-12-30T14:02:37.000Z</time>
      </trkpt>
      <trkpt lat="47.46074" lon="0.89955">
        <ele>108.80000305176</ele>
        <time>2015-12-30T14:02:39.000Z</time>
      </trkpt>
      <trkpt lat="47.46074" lon="0.89955">
        <ele>108.80000305176</ele>
        <time>2015-12-30T14:02:41.000Z</time>
      </trkpt>
      <trkpt lat="47.46074" lon="0.89955">
        <ele>108.80000305176</ele>
        <time>2015-12-30T14:02:43.000Z</time>
      </trkpt>
      <trkpt lat="47.46092" lon="0.90005">
        <ele>109.80000305176</ele>
        <time>2015-12-30T14:02:47.000Z</time>
      </trkpt>
      <trkpt lat="47.46102" lon="0.90038">
        <ele>110.59999847412</ele>
        <time>2015-12-30T14:02:49.000Z</time>
      </trkpt>
      <trkpt lat="47.46107" lon="0.90063">
        <ele>111.19999694824</ele>
        <time>2015-12-30T14:02:51.000Z</time>
      </trkpt>
      <trkpt lat="47.46107" lon="0.90082">
        <ele>111.40000152588</ele>
        <time>2015-12-30T14:02:53.000Z</time>
      </trkpt>
      <trkpt lat="47.46105" lon="0.90097">
        <ele>112</ele>
        <time>2015-12-30T14:02:55.000Z</time>
      </trkpt>
      <trkpt lat="47.46105" lon="0.90097">
        <ele>112</ele>
        <time>2015-12-30T14:02:57.000Z</time>
      </trkpt>
      <trkpt lat="47.46105" lon="0.90097">
        <ele>112</ele>
        <time>2015-12-30T14:02:59.000Z</time>
      </trkpt>
      <trkpt lat="47.46105" lon="0.90097">
        <ele>112</ele>
        <time>2015-12-30T14:03:01.000Z</time>
      </trkpt>
      <trkpt lat="47.46105" lon="0.90097">
        <ele>112</ele>
        <time>2015-12-30T14:03:11.000Z</time>
      </trkpt>
      <trkpt lat="47.46105" lon="0.90097">
        <ele>112</ele>
        <time>2015-12-30T14:03:13.000Z</time>
      </trkpt>
      <trkpt lat="47.46105" lon="0.90097">
        <ele>112</ele>
        <time>2015-12-30T14:03:15.000Z</time>
      </trkpt>
      <trkpt lat="47.46105" lon="0.90097">
        <ele>112</ele>
        <time>2015-12-30T14:03:17.000Z</time>
      </trkpt>
      <trkpt lat="47.46105" lon="0.90097">
        <ele>112</ele>
        <time>2015-12-30T14:03:20.000Z</time>
      </trkpt>
      <trkpt lat="47.46105" lon="0.90097">
        <ele>112</ele>
        <time>2015-12-30T14:03:23.000Z</time>
      </trkpt>
      <trkpt lat="47.46105" lon="0.90097">
        <ele>112</ele>
        <time>2015-12-30T14:03:25.000Z</time>
      </trkpt>
      <trkpt lat="47.46105" lon="0.90097">
        <ele>112</ele>
        <time>2015-12-30T14:03:27.000Z</time>
      </trkpt>
      <trkpt lat="47.46093" lon="0.90234">
        <ele>114.80000305176</ele>
        <time>2015-12-30T14:03:29.000Z</time>
      </trkpt>
      <trkpt lat="47.46101" lon="0.90245">
        <ele>114.80000305176</ele>
        <time>2015-12-30T14:03:33.000Z</time>
      </trkpt>
      <trkpt lat="47.46101" lon="0.90245">
        <ele>114.80000305176</ele>
        <time>2015-12-30T14:03:35.000Z</time>
      </trkpt>
      <trkpt lat="47.46111" lon="0.90259">
        <ele>115</ele>
        <time>2015-12-30T14:03:37.000Z</time>
      </trkpt>
      <trkpt lat="47.46111" lon="0.90259">
        <ele>115</ele>
        <time>2015-12-30T14:03:39.000Z</time>
      </trkpt>
      <trkpt lat="47.46111" lon="0.90259">
        <ele>115</ele>
        <time>2015-12-30T14:03:41.000Z</time>
      </trkpt>
      <trkpt lat="47.46111" lon="0.90259">
        <ele>115</ele>
        <time>2015-12-30T14:03:43.000Z</time>
      </trkpt>
      <trkpt lat="47.46111" lon="0.90259">
        <ele>115</ele>
        <time>2015-12-30T14:03:45.000Z</time>
      </trkpt>
      <trkpt lat="47.46111" lon="0.90259">
        <ele>115</ele>
        <time>2015-12-30T14:03:47.000Z</time>
      </trkpt>
      <trkpt lat="47.46111" lon="0.90259">
        <ele>115</ele>
        <time>2015-12-30T14:03:49.000Z</time>
      </trkpt>
      <trkpt lat="47.46111" lon="0.90259">
        <ele>115</ele>
        <time>2015-12-30T14:03:51.000Z</time>
      </trkpt>
      <trkpt lat="47.46111" lon="0.90259">
        <ele>115</ele>
        <time>2015-12-30T14:03:53.000Z</time>
      </trkpt>
      <trkpt lat="47.46115" lon="0.90264">
        <ele>115</ele>
        <time>2015-12-30T14:04:24.000Z</time>
      </trkpt>
      <trkpt lat="47.46109" lon="0.90256">
        <ele>115</ele>
        <time>2015-12-30T14:04:30.000Z</time>
      </trkpt>
      <trkpt lat="47.46103" lon="0.9025">
        <ele>115</ele>
        <time>2015-12-30T14:04:33.000Z</time>
      </trkpt>
      <trkpt lat="47.46103" lon="0.9025">
        <ele>115</ele>
        <time>2015-12-30T14:04:35.000Z</time>
      </trkpt>
      <trkpt lat="47.46103" lon="0.9025">
        <ele>115</ele>
        <time>2015-12-30T14:04:37.000Z</time>
      </trkpt>
      <trkpt lat="47.4609" lon="0.90238">
        <ele>115.19999694824</ele>
        <time>2015-12-30T14:04:41.000Z</time>
      </trkpt>
      <trkpt lat="47.46081" lon="0.90229">
        <ele>115.19999694824</ele>
        <time>2015-12-30T14:04:43.000Z</time>
      </trkpt>
      <trkpt lat="47.46074" lon="0.90222">
        <ele>114.80000305176</ele>
        <time>2015-12-30T14:04:45.000Z</time>
      </trkpt>
      <trkpt lat="47.46068" lon="0.90214">
        <ele>114.59999847412</ele>
        <time>2015-12-30T14:04:48.000Z</time>
      </trkpt>
      <trkpt lat="47.46062" lon="0.90208">
        <ele>114.40000152588</ele>
        <time>2015-12-30T14:04:49.000Z</time>
      </trkpt>
      <trkpt lat="47.46051" lon="0.90188">
        <ele>114.19999694824</ele>
        <time>2015-12-30T14:04:51.000Z</time>
      </trkpt>
      <trkpt lat="47.46042" lon="0.90155">
        <ele>113.59999847412</ele>
        <time>2015-12-30T14:04:55.000Z</time>
      </trkpt>
      <trkpt lat="47.46042" lon="0.90155">
        <ele>113.59999847412</ele>
        <time>2015-12-30T14:04:59.000Z</time>
      </trkpt>
      <trkpt lat="47.46102" lon="0.90118">
        <ele>112.59999847412</ele>
        <time>2015-12-30T14:05:09.000Z</time>
      </trkpt>
      <trkpt lat="47.46102" lon="0.90118">
        <ele>112.59999847412</ele>
        <time>2015-12-30T14:05:11.000Z</time>
      </trkpt>
      <trkpt lat="47.46102" lon="0.90118">
        <ele>112.59999847412</ele>
        <time>2015-12-30T14:05:13.000Z</time>
      </trkpt>
      <trkpt lat="47.46104" lon="0.90096">
        <ele>112</ele>
        <time>2015-12-30T14:05:15.000Z</time>
      </trkpt>
      <trkpt lat="47.46105" lon="0.90075">
        <ele>111.40000152588</ele>
        <time>2015-12-30T14:05:19.000Z</time>
      </trkpt>
      <trkpt lat="47.46105" lon="0.90075">
        <ele>111.40000152588</ele>
        <time>2015-12-30T14:05:21.000Z</time>
      </trkpt>
      <trkpt lat="47.46101" lon="0.90058">
        <ele>111.40000152588</ele>
        <time>2015-12-30T14:05:23.000Z</time>
      </trkpt>
      <trkpt lat="47.46101" lon="0.90058">
        <ele>111.40000152588</ele>
        <time>2015-12-30T14:05:29.000Z</time>
      </trkpt>
      <trkpt lat="47.46101" lon="0.90058">
        <ele>111.40000152588</ele>
        <time>2015-12-30T14:05:31.000Z</time>
      </trkpt>
      <trkpt lat="47.46101" lon="0.90058">
        <ele>111.40000152588</ele>
        <time>2015-12-30T14:05:34.000Z</time>
      </trkpt>
      <trkpt lat="47.46123" lon="0.90043">
        <ele>110</ele>
        <time>2015-12-30T14:05:41.000Z</time>
      </trkpt>
      <trkpt lat="47.46136" lon="0.90056">
        <ele>110</ele>
        <time>2015-12-30T14:05:45.000Z</time>
      </trkpt>
      <trkpt lat="47.46151" lon="0.90092">
        <ele>110</ele>
        <time>2015-12-30T14:05:50.000Z</time>
      </trkpt>
      <trkpt lat="47.46162" lon="0.90095">
        <ele>109.59999847412</ele>
        <time>2015-12-30T14:05:53.000Z</time>
      </trkpt>
      <trkpt lat="47.46169" lon="0.90106">
        <ele>109.19999694824</ele>
        <time>2015-12-30T14:05:55.000Z</time>
      </trkpt>
      <trkpt lat="47.46177" lon="0.90112">
        <ele>108.40000152588</ele>
        <time>2015-12-30T14:05:57.000Z</time>
      </trkpt>
      <trkpt lat="47.46177" lon="0.90112">
        <ele>108.40000152588</ele>
        <time>2015-12-30T14:05:59.000Z</time>
      </trkpt>
      <trkpt lat="47.46177" lon="0.90112">
        <ele>108.40000152588</ele>
        <time>2015-12-30T14:06:01.000Z</time>
      </trkpt>
      <trkpt lat="47.46177" lon="0.90112">
        <ele>108.40000152588</ele>
        <time>2015-12-30T14:06:03.000Z</time>
      </trkpt>
      <trkpt lat="47.46225" lon="0.90063">
        <ele>101.40000152588</ele>
        <time>2015-12-30T14:06:09.000Z</time>
      </trkpt>
      <trkpt lat="47.46236" lon="0.90053">
        <ele>99.599998474121</ele>
        <time>2015-12-30T14:06:11.000Z</time>
      </trkpt>
      <trkpt lat="47.46254" lon="0.90024">
        <ele>99.400001525879</ele>
        <time>2015-12-30T14:06:14.000Z</time>
      </trkpt>
      <trkpt lat="47.4626" lon="0.89999">
        <ele>100.80000305176</ele>
        <time>2015-12-30T14:06:18.000Z</time>
      </trkpt>
      <trkpt lat="47.46265" lon="0.89984">
        <ele>101.40000152588</ele>
        <time>2015-12-30T14:06:20.000Z</time>
      </trkpt>
      <trkpt lat="47.46265" lon="0.89984">
        <ele>101.40000152588</ele>
        <time>2015-12-30T14:06:22.000Z</time>
      </trkpt>
      <trkpt lat="47.46265" lon="0.89984">
        <ele>101.40000152588</ele>
        <time>2015-12-30T14:06:24.000Z</time>
      </trkpt>
      <trkpt lat="47.46265" lon="0.89984">
        <ele>101.40000152588</ele>
        <time>2015-12-30T14:06:26.000Z</time>
      </trkpt>
      <trkpt lat="47.46265" lon="0.89984">
        <ele>101.40000152588</ele>
        <time>2015-12-30T14:06:28.000Z</time>
      </trkpt>
      <trkpt lat="47.46265" lon="0.89984">
        <ele>101.40000152588</ele>
        <time>2015-12-30T14:06:30.000Z</time>
      </trkpt>
      <trkpt lat="47.46265" lon="0.89984">
        <ele>101.40000152588</ele>
        <time>2015-12-30T14:06:32.000Z</time>
      </trkpt>
      <trkpt lat="47.46265" lon="0.89984">
        <ele>101.40000152588</ele>
        <time>2015-12-30T14:06:34.000Z</time>
      </trkpt>
      <trkpt lat="47.46265" lon="0.89984">
        <ele>101.40000152588</ele>
        <time>2015-12-30T14:06:36.000Z</time>
      </trkpt>
      <trkpt lat="47.46265" lon="0.89984">
        <ele>101.40000152588</ele>
        <time>2015-12-30T14:06:38.000Z</time>
      </trkpt>
      <trkpt lat="47.46265" lon="0.89984">
        <ele>101.40000152588</ele>
        <time>2015-12-30T14:06:40.000Z</time>
      </trkpt>
      <trkpt lat="47.46265" lon="0.89984">
        <ele>101.40000152588</ele>
        <time>2015-12-30T14:06:42.000Z</time>
      </trkpt>
      <trkpt lat="47.46265" lon="0.89984">
        <ele>101.40000152588</ele>
        <time>2015-12-30T14:06:44.000Z</time>
      </trkpt>
      <trkpt lat="47.46265" lon="0.89984">
        <ele>101.40000152588</ele>
        <time>2015-12-30T14:06:46.000Z</time>
      </trkpt>
      <trkpt lat="47.4628" lon="0.89916">
        <ele>101</ele>
        <time>2015-12-30T14:06:52.000Z</time>
      </trkpt>
      <trkpt lat="47.46286" lon="0.89879">
        <ele>100.80000305176</ele>
        <time>2015-12-30T14:06:54.000Z</time>
      </trkpt>
      <trkpt lat="47.46289" lon="0.89855">
        <ele>101.19999694824</ele>
        <time>2015-12-30T14:06:56.000Z</time>
      </trkpt>
      <trkpt lat="47.46289" lon="0.89855">
        <ele>101.19999694824</ele>
        <time>2015-12-30T14:06:58.000Z</time>
      </trkpt>
      <trkpt lat="47.46289" lon="0.89855">
        <ele>101.19999694824</ele>
        <time>2015-12-30T14:07:01.000Z</time>
      </trkpt>
      <trkpt lat="47.46289" lon="0.89855">
        <ele>101.19999694824</ele>
        <time>2015-12-30T14:07:03.000Z</time>
      </trkpt>
      <trkpt lat="47.46289" lon="0.89855">
        <ele>101.19999694824</ele>
        <time>2015-12-30T14:07:05.000Z</time>
      </trkpt>
      <trkpt lat="47.46289" lon="0.89822">
        <ele>101.40000152588</ele>
        <time>2015-12-30T14:07:07.000Z</time>
      </trkpt>
      <trkpt lat="47.46289" lon="0.89803">
        <ele>101.40000152588</ele>
        <time>2015-12-30T14:07:09.000Z</time>
      </trkpt>
      <trkpt lat="47.46289" lon="0.8979">
        <ele>101.59999847412</ele>
        <time>2015-12-30T14:07:11.000Z</time>
      </trkpt>
      <trkpt lat="47.4629" lon="0.8978">
        <ele>101.80000305176</ele>
        <time>2015-12-30T14:07:13.000Z</time>
      </trkpt>
      <trkpt lat="47.46291" lon="0.8977">
        <ele>102</ele>
        <time>2015-12-30T14:07:15.000Z</time>
      </trkpt>
      <trkpt lat="47.46292" lon="0.89752">
        <ele>102.19999694824</ele>
        <time>2015-12-30T14:07:17.000Z</time>
      </trkpt>
      <trkpt lat="47.46296" lon="0.89734">
        <ele>102.59999847412</ele>
        <time>2015-12-30T14:07:21.000Z</time>
      </trkpt>
      <trkpt lat="47.46296" lon="0.89716">
        <ele>102.80000305176</ele>
        <time>2015-12-30T14:07:25.000Z</time>
      </trkpt>
      <trkpt lat="47.46296" lon="0.89716">
        <ele>102.80000305176</ele>
        <time>2015-12-30T14:07:27.000Z</time>
      </trkpt>
      <trkpt lat="47.46297" lon="0.89698">
        <ele>103.40000152588</ele>
        <time>2015-12-30T14:07:29.000Z</time>
      </trkpt>
      <trkpt lat="47.46297" lon="0.89698">
        <ele>103.40000152588</ele>
        <time>2015-12-30T14:07:31.000Z</time>
      </trkpt>
      <trkpt lat="47.46307" lon="0.89634">
        <ele>104.40000152588</ele>
        <time>2015-12-30T14:07:43.000Z</time>
      </trkpt>
      <trkpt lat="47.46312" lon="0.89613">
        <ele>104.80000305176</ele>
        <time>2015-12-30T14:07:47.000Z</time>
      </trkpt>
      <trkpt lat="47.46317" lon="0.896">
        <ele>105</ele>
        <time>2015-12-30T14:07:49.000Z</time>
      </trkpt>
      <trkpt lat="47.46318" lon="0.8958">
        <ele>105.40000152588</ele>
        <time>2015-12-30T14:07:53.000Z</time>
      </trkpt>
      <trkpt lat="47.46318" lon="0.8958">
        <ele>105.40000152588</ele>
        <time>2015-12-30T14:07:55.000Z</time>
      </trkpt>
      <trkpt lat="47.46318" lon="0.8958">
        <ele>105.40000152588</ele>
        <time>2015-12-30T14:07:57.000Z</time>
      </trkpt>
      <trkpt lat="47.46318" lon="0.8958">
        <ele>105.40000152588</ele>
        <time>2015-12-30T14:07:59.000Z</time>
      </trkpt>
      <trkpt lat="47.46318" lon="0.8958">
        <ele>105.40000152588</ele>
        <time>2015-12-30T14:08:01.000Z</time>
      </trkpt>
      <trkpt lat="47.46318" lon="0.8958">
        <ele>105.40000152588</ele>
        <time>2015-12-30T14:08:04.000Z</time>
      </trkpt>
      <trkpt lat="47.46318" lon="0.8958">
        <ele>105.40000152588</ele>
        <time>2015-12-30T14:08:06.000Z</time>
      </trkpt>
      <trkpt lat="47.46318" lon="0.8958">
        <ele>105.40000152588</ele>
        <time>2015-12-30T14:08:10.000Z</time>
      </trkpt>
      <trkpt lat="47.46318" lon="0.8958">
        <ele>105.40000152588</ele>
        <time>2015-12-30T14:08:16.000Z</time>
      </trkpt>
      <trkpt lat="47.46318" lon="0.8958">
        <ele>105.40000152588</ele>
        <time>2015-12-30T14:08:18.000Z</time>
      </trkpt>
      <trkpt lat="47.46318" lon="0.8958">
        <ele>105.40000152588</ele>
        <time>2015-12-30T14:08:20.000Z</time>
      </trkpt>
      <trkpt lat="47.46318" lon="0.8958">
        <ele>105.40000152588</ele>
        <time>2015-12-30T14:08:22.000Z</time>
      </trkpt>
      <trkpt lat="47.46333" lon="0.89453">
        <ele>107</ele>
        <time>2015-12-30T14:08:26.000Z</time>
      </trkpt>
      <trkpt lat="47.46338" lon="0.89436">
        <ele>107</ele>
        <time>2015-12-30T14:08:30.000Z</time>
      </trkpt>
      <trkpt lat="47.4634" lon="0.89423">
        <ele>107</ele>
        <time>2015-12-30T14:08:34.000Z</time>
      </trkpt>
      <trkpt lat="47.46341" lon="0.89406">
        <ele>106.80000305176</ele>
        <time>2015-12-30T14:08:38.000Z</time>
      </trkpt>
      <trkpt lat="47.46341" lon="0.89406">
        <ele>106.80000305176</ele>
        <time>2015-12-30T14:08:40.000Z</time>
      </trkpt>
      <trkpt lat="47.46343" lon="0.89397">
        <ele>106.80000305176</ele>
        <time>2015-12-30T14:08:42.000Z</time>
      </trkpt>
      <trkpt lat="47.46346" lon="0.89384">
        <ele>106.80000305176</ele>
        <time>2015-12-30T14:08:46.000Z</time>
      </trkpt>
      <trkpt lat="47.46348" lon="0.89373">
        <ele>106.80000305176</ele>
        <time>2015-12-30T14:08:48.000Z</time>
      </trkpt>
      <trkpt lat="47.4635" lon="0.89362">
        <ele>106.80000305176</ele>
        <time>2015-12-30T14:08:50.000Z</time>
      </trkpt>
      <trkpt lat="47.46352" lon="0.89353">
        <ele>106.80000305176</ele>
        <time>2015-12-30T14:08:52.000Z</time>
      </trkpt>
      <trkpt lat="47.46354" lon="0.89344">
        <ele>106.80000305176</ele>
        <time>2015-12-30T14:08:54.000Z</time>
      </trkpt>
      <trkpt lat="47.46357" lon="0.89324">
        <ele>106.80000305176</ele>
        <time>2015-12-30T14:08:56.000Z</time>
      </trkpt>
      <trkpt lat="47.4636" lon="0.89303">
        <ele>107</ele>
        <time>2015-12-30T14:09:00.000Z</time>
      </trkpt>
      <trkpt lat="47.46364" lon="0.89282">
        <ele>106.59999847412</ele>
        <time>2015-12-30T14:09:04.000Z</time>
      </trkpt>
      <trkpt lat="47.46373" lon="0.89261">
        <ele>106.40000152588</ele>
        <time>2015-12-30T14:09:08.000Z</time>
      </trkpt>
      <trkpt lat="47.46387" lon="0.8925">
        <ele>106.40000152588</ele>
        <time>2015-12-30T14:09:12.000Z</time>
      </trkpt>
      <trkpt lat="47.46392" lon="0.89238">
        <ele>106.19999694824</ele>
        <time>2015-12-30T14:09:14.000Z</time>
      </trkpt>
      <trkpt lat="47.46392" lon="0.89238">
        <ele>106.19999694824</ele>
        <time>2015-12-30T14:09:18.000Z</time>
      </trkpt>
      <trkpt lat="47.46392" lon="0.89238">
        <ele>106.19999694824</ele>
        <time>2015-12-30T14:09:20.000Z</time>
      </trkpt>
      <trkpt lat="47.46392" lon="0.89238">
        <ele>106.19999694824</ele>
        <time>2015-12-30T14:09:22.000Z</time>
      </trkpt>
      <trkpt lat="47.46392" lon="0.89238">
        <ele>106.19999694824</ele>
        <time>2015-12-30T14:09:24.000Z</time>
      </trkpt>
      <trkpt lat="47.46392" lon="0.89238">
        <ele>106.19999694824</ele>
        <time>2015-12-30T14:09:26.000Z</time>
      </trkpt>
      <trkpt lat="47.46423" lon="0.89168">
        <ele>105.80000305176</ele>
        <time>2015-12-30T14:09:32.000Z</time>
      </trkpt>
      <trkpt lat="47.46443" lon="0.8914">
        <ele>103.80000305176</ele>
        <time>2015-12-30T14:09:36.000Z</time>
      </trkpt>
      <trkpt lat="47.4645" lon="0.89125">
        <ele>102.59999847412</ele>
        <time>2015-12-30T14:09:38.000Z</time>
      </trkpt>
      <trkpt lat="47.46459" lon="0.89108">
        <ele>101.19999694824</ele>
        <time>2015-12-30T14:09:40.000Z</time>
      </trkpt>
      <trkpt lat="47.46466" lon="0.89095">
        <ele>100.40000152588</ele>
        <time>2015-12-30T14:09:42.000Z</time>
      </trkpt>
      <trkpt lat="47.46466" lon="0.89095">
        <ele>100.40000152588</ele>
        <time>2015-12-30T14:09:44.000Z</time>
      </trkpt>
      <trkpt lat="47.46466" lon="0.89095">
        <ele>100.40000152588</ele>
        <time>2015-12-30T14:09:46.000Z</time>
      </trkpt>
      <trkpt lat="47.46477" lon="0.89038">
        <ele>97.800003051758</ele>
        <time>2015-12-30T14:09:50.000Z</time>
      </trkpt>
      <trkpt lat="47.46479" lon="0.89023">
        <ele>97</ele>
        <time>2015-12-30T14:09:52.000Z</time>
      </trkpt>
      <trkpt lat="47.46482" lon="0.89002">
        <ele>96.199996948242</ele>
        <time>2015-12-30T14:09:54.000Z</time>
      </trkpt>
      <trkpt lat="47.46477" lon="0.88984">
        <ele>95.599998474121</ele>
        <time>2015-12-30T14:09:56.000Z</time>
      </trkpt>
      <trkpt lat="47.4648" lon="0.88963">
        <ele>94.199996948242</ele>
        <time>2015-12-30T14:09:58.000Z</time>
      </trkpt>
      <trkpt lat="47.46483" lon="0.88943">
        <ele>92.800003051758</ele>
        <time>2015-12-30T14:10:00.000Z</time>
      </trkpt>
      <trkpt lat="47.46484" lon="0.88926">
        <ele>91.800003051758</ele>
        <time>2015-12-30T14:10:02.000Z</time>
      </trkpt>
      <trkpt lat="47.46484" lon="0.88926">
        <ele>91.800003051758</ele>
        <time>2015-12-30T14:10:04.000Z</time>
      </trkpt>
      <trkpt lat="47.46484" lon="0.88894">
        <ele>89.800003051758</ele>
        <time>2015-12-30T14:10:06.000Z</time>
      </trkpt>
      <trkpt lat="47.46486" lon="0.88877">
        <ele>88.599998474121</ele>
        <time>2015-12-30T14:10:08.000Z</time>
      </trkpt>
      <trkpt lat="47.46488" lon="0.88862">
        <ele>86.800003051758</ele>
        <time>2015-12-30T14:10:10.000Z</time>
      </trkpt>
      <trkpt lat="47.46488" lon="0.88862">
        <ele>86.800003051758</ele>
        <time>2015-12-30T14:10:13.000Z</time>
      </trkpt>
      <trkpt lat="47.46488" lon="0.88862">
        <ele>86.800003051758</ele>
        <time>2015-12-30T14:10:15.000Z</time>
      </trkpt>
      <trkpt lat="47.46488" lon="0.88862">
        <ele>86.800003051758</ele>
        <time>2015-12-30T14:10:17.000Z</time>
      </trkpt>
      <trkpt lat="47.46488" lon="0.88862">
        <ele>86.800003051758</ele>
        <time>2015-12-30T14:10:19.000Z</time>
      </trkpt>
      <trkpt lat="47.46488" lon="0.88862">
        <ele>86.800003051758</ele>
        <time>2015-12-30T14:10:21.000Z</time>
      </trkpt>
      <trkpt lat="47.46488" lon="0.88862">
        <ele>86.800003051758</ele>
        <time>2015-12-30T14:10:23.000Z</time>
      </trkpt>
      <trkpt lat="47.46488" lon="0.88862">
        <ele>86.800003051758</ele>
        <time>2015-12-30T14:10:25.000Z</time>
      </trkpt>
      <trkpt lat="47.46488" lon="0.88862">
        <ele>86.800003051758</ele>
        <time>2015-12-30T14:10:27.000Z</time>
      </trkpt>
      <trkpt lat="47.4649" lon="0.88838">
        <ele>84</ele>
        <time>2015-12-30T14:12:16.000Z</time>
      </trkpt>
      <trkpt lat="47.46494" lon="0.88822">
        <ele>82</ele>
        <time>2015-12-30T14:12:18.000Z</time>
      </trkpt>
      <trkpt lat="47.465" lon="0.8881">
        <ele>80.400001525879</ele>
        <time>2015-12-30T14:12:20.000Z</time>
      </trkpt>
      <trkpt lat="47.46508" lon="0.88802">
        <ele>79.800003051758</ele>
        <time>2015-12-30T14:12:22.000Z</time>
      </trkpt>
      <trkpt lat="47.46516" lon="0.88797">
        <ele>79.599998474121</ele>
        <time>2015-12-30T14:12:24.000Z</time>
      </trkpt>
      <trkpt lat="47.46531" lon="0.88791">
        <ele>79.199996948242</ele>
        <time>2015-12-30T14:12:26.000Z</time>
      </trkpt>
      <trkpt lat="47.46543" lon="0.88794">
        <ele>79.800003051758</ele>
        <time>2015-12-30T14:12:30.000Z</time>
      </trkpt>
      <trkpt lat="47.46543" lon="0.88794">
        <ele>79.800003051758</ele>
        <time>2015-12-30T14:12:32.000Z</time>
      </trkpt>
      <trkpt lat="47.46543" lon="0.88794">
        <ele>79.800003051758</ele>
        <time>2015-12-30T14:12:34.000Z</time>
      </trkpt>
      <trkpt lat="47.46543" lon="0.88794">
        <ele>79.800003051758</ele>
        <time>2015-12-30T14:12:36.000Z</time>
      </trkpt>
      <trkpt lat="47.46576" lon="0.88787">
        <ele>79.800003051758</ele>
        <time>2015-12-30T14:12:40.000Z</time>
      </trkpt>
      <trkpt lat="47.46589" lon="0.88788">
        <ele>80.400001525879</ele>
        <time>2015-12-30T14:12:44.000Z</time>
      </trkpt>
      <trkpt lat="47.46589" lon="0.88788">
        <ele>80.400001525879</ele>
        <time>2015-12-30T14:12:46.000Z</time>
      </trkpt>
      <trkpt lat="47.46589" lon="0.88788">
        <ele>80.400001525879</ele>
        <time>2015-12-30T14:12:48.000Z</time>
      </trkpt>
      <trkpt lat="47.46589" lon="0.88788">
        <ele>80.400001525879</ele>
        <time>2015-12-30T14:12:50.000Z</time>
      </trkpt>
      <trkpt lat="47.46589" lon="0.88788">
        <ele>80.400001525879</ele>
        <time>2015-12-30T14:12:52.000Z</time>
      </trkpt>
      <trkpt lat="47.46589" lon="0.88788">
        <ele>80.400001525879</ele>
        <time>2015-12-30T14:12:54.000Z</time>
      </trkpt>
      <trkpt lat="47.46589" lon="0.88788">
        <ele>80.400001525879</ele>
        <time>2015-12-30T14:12:56.000Z</time>
      </trkpt>
      <trkpt lat="47.46589" lon="0.88788">
        <ele>80.400001525879</ele>
        <time>2015-12-30T14:12:58.000Z</time>
      </trkpt>
      <trkpt lat="47.4661" lon="0.88759">
        <ele>78.800003051758</ele>
        <time>2015-12-30T14:13:18.000Z</time>
      </trkpt>
      <trkpt lat="47.46619" lon="0.88747">
        <ele>78</ele>
        <time>2015-12-30T14:13:20.000Z</time>
      </trkpt>
      <trkpt lat="47.46629" lon="0.88734">
        <ele>77.199996948242</ele>
        <time>2015-12-30T14:13:22.000Z</time>
      </trkpt>
      <trkpt lat="47.46645" lon="0.88724">
        <ele>76.800003051758</ele>
        <time>2015-12-30T14:13:24.000Z</time>
      </trkpt>
      <trkpt lat="47.46661" lon="0.88715">
        <ele>76.599998474121</ele>
        <time>2015-12-30T14:13:26.000Z</time>
      </trkpt>
      <trkpt lat="47.46679" lon="0.88723">
        <ele>77.800003051758</ele>
        <time>2015-12-30T14:13:28.000Z</time>
      </trkpt>
      <trkpt lat="47.46694" lon="0.88728">
        <ele>78.400001525879</ele>
        <time>2015-12-30T14:13:30.000Z</time>
      </trkpt>
      <trkpt lat="47.4671" lon="0.88737">
        <ele>79.800003051758</ele>
        <time>2015-12-30T14:13:32.000Z</time>
      </trkpt>
      <trkpt lat="47.46729" lon="0.88735">
        <ele>79.199996948242</ele>
        <time>2015-12-30T14:13:35.000Z</time>
      </trkpt>
      <trkpt lat="47.46741" lon="0.88737">
        <ele>79.400001525879</ele>
        <time>2015-12-30T14:13:37.000Z</time>
      </trkpt>
      <trkpt lat="47.46752" lon="0.88732">
        <ele>78.599998474121</ele>
        <time>2015-12-30T14:13:39.000Z</time>
      </trkpt>
      <trkpt lat="47.46761" lon="0.88731">
        <ele>78.400001525879</ele>
        <time>2015-12-30T14:13:41.000Z</time>
      </trkpt>
      <trkpt lat="47.46761" lon="0.88731">
        <ele>78.400001525879</ele>
        <time>2015-12-30T14:13:43.000Z</time>
      </trkpt>
      <trkpt lat="47.46761" lon="0.88731">
        <ele>78.400001525879</ele>
        <time>2015-12-30T14:13:45.000Z</time>
      </trkpt>
      <trkpt lat="47.46807" lon="0.88725">
        <ele>76.800003051758</ele>
        <time>2015-12-30T14:13:49.000Z</time>
      </trkpt>
      <trkpt lat="47.46823" lon="0.88726">
        <ele>76.599998474121</ele>
        <time>2015-12-30T14:13:51.000Z</time>
      </trkpt>
      <trkpt lat="47.46836" lon="0.88722">
        <ele>76</ele>
        <time>2015-12-30T14:13:54.000Z</time>
      </trkpt>
      <trkpt lat="47.46848" lon="0.88722">
        <ele>76</ele>
        <time>2015-12-30T14:13:56.000Z</time>
      </trkpt>
      <trkpt lat="47.4686" lon="0.88725">
        <ele>76.400001525879</ele>
        <time>2015-12-30T14:13:58.000Z</time>
      </trkpt>
      <trkpt lat="47.46872" lon="0.88728">
        <ele>77</ele>
        <time>2015-12-30T14:14:00.000Z</time>
      </trkpt>
      <trkpt lat="47.46883" lon="0.88726">
        <ele>76.599998474121</ele>
        <time>2015-12-30T14:14:02.000Z</time>
      </trkpt>
      <trkpt lat="47.46896" lon="0.88728">
        <ele>77</ele>
        <time>2015-12-30T14:14:04.000Z</time>
      </trkpt>
      <trkpt lat="47.46908" lon="0.88727">
        <ele>76.800003051758</ele>
        <time>2015-12-30T14:14:06.000Z</time>
      </trkpt>
      <trkpt lat="47.46918" lon="0.88725">
        <ele>76.199996948242</ele>
        <time>2015-12-30T14:14:08.000Z</time>
      </trkpt>
      <trkpt lat="47.46932" lon="0.88728">
        <ele>77</ele>
        <time>2015-12-30T14:14:10.000Z</time>
      </trkpt>
      <trkpt lat="47.46945" lon="0.88728">
        <ele>77.199996948242</ele>
        <time>2015-12-30T14:14:12.000Z</time>
      </trkpt>
      <trkpt lat="47.46957" lon="0.88734">
        <ele>78.400001525879</ele>
        <time>2015-12-30T14:14:14.000Z</time>
      </trkpt>
      <trkpt lat="47.46968" lon="0.88729">
        <ele>77.599998474121</ele>
        <time>2015-12-30T14:14:16.000Z</time>
      </trkpt>
      <trkpt lat="47.4698" lon="0.88728">
        <ele>77.599998474121</ele>
        <time>2015-12-30T14:14:18.000Z</time>
      </trkpt>
      <trkpt lat="47.46994" lon="0.88729">
        <ele>78</ele>
        <time>2015-12-30T14:14:20.000Z</time>
      </trkpt>
      <trkpt lat="47.47007" lon="0.88722">
        <ele>76.400001525879</ele>
        <time>2015-12-30T14:14:23.000Z</time>
      </trkpt>
      <trkpt lat="47.47018" lon="0.88719">
        <ele>75.400001525879</ele>
        <time>2015-12-30T14:14:25.000Z</time>
      </trkpt>
      <trkpt lat="47.47031" lon="0.88718">
        <ele>74.599998474121</ele>
        <time>2015-12-30T14:14:27.000Z</time>
      </trkpt>
      <trkpt lat="47.47045" lon="0.88711">
        <ele>72.599998474121</ele>
        <time>2015-12-30T14:14:29.000Z</time>
      </trkpt>
      <trkpt lat="47.47045" lon="0.88711">
        <ele>72.599998474121</ele>
        <time>2015-12-30T14:14:32.000Z</time>
      </trkpt>
      <trkpt lat="47.47045" lon="0.88711">
        <ele>72.599998474121</ele>
        <time>2015-12-30T14:14:34.000Z</time>
      </trkpt>
      <trkpt lat="47.47045" lon="0.88711">
        <ele>72.599998474121</ele>
        <time>2015-12-30T14:14:36.000Z</time>
      </trkpt>
      <trkpt lat="47.47045" lon="0.88711">
        <ele>72.599998474121</ele>
        <time>2015-12-30T14:14:38.000Z</time>
      </trkpt>
      <trkpt lat="47.47045" lon="0.88711">
        <ele>72.599998474121</ele>
        <time>2015-12-30T14:14:40.000Z</time>
      </trkpt>
      <trkpt lat="47.47045" lon="0.88711">
        <ele>72.599998474121</ele>
        <time>2015-12-30T14:14:42.000Z</time>
      </trkpt>
      <trkpt lat="47.47045" lon="0.88711">
        <ele>72.599998474121</ele>
        <time>2015-12-30T14:14:44.000Z</time>
      </trkpt>
      <trkpt lat="47.47045" lon="0.88711">
        <ele>72.599998474121</ele>
        <time>2015-12-30T14:14:46.000Z</time>
      </trkpt>
      <trkpt lat="47.47045" lon="0.88711">
        <ele>72.599998474121</ele>
        <time>2015-12-30T14:14:48.000Z</time>
      </trkpt>
      <trkpt lat="47.47045" lon="0.88711">
        <ele>72.599998474121</ele>
        <time>2015-12-30T14:14:50.000Z</time>
      </trkpt>
      <trkpt lat="47.47045" lon="0.88711">
        <ele>72.599998474121</ele>
        <time>2015-12-30T14:14:52.000Z</time>
      </trkpt>
      <trkpt lat="47.47045" lon="0.88711">
        <ele>72.599998474121</ele>
        <time>2015-12-30T14:14:54.000Z</time>
      </trkpt>
      <trkpt lat="47.47045" lon="0.88711">
        <ele>72.599998474121</ele>
        <time>2015-12-30T14:14:56.000Z</time>
      </trkpt>
      <trkpt lat="47.4713" lon="0.88736">
        <ele>73</ele>
        <time>2015-12-30T14:15:00.000Z</time>
      </trkpt>
      <trkpt lat="47.47179" lon="0.8875">
        <ele>74.400001525879</ele>
        <time>2015-12-30T14:15:02.000Z</time>
      </trkpt>
      <trkpt lat="47.47209" lon="0.88759">
        <ele>75.599998474121</ele>
        <time>2015-12-30T14:15:04.000Z</time>
      </trkpt>
      <trkpt lat="47.4723" lon="0.88766">
        <ele>76.400001525879</ele>
        <time>2015-12-30T14:15:06.000Z</time>
      </trkpt>
      <trkpt lat="47.47245" lon="0.88771">
        <ele>77.199996948242</ele>
        <time>2015-12-30T14:15:08.000Z</time>
      </trkpt>
      <trkpt lat="47.47269" lon="0.8878">
        <ele>76.800003051758</ele>
        <time>2015-12-30T14:15:10.000Z</time>
      </trkpt>
      <trkpt lat="47.47269" lon="0.8878">
        <ele>76.800003051758</ele>
        <time>2015-12-30T14:15:12.000Z</time>
      </trkpt>
      <trkpt lat="47.47269" lon="0.8878">
        <ele>76.800003051758</ele>
        <time>2015-12-30T14:15:14.000Z</time>
      </trkpt>
      <trkpt lat="47.47313" lon="0.88792">
        <ele>75.199996948242</ele>
        <time>2015-12-30T14:15:18.000Z</time>
      </trkpt>
      <trkpt lat="47.47324" lon="0.88792">
        <ele>74.800003051758</ele>
        <time>2015-12-30T14:15:20.000Z</time>
      </trkpt>
      <trkpt lat="47.47335" lon="0.88794">
        <ele>74.800003051758</ele>
        <time>2015-12-30T14:15:22.000Z</time>
      </trkpt>
      <trkpt lat="47.47356" lon="0.88793">
        <ele>74.400001525879</ele>
        <time>2015-12-30T14:15:27.000Z</time>
      </trkpt>
      <trkpt lat="47.47371" lon="0.88794">
        <ele>74.400001525879</ele>
        <time>2015-12-30T14:15:28.000Z</time>
      </trkpt>
      <trkpt lat="47.47384" lon="0.88801">
        <ele>75</ele>
        <time>2015-12-30T14:15:30.000Z</time>
      </trkpt>
      <trkpt lat="47.47393" lon="0.8881">
        <ele>75.800003051758</ele>
        <time>2015-12-30T14:15:32.000Z</time>
      </trkpt>
      <trkpt lat="47.47404" lon="0.88816">
        <ele>76.599998474121</ele>
        <time>2015-12-30T14:15:34.000Z</time>
      </trkpt>
      <trkpt lat="47.47414" lon="0.88824">
        <ele>77.800003051758</ele>
        <time>2015-12-30T14:15:36.000Z</time>
      </trkpt>
      <trkpt lat="47.47427" lon="0.88827">
        <ele>77.599998474121</ele>
        <time>2015-12-30T14:15:38.000Z</time>
      </trkpt>
      <trkpt lat="47.47427" lon="0.88827">
        <ele>77.599998474121</ele>
        <time>2015-12-30T14:15:40.000Z</time>
      </trkpt>
      <trkpt lat="47.47427" lon="0.88827">
        <ele>77.599998474121</ele>
        <time>2015-12-30T14:15:42.000Z</time>
      </trkpt>
      <trkpt lat="47.47427" lon="0.88827">
        <ele>77.599998474121</ele>
        <time>2015-12-30T14:15:44.000Z</time>
      </trkpt>
      <trkpt lat="47.47427" lon="0.88827">
        <ele>77.599998474121</ele>
        <time>2015-12-30T14:15:46.000Z</time>
      </trkpt>
      <trkpt lat="47.47488" lon="0.88842">
        <ele>77</ele>
        <time>2015-12-30T14:15:50.000Z</time>
      </trkpt>
      <trkpt lat="47.47502" lon="0.88845">
        <ele>77</ele>
        <time>2015-12-30T14:15:52.000Z</time>
      </trkpt>
      <trkpt lat="47.47514" lon="0.88848">
        <ele>77.199996948242</ele>
        <time>2015-12-30T14:15:54.000Z</time>
      </trkpt>
      <trkpt lat="47.47528" lon="0.88848">
        <ele>77</ele>
        <time>2015-12-30T14:15:56.000Z</time>
      </trkpt>
      <trkpt lat="47.47539" lon="0.8885">
        <ele>77.199996948242</ele>
        <time>2015-12-30T14:15:58.000Z</time>
      </trkpt>
      <trkpt lat="47.47551" lon="0.88852">
        <ele>77.199996948242</ele>
        <time>2015-12-30T14:16:00.000Z</time>
      </trkpt>
      <trkpt lat="47.47561" lon="0.88852">
        <ele>77</ele>
        <time>2015-12-30T14:16:02.000Z</time>
      </trkpt>
      <trkpt lat="47.47572" lon="0.88851">
        <ele>76.400001525879</ele>
        <time>2015-12-30T14:16:04.000Z</time>
      </trkpt>
      <trkpt lat="47.47582" lon="0.88851">
        <ele>76</ele>
        <time>2015-12-30T14:16:06.000Z</time>
      </trkpt>
      <trkpt lat="47.47582" lon="0.88851">
        <ele>76</ele>
        <time>2015-12-30T14:16:08.000Z</time>
      </trkpt>
      <trkpt lat="47.47582" lon="0.88851">
        <ele>76</ele>
        <time>2015-12-30T14:16:10.000Z</time>
      </trkpt>
      <trkpt lat="47.47582" lon="0.88851">
        <ele>76</ele>
        <time>2015-12-30T14:16:12.000Z</time>
      </trkpt>
      <trkpt lat="47.47582" lon="0.88851">
        <ele>76</ele>
        <time>2015-12-30T14:16:14.000Z</time>
      </trkpt>
      <trkpt lat="47.47582" lon="0.88851">
        <ele>76</ele>
        <time>2015-12-30T14:16:16.000Z</time>
      </trkpt>
      <trkpt lat="47.47582" lon="0.88851">
        <ele>76</ele>
        <time>2015-12-30T14:16:18.000Z</time>
      </trkpt>
      <trkpt lat="47.47582" lon="0.88851">
        <ele>76</ele>
        <time>2015-12-30T14:16:20.000Z</time>
      </trkpt>
      <trkpt lat="47.47582" lon="0.88851">
        <ele>76</ele>
        <time>2015-12-30T14:16:22.000Z</time>
      </trkpt>
      <trkpt lat="47.47582" lon="0.88851">
        <ele>76</ele>
        <time>2015-12-30T14:16:24.000Z</time>
      </trkpt>
      <trkpt lat="47.47582" lon="0.88851">
        <ele>76</ele>
        <time>2015-12-30T14:16:26.000Z</time>
      </trkpt>
      <trkpt lat="47.47582" lon="0.88851">
        <ele>76</ele>
        <time>2015-12-30T14:16:28.000Z</time>
      </trkpt>
      <trkpt lat="47.47582" lon="0.88851">
        <ele>76</ele>
        <time>2015-12-30T14:16:30.000Z</time>
      </trkpt>
      <trkpt lat="47.4771" lon="0.88904">
        <ele>78</ele>
        <time>2015-12-30T14:16:34.000Z</time>
      </trkpt>
      <trkpt lat="47.47721" lon="0.88907">
        <ele>77.800003051758</ele>
        <time>2015-12-30T14:16:36.000Z</time>
      </trkpt>
      <trkpt lat="47.4774" lon="0.8892">
        <ele>78.400001525879</ele>
        <time>2015-12-30T14:16:40.000Z</time>
      </trkpt>
      <trkpt lat="47.47751" lon="0.88927">
        <ele>78.599998474121</ele>
        <time>2015-12-30T14:16:42.000Z</time>
      </trkpt>
      <trkpt lat="47.47762" lon="0.88935">
        <ele>78.199996948242</ele>
        <time>2015-12-30T14:16:44.000Z</time>
      </trkpt>
      <trkpt lat="47.47773" lon="0.88943">
        <ele>77.599998474121</ele>
        <time>2015-12-30T14:16:46.000Z</time>
      </trkpt>
      <trkpt lat="47.47784" lon="0.88951">
        <ele>77.199996948242</ele>
        <time>2015-12-30T14:16:48.000Z</time>
      </trkpt>
      <trkpt lat="47.47794" lon="0.8896">
        <ele>77</ele>
        <time>2015-12-30T14:16:50.000Z</time>
      </trkpt>
      <trkpt lat="47.47803" lon="0.88971">
        <ele>77.400001525879</ele>
        <time>2015-12-30T14:16:52.000Z</time>
      </trkpt>
      <trkpt lat="47.47803" lon="0.88971">
        <ele>77.400001525879</ele>
        <time>2015-12-30T14:16:54.000Z</time>
      </trkpt>
      <trkpt lat="47.47803" lon="0.88971">
        <ele>77.400001525879</ele>
        <time>2015-12-30T14:16:56.000Z</time>
      </trkpt>
      <trkpt lat="47.47803" lon="0.88971">
        <ele>77.400001525879</ele>
        <time>2015-12-30T14:16:58.000Z</time>
      </trkpt>
      <trkpt lat="47.47803" lon="0.88971">
        <ele>77.400001525879</ele>
        <time>2015-12-30T14:17:00.000Z</time>
      </trkpt>
      <trkpt lat="47.47803" lon="0.88971">
        <ele>77.400001525879</ele>
        <time>2015-12-30T14:17:02.000Z</time>
      </trkpt>
      <trkpt lat="47.47834" lon="0.88999">
        <ele>76.599998474121</ele>
        <time>2015-12-30T14:17:08.000Z</time>
      </trkpt>
      <trkpt lat="47.47854" lon="0.89015">
        <ele>76</ele>
        <time>2015-12-30T14:17:10.000Z</time>
      </trkpt>
      <trkpt lat="47.4787" lon="0.89024">
        <ele>75</ele>
        <time>2015-12-30T14:17:12.000Z</time>
      </trkpt>
      <trkpt lat="47.47885" lon="0.89032">
        <ele>74</ele>
        <time>2015-12-30T14:17:14.000Z</time>
      </trkpt>
      <trkpt lat="47.47901" lon="0.8904">
        <ele>73</ele>
        <time>2015-12-30T14:17:16.000Z</time>
      </trkpt>
      <trkpt lat="47.47931" lon="0.89057">
        <ele>72.800003051758</ele>
        <time>2015-12-30T14:17:18.000Z</time>
      </trkpt>
      <trkpt lat="47.47942" lon="0.89063">
        <ele>73.400001525879</ele>
        <time>2015-12-30T14:17:20.000Z</time>
      </trkpt>
      <trkpt lat="47.47955" lon="0.89073">
        <ele>74.199996948242</ele>
        <time>2015-12-30T14:17:22.000Z</time>
      </trkpt>
      <trkpt lat="47.47966" lon="0.89081">
        <ele>75</ele>
        <time>2015-12-30T14:17:24.000Z</time>
      </trkpt>
      <trkpt lat="47.47975" lon="0.89087">
        <ele>75.599998474121</ele>
        <time>2015-12-30T14:17:26.000Z</time>
      </trkpt>
      <trkpt lat="47.47975" lon="0.89087">
        <ele>75.599998474121</ele>
        <time>2015-12-30T14:17:28.000Z</time>
      </trkpt>
      <trkpt lat="47.47975" lon="0.89087">
        <ele>75.599998474121</ele>
        <time>2015-12-30T14:17:30.000Z</time>
      </trkpt>
      <trkpt lat="47.47975" lon="0.89087">
        <ele>75.599998474121</ele>
        <time>2015-12-30T14:17:32.000Z</time>
      </trkpt>
      <trkpt lat="47.47975" lon="0.89087">
        <ele>75.599998474121</ele>
        <time>2015-12-30T14:17:38.000Z</time>
      </trkpt>
      <trkpt lat="47.47975" lon="0.89087">
        <ele>75.599998474121</ele>
        <time>2015-12-30T14:17:40.000Z</time>
      </trkpt>
      <trkpt lat="47.47975" lon="0.89087">
        <ele>75.599998474121</ele>
        <time>2015-12-30T14:17:42.000Z</time>
      </trkpt>
      <trkpt lat="47.47975" lon="0.89087">
        <ele>75.599998474121</ele>
        <time>2015-12-30T14:17:44.000Z</time>
      </trkpt>
      <trkpt lat="47.47975" lon="0.89087">
        <ele>75.599998474121</ele>
        <time>2015-12-30T14:17:46.000Z</time>
      </trkpt>
      <trkpt lat="47.47975" lon="0.89087">
        <ele>75.599998474121</ele>
        <time>2015-12-30T14:17:48.000Z</time>
      </trkpt>
      <trkpt lat="47.48053" lon="0.88997">
        <ele>68.599998474121</ele>
        <time>2015-12-30T14:17:54.000Z</time>
      </trkpt>
      <trkpt lat="47.48053" lon="0.88997">
        <ele>68.599998474121</ele>
        <time>2015-12-30T14:17:56.000Z</time>
      </trkpt>
      <trkpt lat="47.48053" lon="0.88997">
        <ele>68.599998474121</ele>
        <time>2015-12-30T14:17:58.000Z</time>
      </trkpt>
      <trkpt lat="47.48053" lon="0.88997">
        <ele>68.599998474121</ele>
        <time>2015-12-30T14:18:00.000Z</time>
      </trkpt>
      <trkpt lat="47.48065" lon="0.88946">
        <ele>67.199996948242</ele>
        <time>2015-12-30T14:18:04.000Z</time>
      </trkpt>
      <trkpt lat="47.48071" lon="0.88929">
        <ele>67.199996948242</ele>
        <time>2015-12-30T14:18:08.000Z</time>
      </trkpt>
      <trkpt lat="47.48071" lon="0.88929">
        <ele>67.199996948242</ele>
        <time>2015-12-30T14:18:10.000Z</time>
      </trkpt>
      <trkpt lat="47.48071" lon="0.88929">
        <ele>67.199996948242</ele>
        <time>2015-12-30T14:18:12.000Z</time>
      </trkpt>
      <trkpt lat="47.48083" lon="0.88896">
        <ele>67</ele>
        <time>2015-12-30T14:18:16.000Z</time>
      </trkpt>
      <trkpt lat="47.48087" lon="0.88883">
        <ele>66.800003051758</ele>
        <time>2015-12-30T14:18:18.000Z</time>
      </trkpt>
      <trkpt lat="47.48087" lon="0.88883">
        <ele>66.800003051758</ele>
        <time>2015-12-30T14:18:20.000Z</time>
      </trkpt>
      <trkpt lat="47.48089" lon="0.88864">
        <ele>66.599998474121</ele>
        <time>2015-12-30T14:18:22.000Z</time>
      </trkpt>
      <trkpt lat="47.48089" lon="0.88864">
        <ele>66.599998474121</ele>
        <time>2015-12-30T14:18:24.000Z</time>
      </trkpt>
      <trkpt lat="47.48089" lon="0.88864">
        <ele>66.599998474121</ele>
        <time>2015-12-30T14:18:26.000Z</time>
      </trkpt>
      <trkpt lat="47.48089" lon="0.88864">
        <ele>66.599998474121</ele>
        <time>2015-12-30T14:18:28.000Z</time>
      </trkpt>
      <trkpt lat="47.48089" lon="0.88864">
        <ele>66.599998474121</ele>
        <time>2015-12-30T14:18:30.000Z</time>
      </trkpt>
      <trkpt lat="47.48089" lon="0.88864">
        <ele>66.599998474121</ele>
        <time>2015-12-30T14:18:32.000Z</time>
      </trkpt>
      <trkpt lat="47.48089" lon="0.88864">
        <ele>66.599998474121</ele>
        <time>2015-12-30T14:18:34.000Z</time>
      </trkpt>
      <trkpt lat="47.48089" lon="0.88864">
        <ele>66.599998474121</ele>
        <time>2015-12-30T14:18:36.000Z</time>
      </trkpt>
      <trkpt lat="47.48089" lon="0.88864">
        <ele>66.599998474121</ele>
        <time>2015-12-30T14:18:38.000Z</time>
      </trkpt>
      <trkpt lat="47.48103" lon="0.88809">
        <ele>66</ele>
        <time>2015-12-30T14:18:44.000Z</time>
      </trkpt>
      <trkpt lat="47.48112" lon="0.88777">
        <ele>65.599998474121</ele>
        <time>2015-12-30T14:18:46.000Z</time>
      </trkpt>
      <trkpt lat="47.48118" lon="0.88755">
        <ele>65.400001525879</ele>
        <time>2015-12-30T14:18:48.000Z</time>
      </trkpt>
      <trkpt lat="47.48122" lon="0.88738">
        <ele>65.199996948242</ele>
        <time>2015-12-30T14:18:50.000Z</time>
      </trkpt>
      <trkpt lat="47.48125" lon="0.88725">
        <ele>65</ele>
        <time>2015-12-30T14:18:52.000Z</time>
      </trkpt>
      <trkpt lat="47.48129" lon="0.88701">
        <ele>65.199996948242</ele>
        <time>2015-12-30T14:18:54.000Z</time>
      </trkpt>
      <trkpt lat="47.48129" lon="0.88701">
        <ele>65.199996948242</ele>
        <time>2015-12-30T14:18:56.000Z</time>
      </trkpt>
      <trkpt lat="47.48129" lon="0.88701">
        <ele>65.199996948242</ele>
        <time>2015-12-30T14:18:58.000Z</time>
      </trkpt>
      <trkpt lat="47.48129" lon="0.88701">
        <ele>65.199996948242</ele>
        <time>2015-12-30T14:19:00.000Z</time>
      </trkpt>
      <trkpt lat="47.48129" lon="0.88701">
        <ele>65.199996948242</ele>
        <time>2015-12-30T14:19:02.000Z</time>
      </trkpt>
      <trkpt lat="47.48129" lon="0.88701">
        <ele>65.199996948242</ele>
        <time>2015-12-30T14:19:04.000Z</time>
      </trkpt>
      <trkpt lat="47.48129" lon="0.88701">
        <ele>65.199996948242</ele>
        <time>2015-12-30T14:19:06.000Z</time>
      </trkpt>
      <trkpt lat="47.48129" lon="0.88701">
        <ele>65.199996948242</ele>
        <time>2015-12-30T14:19:08.000Z</time>
      </trkpt>
      <trkpt lat="47.48129" lon="0.88701">
        <ele>65.199996948242</ele>
        <time>2015-12-30T14:19:12.000Z</time>
      </trkpt>
      <trkpt lat="47.48129" lon="0.88701">
        <ele>65.199996948242</ele>
        <time>2015-12-30T14:19:13.000Z</time>
      </trkpt>
      <trkpt lat="47.48129" lon="0.88701">
        <ele>65.199996948242</ele>
        <time>2015-12-30T14:19:15.000Z</time>
      </trkpt>
      <trkpt lat="47.48129" lon="0.88701">
        <ele>65.199996948242</ele>
        <time>2015-12-30T14:19:17.000Z</time>
      </trkpt>
      <trkpt lat="47.48129" lon="0.88701">
        <ele>65.199996948242</ele>
        <time>2015-12-30T14:19:19.000Z</time>
      </trkpt>
      <trkpt lat="47.48129" lon="0.88701">
        <ele>65.199996948242</ele>
        <time>2015-12-30T14:19:21.000Z</time>
      </trkpt>
      <trkpt lat="47.48122" lon="0.88645">
        <ele>65.599998474121</ele>
        <time>2015-12-30T14:19:25.000Z</time>
      </trkpt>
      <trkpt lat="47.48112" lon="0.88632">
        <ele>65.800003051758</ele>
        <time>2015-12-30T14:19:29.000Z</time>
      </trkpt>
      <trkpt lat="47.48099" lon="0.88623">
        <ele>66</ele>
        <time>2015-12-30T14:19:33.000Z</time>
      </trkpt>
      <trkpt lat="47.48083" lon="0.8861">
        <ele>66.400001525879</ele>
        <time>2015-12-30T14:19:37.000Z</time>
      </trkpt>
      <trkpt lat="47.48075" lon="0.88601">
        <ele>66.599998474121</ele>
        <time>2015-12-30T14:19:39.000Z</time>
      </trkpt>
      <trkpt lat="47.48058" lon="0.88595">
        <ele>66.800003051758</ele>
        <time>2015-12-30T14:19:43.000Z</time>
      </trkpt>
      <trkpt lat="47.48042" lon="0.88589">
        <ele>67.199996948242</ele>
        <time>2015-12-30T14:19:47.000Z</time>
      </trkpt>
      <trkpt lat="47.48042" lon="0.88589">
        <ele>67.199996948242</ele>
        <time>2015-12-30T14:19:49.000Z</time>
      </trkpt>
      <trkpt lat="47.48026" lon="0.88578">
        <ele>67.400001525879</ele>
        <time>2015-12-30T14:19:51.000Z</time>
      </trkpt>
      <trkpt lat="47.48017" lon="0.88571">
        <ele>67.599998474121</ele>
        <time>2015-12-30T14:19:53.000Z</time>
      </trkpt>
      <trkpt lat="47.48" lon="0.88558">
        <ele>68</ele>
        <time>2015-12-30T14:19:57.000Z</time>
      </trkpt>
      <trkpt lat="47.47992" lon="0.88546">
        <ele>67.800003051758</ele>
        <time>2015-12-30T14:19:59.000Z</time>
      </trkpt>
      <trkpt lat="47.47983" lon="0.88541">
        <ele>68</ele>
        <time>2015-12-30T14:20:01.000Z</time>
      </trkpt>
      <trkpt lat="47.47973" lon="0.88543">
        <ele>67.800003051758</ele>
        <time>2015-12-30T14:20:03.000Z</time>
      </trkpt>
      <trkpt lat="47.47963" lon="0.88539">
        <ele>67.800003051758</ele>
        <time>2015-12-30T14:20:05.000Z</time>
      </trkpt>
      <trkpt lat="47.47963" lon="0.88539">
        <ele>67.800003051758</ele>
        <time>2015-12-30T14:20:07.000Z</time>
      </trkpt>
      <trkpt lat="47.47932" lon="0.8852">
        <ele>67.599998474121</ele>
        <time>2015-12-30T14:20:11.000Z</time>
      </trkpt>
      <trkpt lat="47.47924" lon="0.88518">
        <ele>67.599998474121</ele>
        <time>2015-12-30T14:20:13.000Z</time>
      </trkpt>
      <trkpt lat="47.47915" lon="0.88513">
        <ele>67.599998474121</ele>
        <time>2015-12-30T14:20:15.000Z</time>
      </trkpt>
      <trkpt lat="47.47906" lon="0.88508">
        <ele>67.400001525879</ele>
        <time>2015-12-30T14:20:17.000Z</time>
      </trkpt>
      <trkpt lat="47.47889" lon="0.88499">
        <ele>67.400001525879</ele>
        <time>2015-12-30T14:20:21.000Z</time>
      </trkpt>
      <trkpt lat="47.4788" lon="0.88493">
        <ele>67.400001525879</ele>
        <time>2015-12-30T14:20:23.000Z</time>
      </trkpt>
      <trkpt lat="47.47871" lon="0.88488">
        <ele>67.199996948242</ele>
        <time>2015-12-30T14:20:25.000Z</time>
      </trkpt>
      <trkpt lat="47.47861" lon="0.88485">
        <ele>67.199996948242</ele>
        <time>2015-12-30T14:20:27.000Z</time>
      </trkpt>
      <trkpt lat="47.47861" lon="0.88485">
        <ele>67.199996948242</ele>
        <time>2015-12-30T14:20:29.000Z</time>
      </trkpt>
      <trkpt lat="47.47861" lon="0.88485">
        <ele>67.199996948242</ele>
        <time>2015-12-30T14:20:31.000Z</time>
      </trkpt>
      <trkpt lat="47.47821" lon="0.88458">
        <ele>66.400001525879</ele>
        <time>2015-12-30T14:20:35.000Z</time>
      </trkpt>
      <trkpt lat="47.47811" lon="0.88453">
        <ele>66</ele>
        <time>2015-12-30T14:20:37.000Z</time>
      </trkpt>
      <trkpt lat="47.47801" lon="0.88449">
        <ele>65.400001525879</ele>
        <time>2015-12-30T14:20:39.000Z</time>
      </trkpt>
      <trkpt lat="47.47801" lon="0.88449">
        <ele>65.400001525879</ele>
        <time>2015-12-30T14:20:41.000Z</time>
      </trkpt>
      <trkpt lat="47.47801" lon="0.88449">
        <ele>65.400001525879</ele>
        <time>2015-12-30T14:20:43.000Z</time>
      </trkpt>
      <trkpt lat="47.4778" lon="0.88438">
        <ele>64.400001525879</ele>
        <time>2015-12-30T14:20:47.000Z</time>
      </trkpt>
      <trkpt lat="47.47765" lon="0.88431">
        <ele>63.799999237061</ele>
        <time>2015-12-30T14:20:49.000Z</time>
      </trkpt>
      <trkpt lat="47.47753" lon="0.8843">
        <ele>63.200000762939</ele>
        <time>2015-12-30T14:20:51.000Z</time>
      </trkpt>
      <trkpt lat="47.47753" lon="0.8843">
        <ele>63.200000762939</ele>
        <time>2015-12-30T14:20:53.000Z</time>
      </trkpt>
      <trkpt lat="47.47737" lon="0.88423">
        <ele>63.200000762939</ele>
        <time>2015-12-30T14:20:55.000Z</time>
      </trkpt>
      <trkpt lat="47.47725" lon="0.88419">
        <ele>63.400001525879</ele>
        <time>2015-12-30T14:20:57.000Z</time>
      </trkpt>
      <trkpt lat="47.47713" lon="0.88415">
        <ele>63.400001525879</ele>
        <time>2015-12-30T14:20:59.000Z</time>
      </trkpt>
      <trkpt lat="47.47702" lon="0.88411">
        <ele>63.599998474121</ele>
        <time>2015-12-30T14:21:01.000Z</time>
      </trkpt>
      <trkpt lat="47.47702" lon="0.88411">
        <ele>63.599998474121</ele>
        <time>2015-12-30T14:21:03.000Z</time>
      </trkpt>
      <trkpt lat="47.47702" lon="0.88411">
        <ele>63.599998474121</ele>
        <time>2015-12-30T14:21:05.000Z</time>
      </trkpt>
      <trkpt lat="47.47676" lon="0.88399">
        <ele>63.799999237061</ele>
        <time>2015-12-30T14:21:09.000Z</time>
      </trkpt>
      <trkpt lat="47.47657" lon="0.88391">
        <ele>64</ele>
        <time>2015-12-30T14:21:12.000Z</time>
      </trkpt>
      <trkpt lat="47.47657" lon="0.88391">
        <ele>64</ele>
        <time>2015-12-30T14:21:14.000Z</time>
      </trkpt>
      <trkpt lat="47.47657" lon="0.88391">
        <ele>64</ele>
        <time>2015-12-30T14:21:16.000Z</time>
      </trkpt>
      <trkpt lat="47.47627" lon="0.88384">
        <ele>64.199996948242</ele>
        <time>2015-12-30T14:21:20.000Z</time>
      </trkpt>
      <trkpt lat="47.47606" lon="0.88378">
        <ele>64.199996948242</ele>
        <time>2015-12-30T14:21:22.000Z</time>
      </trkpt>
      <trkpt lat="47.47591" lon="0.88374">
        <ele>64.400001525879</ele>
        <time>2015-12-30T14:21:24.000Z</time>
      </trkpt>
      <trkpt lat="47.47591" lon="0.88374">
        <ele>64.400001525879</ele>
        <time>2015-12-30T14:21:26.000Z</time>
      </trkpt>
      <trkpt lat="47.47591" lon="0.88374">
        <ele>64.400001525879</ele>
        <time>2015-12-30T14:21:28.000Z</time>
      </trkpt>
      <trkpt lat="47.47591" lon="0.88374">
        <ele>64.400001525879</ele>
        <time>2015-12-30T14:21:30.000Z</time>
      </trkpt>
      <trkpt lat="47.47591" lon="0.88374">
        <ele>64.400001525879</ele>
        <time>2015-12-30T14:21:32.000Z</time>
      </trkpt>
      <trkpt lat="47.47551" lon="0.8836">
        <ele>64.800003051758</ele>
        <time>2015-12-30T14:21:38.000Z</time>
      </trkpt>
      <trkpt lat="47.47525" lon="0.88351">
        <ele>65</ele>
        <time>2015-12-30T14:21:40.000Z</time>
      </trkpt>
      <trkpt lat="47.47508" lon="0.88346">
        <ele>65</ele>
        <time>2015-12-30T14:21:42.000Z</time>
      </trkpt>
      <trkpt lat="47.47508" lon="0.88346">
        <ele>65</ele>
        <time>2015-12-30T14:21:44.000Z</time>
      </trkpt>
      <trkpt lat="47.47508" lon="0.88346">
        <ele>65</ele>
        <time>2015-12-30T14:21:46.000Z</time>
      </trkpt>
      <trkpt lat="47.47508" lon="0.88346">
        <ele>65</ele>
        <time>2015-12-30T14:21:48.000Z</time>
      </trkpt>
      <trkpt lat="47.47508" lon="0.88346">
        <ele>65</ele>
        <time>2015-12-30T14:21:50.000Z</time>
      </trkpt>
      <trkpt lat="47.47508" lon="0.88346">
        <ele>65</ele>
        <time>2015-12-30T14:21:52.000Z</time>
      </trkpt>
      <trkpt lat="47.47508" lon="0.88346">
        <ele>65</ele>
        <time>2015-12-30T14:21:54.000Z</time>
      </trkpt>
      <trkpt lat="47.47508" lon="0.88346">
        <ele>65</ele>
        <time>2015-12-30T14:21:56.000Z</time>
      </trkpt>
      <trkpt lat="47.47508" lon="0.88346">
        <ele>65</ele>
        <time>2015-12-30T14:21:58.000Z</time>
      </trkpt>
      <trkpt lat="47.47508" lon="0.88346">
        <ele>65</ele>
        <time>2015-12-30T14:22:00.000Z</time>
      </trkpt>
      <trkpt lat="47.47449" lon="0.88326">
        <ele>63.799999237061</ele>
        <time>2015-12-30T14:22:04.000Z</time>
      </trkpt>
      <trkpt lat="47.47415" lon="0.88314">
        <ele>62.799999237061</ele>
        <time>2015-12-30T14:22:06.000Z</time>
      </trkpt>
      <trkpt lat="47.47394" lon="0.88307">
        <ele>62.799999237061</ele>
        <time>2015-12-30T14:22:08.000Z</time>
      </trkpt>
      <trkpt lat="47.47378" lon="0.88302">
        <ele>62.599998474121</ele>
        <time>2015-12-30T14:22:10.000Z</time>
      </trkpt>
      <trkpt lat="47.47365" lon="0.88298">
        <ele>62.599998474121</ele>
        <time>2015-12-30T14:22:12.000Z</time>
      </trkpt>
      <trkpt lat="47.47342" lon="0.88289">
        <ele>62.799999237061</ele>
        <time>2015-12-30T14:22:14.000Z</time>
      </trkpt>
      <trkpt lat="47.47332" lon="0.88287">
        <ele>62.799999237061</ele>
        <time>2015-12-30T14:22:16.000Z</time>
      </trkpt>
      <trkpt lat="47.47322" lon="0.88284">
        <ele>62.799999237061</ele>
        <time>2015-12-30T14:22:18.000Z</time>
      </trkpt>
      <trkpt lat="47.47311" lon="0.88281">
        <ele>63</ele>
        <time>2015-12-30T14:22:20.000Z</time>
      </trkpt>
      <trkpt lat="47.47301" lon="0.88279">
        <ele>63</ele>
        <time>2015-12-30T14:22:22.000Z</time>
      </trkpt>
      <trkpt lat="47.4729" lon="0.88275">
        <ele>63.200000762939</ele>
        <time>2015-12-30T14:22:24.000Z</time>
      </trkpt>
      <trkpt lat="47.4729" lon="0.88275">
        <ele>63.200000762939</ele>
        <time>2015-12-30T14:22:26.000Z</time>
      </trkpt>
      <trkpt lat="47.47249" lon="0.88263">
        <ele>63.599998474121</ele>
        <time>2015-12-30T14:22:32.000Z</time>
      </trkpt>
      <trkpt lat="47.4724" lon="0.88258">
        <ele>63.599998474121</ele>
        <time>2015-12-30T14:22:34.000Z</time>
      </trkpt>
      <trkpt lat="47.4723" lon="0.88258">
        <ele>63.200000762939</ele>
        <time>2015-12-30T14:22:36.000Z</time>
      </trkpt>
      <trkpt lat="47.4722" lon="0.88256">
        <ele>63.200000762939</ele>
        <time>2015-12-30T14:22:38.000Z</time>
      </trkpt>
      <trkpt lat="47.4722" lon="0.88256">
        <ele>63.200000762939</ele>
        <time>2015-12-30T14:22:40.000Z</time>
      </trkpt>
      <trkpt lat="47.4722" lon="0.88256">
        <ele>63.200000762939</ele>
        <time>2015-12-30T14:22:42.000Z</time>
      </trkpt>
      <trkpt lat="47.4722" lon="0.88256">
        <ele>63.200000762939</ele>
        <time>2015-12-30T14:22:44.000Z</time>
      </trkpt>
      <trkpt lat="47.4722" lon="0.88256">
        <ele>63.200000762939</ele>
        <time>2015-12-30T14:22:46.000Z</time>
      </trkpt>
      <trkpt lat="47.4722" lon="0.88256">
        <ele>63.200000762939</ele>
        <time>2015-12-30T14:22:48.000Z</time>
      </trkpt>
      <trkpt lat="47.47146" lon="0.8824">
        <ele>62.200000762939</ele>
        <time>2015-12-30T14:22:52.000Z</time>
      </trkpt>
      <trkpt lat="47.47136" lon="0.88236">
        <ele>62</ele>
        <time>2015-12-30T14:22:54.000Z</time>
      </trkpt>
      <trkpt lat="47.47126" lon="0.88229">
        <ele>61.799999237061</ele>
        <time>2015-12-30T14:22:56.000Z</time>
      </trkpt>
      <trkpt lat="47.47115" lon="0.88224">
        <ele>61.799999237061</ele>
        <time>2015-12-30T14:22:58.000Z</time>
      </trkpt>
      <trkpt lat="47.47105" lon="0.88225">
        <ele>61.400001525879</ele>
        <time>2015-12-30T14:23:00.000Z</time>
      </trkpt>
      <trkpt lat="47.47095" lon="0.88221">
        <ele>61.400001525879</ele>
        <time>2015-12-30T14:23:02.000Z</time>
      </trkpt>
      <trkpt lat="47.47095" lon="0.88221">
        <ele>61.400001525879</ele>
        <time>2015-12-30T14:23:04.000Z</time>
      </trkpt>
      <trkpt lat="47.47095" lon="0.88221">
        <ele>61.400001525879</ele>
        <time>2015-12-30T14:23:07.000Z</time>
      </trkpt>
      <trkpt lat="47.47052" lon="0.88205">
        <ele>61.799999237061</ele>
        <time>2015-12-30T14:23:09.000Z</time>
      </trkpt>
      <trkpt lat="47.47041" lon="0.88204">
        <ele>62.200000762939</ele>
        <time>2015-12-30T14:23:11.000Z</time>
      </trkpt>
      <trkpt lat="47.47028" lon="0.88202">
        <ele>62.799999237061</ele>
        <time>2015-12-30T14:23:13.000Z</time>
      </trkpt>
      <trkpt lat="47.47028" lon="0.88202">
        <ele>62.799999237061</ele>
        <time>2015-12-30T14:23:15.000Z</time>
      </trkpt>
      <trkpt lat="47.46985" lon="0.88185">
        <ele>63.400001525879</ele>
        <time>2015-12-30T14:23:21.000Z</time>
      </trkpt>
      <trkpt lat="47.46973" lon="0.88179">
        <ele>63.200000762939</ele>
        <time>2015-12-30T14:23:23.000Z</time>
      </trkpt>
      <trkpt lat="47.46973" lon="0.88179">
        <ele>63.200000762939</ele>
        <time>2015-12-30T14:23:25.000Z</time>
      </trkpt>
      <trkpt lat="47.46973" lon="0.88179">
        <ele>63.200000762939</ele>
        <time>2015-12-30T14:23:27.000Z</time>
      </trkpt>
      <trkpt lat="47.46973" lon="0.88179">
        <ele>63.200000762939</ele>
        <time>2015-12-30T14:23:29.000Z</time>
      </trkpt>
      <trkpt lat="47.46973" lon="0.88179">
        <ele>63.200000762939</ele>
        <time>2015-12-30T14:23:31.000Z</time>
      </trkpt>
      <trkpt lat="47.46911" lon="0.88164">
        <ele>62.599998474121</ele>
        <time>2015-12-30T14:23:36.000Z</time>
      </trkpt>
      <trkpt lat="47.46901" lon="0.88164">
        <ele>62.599998474121</ele>
        <time>2015-12-30T14:23:38.000Z</time>
      </trkpt>
      <trkpt lat="47.46889" lon="0.88161">
        <ele>62.599998474121</ele>
        <time>2015-12-30T14:23:40.000Z</time>
      </trkpt>
      <trkpt lat="47.46878" lon="0.88161">
        <ele>62.599998474121</ele>
        <time>2015-12-30T14:23:42.000Z</time>
      </trkpt>
      <trkpt lat="47.46867" lon="0.88158">
        <ele>62.400001525879</ele>
        <time>2015-12-30T14:23:44.000Z</time>
      </trkpt>
      <trkpt lat="47.46856" lon="0.88154">
        <ele>62.400001525879</ele>
        <time>2015-12-30T14:23:46.000Z</time>
      </trkpt>
      <trkpt lat="47.46844" lon="0.8815">
        <ele>62.200000762939</ele>
        <time>2015-12-30T14:23:48.000Z</time>
      </trkpt>
      <trkpt lat="47.46833" lon="0.88147">
        <ele>62</ele>
        <time>2015-12-30T14:23:50.000Z</time>
      </trkpt>
      <trkpt lat="47.46822" lon="0.88146">
        <ele>61.799999237061</ele>
        <time>2015-12-30T14:23:52.000Z</time>
      </trkpt>
      <trkpt lat="47.46811" lon="0.88143">
        <ele>61.599998474121</ele>
        <time>2015-12-30T14:23:54.000Z</time>
      </trkpt>
      <trkpt lat="47.46799" lon="0.8814">
        <ele>61.599998474121</ele>
        <time>2015-12-30T14:23:56.000Z</time>
      </trkpt>
      <trkpt lat="47.4679" lon="0.88137">
        <ele>61.599998474121</ele>
        <time>2015-12-30T14:23:58.000Z</time>
      </trkpt>
      <trkpt lat="47.46777" lon="0.88132">
        <ele>61.599998474121</ele>
        <time>2015-12-30T14:24:00.000Z</time>
      </trkpt>
      <trkpt lat="47.46766" lon="0.88129">
        <ele>61.799999237061</ele>
        <time>2015-12-30T14:24:02.000Z</time>
      </trkpt>
      <trkpt lat="47.46755" lon="0.88125">
        <ele>61.799999237061</ele>
        <time>2015-12-30T14:24:04.000Z</time>
      </trkpt>
      <trkpt lat="47.46743" lon="0.8812">
        <ele>61.799999237061</ele>
        <time>2015-12-30T14:24:06.000Z</time>
      </trkpt>
      <trkpt lat="47.46732" lon="0.88115">
        <ele>61.599998474121</ele>
        <time>2015-12-30T14:24:08.000Z</time>
      </trkpt>
      <trkpt lat="47.4672" lon="0.88111">
        <ele>61.400001525879</ele>
        <time>2015-12-30T14:24:10.000Z</time>
      </trkpt>
      <trkpt lat="47.46709" lon="0.88108">
        <ele>61.400001525879</ele>
        <time>2015-12-30T14:24:12.000Z</time>
      </trkpt>
      <trkpt lat="47.46697" lon="0.88106">
        <ele>61.400001525879</ele>
        <time>2015-12-30T14:24:14.000Z</time>
      </trkpt>
      <trkpt lat="47.46688" lon="0.88104">
        <ele>61.400001525879</ele>
        <time>2015-12-30T14:24:16.000Z</time>
      </trkpt>
      <trkpt lat="47.46679" lon="0.88103">
        <ele>61.400001525879</ele>
        <time>2015-12-30T14:24:18.000Z</time>
      </trkpt>
      <trkpt lat="47.46679" lon="0.88103">
        <ele>61.400001525879</ele>
        <time>2015-12-30T14:24:20.000Z</time>
      </trkpt>
      <trkpt lat="47.46679" lon="0.88103">
        <ele>61.400001525879</ele>
        <time>2015-12-30T14:24:22.000Z</time>
      </trkpt>
      <trkpt lat="47.46679" lon="0.88103">
        <ele>61.400001525879</ele>
        <time>2015-12-30T14:24:24.000Z</time>
      </trkpt>
      <trkpt lat="47.46614" lon="0.88083">
        <ele>62.400001525879</ele>
        <time>2015-12-30T14:24:30.000Z</time>
      </trkpt>
      <trkpt lat="47.46603" lon="0.88078">
        <ele>62.400001525879</ele>
        <time>2015-12-30T14:24:32.000Z</time>
      </trkpt>
      <trkpt lat="47.46594" lon="0.88075">
        <ele>62.599998474121</ele>
        <time>2015-12-30T14:24:34.000Z</time>
      </trkpt>
      <trkpt lat="47.46582" lon="0.88074">
        <ele>62.799999237061</ele>
        <time>2015-12-30T14:24:36.000Z</time>
      </trkpt>
      <trkpt lat="47.46571" lon="0.88071">
        <ele>63</ele>
        <time>2015-12-30T14:24:38.000Z</time>
      </trkpt>
      <trkpt lat="47.46562" lon="0.88066">
        <ele>63.200000762939</ele>
        <time>2015-12-30T14:24:40.000Z</time>
      </trkpt>
      <trkpt lat="47.46562" lon="0.88066">
        <ele>63.200000762939</ele>
        <time>2015-12-30T14:24:42.000Z</time>
      </trkpt>
      <trkpt lat="47.46562" lon="0.88066">
        <ele>63.200000762939</ele>
        <time>2015-12-30T14:24:44.000Z</time>
      </trkpt>
      <trkpt lat="47.46509" lon="0.88051">
        <ele>63.799999237061</ele>
        <time>2015-12-30T14:24:50.000Z</time>
      </trkpt>
      <trkpt lat="47.46499" lon="0.88048">
        <ele>63.799999237061</ele>
        <time>2015-12-30T14:24:52.000Z</time>
      </trkpt>
      <trkpt lat="47.46489" lon="0.88045">
        <ele>63.799999237061</ele>
        <time>2015-12-30T14:24:54.000Z</time>
      </trkpt>
      <trkpt lat="47.46479" lon="0.88041">
        <ele>63.599998474121</ele>
        <time>2015-12-30T14:24:56.000Z</time>
      </trkpt>
      <trkpt lat="47.46457" lon="0.88036">
        <ele>63.799999237061</ele>
        <time>2015-12-30T14:25:00.000Z</time>
      </trkpt>
      <trkpt lat="47.46445" lon="0.88031">
        <ele>63.799999237061</ele>
        <time>2015-12-30T14:25:02.000Z</time>
      </trkpt>
      <trkpt lat="47.46434" lon="0.88028">
        <ele>63.799999237061</ele>
        <time>2015-12-30T14:25:04.000Z</time>
      </trkpt>
      <trkpt lat="47.46421" lon="0.88024">
        <ele>63.799999237061</ele>
        <time>2015-12-30T14:25:06.000Z</time>
      </trkpt>
      <trkpt lat="47.46412" lon="0.88022">
        <ele>63.799999237061</ele>
        <time>2015-12-30T14:25:08.000Z</time>
      </trkpt>
      <trkpt lat="47.464" lon="0.8802">
        <ele>63.599998474121</ele>
        <time>2015-12-30T14:25:10.000Z</time>
      </trkpt>
      <trkpt lat="47.46391" lon="0.88017">
        <ele>63.599998474121</ele>
        <time>2015-12-30T14:25:12.000Z</time>
      </trkpt>
      <trkpt lat="47.46379" lon="0.88012">
        <ele>63.400001525879</ele>
        <time>2015-12-30T14:25:14.000Z</time>
      </trkpt>
      <trkpt lat="47.46368" lon="0.88011">
        <ele>63.400001525879</ele>
        <time>2015-12-30T14:25:16.000Z</time>
      </trkpt>
      <trkpt lat="47.46358" lon="0.88011">
        <ele>63.400001525879</ele>
        <time>2015-12-30T14:25:18.000Z</time>
      </trkpt>
      <trkpt lat="47.46347" lon="0.88007">
        <ele>63.200000762939</ele>
        <time>2015-12-30T14:25:20.000Z</time>
      </trkpt>
      <trkpt lat="47.46335" lon="0.88">
        <ele>63</ele>
        <time>2015-12-30T14:25:22.000Z</time>
      </trkpt>
      <trkpt lat="47.46324" lon="0.87998">
        <ele>62.599998474121</ele>
        <time>2015-12-30T14:25:24.000Z</time>
      </trkpt>
      <trkpt lat="47.46313" lon="0.87994">
        <ele>62.200000762939</ele>
        <time>2015-12-30T14:25:26.000Z</time>
      </trkpt>
      <trkpt lat="47.46303" lon="0.87992">
        <ele>62</ele>
        <time>2015-12-30T14:25:28.000Z</time>
      </trkpt>
      <trkpt lat="47.46292" lon="0.87988">
        <ele>61.599998474121</ele>
        <time>2015-12-30T14:25:30.000Z</time>
      </trkpt>
      <trkpt lat="47.46281" lon="0.87984">
        <ele>61.200000762939</ele>
        <time>2015-12-30T14:25:32.000Z</time>
      </trkpt>
      <trkpt lat="47.46281" lon="0.87984">
        <ele>61.200000762939</ele>
        <time>2015-12-30T14:25:34.000Z</time>
      </trkpt>
      <trkpt lat="47.46281" lon="0.87984">
        <ele>61.200000762939</ele>
        <time>2015-12-30T14:25:36.000Z</time>
      </trkpt>
      <trkpt lat="47.46265" lon="0.8798">
        <ele>60.599998474121</ele>
        <time>2015-12-30T14:25:38.000Z</time>
      </trkpt>
      <trkpt lat="47.46251" lon="0.87976">
        <ele>60.200000762939</ele>
        <time>2015-12-30T14:25:40.000Z</time>
      </trkpt>
      <trkpt lat="47.46239" lon="0.87972">
        <ele>60.200000762939</ele>
        <time>2015-12-30T14:25:42.000Z</time>
      </trkpt>
      <trkpt lat="47.46228" lon="0.8797">
        <ele>60.400001525879</ele>
        <time>2015-12-30T14:25:44.000Z</time>
      </trkpt>
      <trkpt lat="47.46217" lon="0.87967">
        <ele>60.400001525879</ele>
        <time>2015-12-30T14:25:46.000Z</time>
      </trkpt>
      <trkpt lat="47.46217" lon="0.87967">
        <ele>60.400001525879</ele>
        <time>2015-12-30T14:25:48.000Z</time>
      </trkpt>
      <trkpt lat="47.46217" lon="0.87967">
        <ele>60.400001525879</ele>
        <time>2015-12-30T14:25:50.000Z</time>
      </trkpt>
      <trkpt lat="47.46217" lon="0.87967">
        <ele>60.400001525879</ele>
        <time>2015-12-30T14:25:52.000Z</time>
      </trkpt>
      <trkpt lat="47.46217" lon="0.87967">
        <ele>60.400001525879</ele>
        <time>2015-12-30T14:25:54.000Z</time>
      </trkpt>
      <trkpt lat="47.46217" lon="0.87967">
        <ele>60.400001525879</ele>
        <time>2015-12-30T14:25:56.000Z</time>
      </trkpt>
      <trkpt lat="47.46217" lon="0.87967">
        <ele>60.400001525879</ele>
        <time>2015-12-30T14:25:58.000Z</time>
      </trkpt>
      <trkpt lat="47.46217" lon="0.87967">
        <ele>60.400001525879</ele>
        <time>2015-12-30T14:26:00.000Z</time>
      </trkpt>
      <trkpt lat="47.46113" lon="0.87936">
        <ele>60.799999237061</ele>
        <time>2015-12-30T14:26:06.000Z</time>
      </trkpt>
      <trkpt lat="47.46104" lon="0.87933">
        <ele>60.799999237061</ele>
        <time>2015-12-30T14:26:08.000Z</time>
      </trkpt>
      <trkpt lat="47.46094" lon="0.87932">
        <ele>60.599998474121</ele>
        <time>2015-12-30T14:26:10.000Z</time>
      </trkpt>
      <trkpt lat="47.46083" lon="0.87928">
        <ele>60.599998474121</ele>
        <time>2015-12-30T14:26:12.000Z</time>
      </trkpt>
      <trkpt lat="47.46073" lon="0.87926">
        <ele>60.599998474121</ele>
        <time>2015-12-30T14:26:14.000Z</time>
      </trkpt>
      <trkpt lat="47.46054" lon="0.87919">
        <ele>60.599998474121</ele>
        <time>2015-12-30T14:26:18.000Z</time>
      </trkpt>
      <trkpt lat="47.46043" lon="0.87916">
        <ele>60.599998474121</ele>
        <time>2015-12-30T14:26:20.000Z</time>
      </trkpt>
      <trkpt lat="47.46034" lon="0.87912">
        <ele>60.799999237061</ele>
        <time>2015-12-30T14:26:22.000Z</time>
      </trkpt>
      <trkpt lat="47.46034" lon="0.87912">
        <ele>60.799999237061</ele>
        <time>2015-12-30T14:26:24.000Z</time>
      </trkpt>
      <trkpt lat="47.46034" lon="0.87912">
        <ele>60.799999237061</ele>
        <time>2015-12-30T14:26:26.000Z</time>
      </trkpt>
      <trkpt lat="47.45984" lon="0.87894">
        <ele>60.599998474121</ele>
        <time>2015-12-30T14:26:32.000Z</time>
      </trkpt>
      <trkpt lat="47.45973" lon="0.87892">
        <ele>60.599998474121</ele>
        <time>2015-12-30T14:26:34.000Z</time>
      </trkpt>
      <trkpt lat="47.45962" lon="0.87888">
        <ele>60.599998474121</ele>
        <time>2015-12-30T14:26:36.000Z</time>
      </trkpt>
      <trkpt lat="47.45951" lon="0.87885">
        <ele>60.400001525879</ele>
        <time>2015-12-30T14:26:38.000Z</time>
      </trkpt>
      <trkpt lat="47.45941" lon="0.87885">
        <ele>60.400001525879</ele>
        <time>2015-12-30T14:26:40.000Z</time>
      </trkpt>
      <trkpt lat="47.45941" lon="0.87885">
        <ele>60.400001525879</ele>
        <time>2015-12-30T14:26:42.000Z</time>
      </trkpt>
      <trkpt lat="47.45941" lon="0.87885">
        <ele>60.400001525879</ele>
        <time>2015-12-30T14:26:44.000Z</time>
      </trkpt>
      <trkpt lat="47.45941" lon="0.87885">
        <ele>60.400001525879</ele>
        <time>2015-12-30T14:26:46.000Z</time>
      </trkpt>
      <trkpt lat="47.45941" lon="0.87885">
        <ele>60.400001525879</ele>
        <time>2015-12-30T14:26:54.000Z</time>
      </trkpt>
      <trkpt lat="47.45861" lon="0.87864">
        <ele>60.400001525879</ele>
        <time>2015-12-30T14:26:56.000Z</time>
      </trkpt>
      <trkpt lat="47.4585" lon="0.8786">
        <ele>60.400001525879</ele>
        <time>2015-12-30T14:26:58.000Z</time>
      </trkpt>
      <trkpt lat="47.4584" lon="0.87859">
        <ele>60.400001525879</ele>
        <time>2015-12-30T14:27:00.000Z</time>
      </trkpt>
      <trkpt lat="47.45829" lon="0.87856">
        <ele>60.599998474121</ele>
        <time>2015-12-30T14:27:02.000Z</time>
      </trkpt>
      <trkpt lat="47.45819" lon="0.8785">
        <ele>61.200000762939</ele>
        <time>2015-12-30T14:27:04.000Z</time>
      </trkpt>
      <trkpt lat="47.45819" lon="0.8785">
        <ele>61.200000762939</ele>
        <time>2015-12-30T14:27:06.000Z</time>
      </trkpt>
      <trkpt lat="47.45819" lon="0.8785">
        <ele>61.200000762939</ele>
        <time>2015-12-30T14:27:08.000Z</time>
      </trkpt>
      <trkpt lat="47.45819" lon="0.8785">
        <ele>61.200000762939</ele>
        <time>2015-12-30T14:27:10.000Z</time>
      </trkpt>
      <trkpt lat="47.45768" lon="0.87841">
        <ele>63.200000762939</ele>
        <time>2015-12-30T14:27:14.000Z</time>
      </trkpt>
      <trkpt lat="47.45757" lon="0.87836">
        <ele>63.799999237061</ele>
        <time>2015-12-30T14:27:16.000Z</time>
      </trkpt>
      <trkpt lat="47.45757" lon="0.87836">
        <ele>63.799999237061</ele>
        <time>2015-12-30T14:27:18.000Z</time>
      </trkpt>
      <trkpt lat="47.45757" lon="0.87836">
        <ele>63.799999237061</ele>
        <time>2015-12-30T14:27:20.000Z</time>
      </trkpt>
      <trkpt lat="47.45757" lon="0.87836">
        <ele>63.799999237061</ele>
        <time>2015-12-30T14:27:22.000Z</time>
      </trkpt>
      <trkpt lat="47.45757" lon="0.87836">
        <ele>63.799999237061</ele>
        <time>2015-12-30T14:27:25.000Z</time>
      </trkpt>
      <trkpt lat="47.45757" lon="0.87836">
        <ele>63.799999237061</ele>
        <time>2015-12-30T14:27:27.000Z</time>
      </trkpt>
      <trkpt lat="47.45757" lon="0.87836">
        <ele>63.799999237061</ele>
        <time>2015-12-30T14:27:29.000Z</time>
      </trkpt>
      <trkpt lat="47.45757" lon="0.87836">
        <ele>63.799999237061</ele>
        <time>2015-12-30T14:27:31.000Z</time>
      </trkpt>
      <trkpt lat="47.45757" lon="0.87836">
        <ele>63.799999237061</ele>
        <time>2015-12-30T14:27:33.000Z</time>
      </trkpt>
      <trkpt lat="47.45757" lon="0.87836">
        <ele>63.799999237061</ele>
        <time>2015-12-30T14:27:35.000Z</time>
      </trkpt>
      <trkpt lat="47.45707" lon="0.8782">
        <ele>63</ele>
        <time>2015-12-30T14:27:39.000Z</time>
      </trkpt>
      <trkpt lat="47.45676" lon="0.8781">
        <ele>62.200000762939</ele>
        <time>2015-12-30T14:27:41.000Z</time>
      </trkpt>
      <trkpt lat="47.45657" lon="0.87804">
        <ele>62</ele>
        <time>2015-12-30T14:27:43.000Z</time>
      </trkpt>
      <trkpt lat="47.45642" lon="0.87798">
        <ele>62</ele>
        <time>2015-12-30T14:27:45.000Z</time>
      </trkpt>
      <trkpt lat="47.45631" lon="0.87795">
        <ele>62</ele>
        <time>2015-12-30T14:27:47.000Z</time>
      </trkpt>
      <trkpt lat="47.45631" lon="0.87795">
        <ele>62</ele>
        <time>2015-12-30T14:27:49.000Z</time>
      </trkpt>
      <trkpt lat="47.45577" lon="0.87774">
        <ele>62</ele>
        <time>2015-12-30T14:27:55.000Z</time>
      </trkpt>
      <trkpt lat="47.45567" lon="0.87767">
        <ele>62</ele>
        <time>2015-12-30T14:27:57.000Z</time>
      </trkpt>
      <trkpt lat="47.45557" lon="0.87758">
        <ele>62.200000762939</ele>
        <time>2015-12-30T14:27:59.000Z</time>
      </trkpt>
      <trkpt lat="47.45546" lon="0.87753">
        <ele>62</ele>
        <time>2015-12-30T14:28:01.000Z</time>
      </trkpt>
      <trkpt lat="47.45534" lon="0.87752">
        <ele>61.799999237061</ele>
        <time>2015-12-30T14:28:03.000Z</time>
      </trkpt>
      <trkpt lat="47.45523" lon="0.87745">
        <ele>61.799999237061</ele>
        <time>2015-12-30T14:28:05.000Z</time>
      </trkpt>
      <trkpt lat="47.45512" lon="0.87739">
        <ele>61.599998474121</ele>
        <time>2015-12-30T14:28:07.000Z</time>
      </trkpt>
      <trkpt lat="47.45502" lon="0.87733">
        <ele>61.599998474121</ele>
        <time>2015-12-30T14:28:09.000Z</time>
      </trkpt>
      <trkpt lat="47.45492" lon="0.87729">
        <ele>61.400001525879</ele>
        <time>2015-12-30T14:28:11.000Z</time>
      </trkpt>
      <trkpt lat="47.45474" lon="0.87717">
        <ele>61</ele>
        <time>2015-12-30T14:28:15.000Z</time>
      </trkpt>
      <trkpt lat="47.45464" lon="0.87713">
        <ele>60.599998474121</ele>
        <time>2015-12-30T14:28:17.000Z</time>
      </trkpt>
      <trkpt lat="47.45464" lon="0.87713">
        <ele>60.599998474121</ele>
        <time>2015-12-30T14:28:19.000Z</time>
      </trkpt>
      <trkpt lat="47.45447" lon="0.87701">
        <ele>60.200000762939</ele>
        <time>2015-12-30T14:28:21.000Z</time>
      </trkpt>
      <trkpt lat="47.45447" lon="0.87701">
        <ele>60.200000762939</ele>
        <time>2015-12-30T14:28:23.000Z</time>
      </trkpt>
      <trkpt lat="47.45447" lon="0.87701">
        <ele>60.200000762939</ele>
        <time>2015-12-30T14:28:25.000Z</time>
      </trkpt>
      <trkpt lat="47.45447" lon="0.87701">
        <ele>60.200000762939</ele>
        <time>2015-12-30T14:28:27.000Z</time>
      </trkpt>
      <trkpt lat="47.45447" lon="0.87701">
        <ele>60.200000762939</ele>
        <time>2015-12-30T14:28:29.000Z</time>
      </trkpt>
      <trkpt lat="47.45447" lon="0.87701">
        <ele>60.200000762939</ele>
        <time>2015-12-30T14:28:31.000Z</time>
      </trkpt>
      <trkpt lat="47.45377" lon="0.87662">
        <ele>59.799999237061</ele>
        <time>2015-12-30T14:28:35.000Z</time>
      </trkpt>
      <trkpt lat="47.45368" lon="0.87654">
        <ele>60</ele>
        <time>2015-12-30T14:28:37.000Z</time>
      </trkpt>
      <trkpt lat="47.45359" lon="0.87648">
        <ele>60</ele>
        <time>2015-12-30T14:28:39.000Z</time>
      </trkpt>
      <trkpt lat="47.45359" lon="0.87648">
        <ele>60</ele>
        <time>2015-12-30T14:28:41.000Z</time>
      </trkpt>
      <trkpt lat="47.45343" lon="0.87634">
        <ele>60</ele>
        <time>2015-12-30T14:28:43.000Z</time>
      </trkpt>
      <trkpt lat="47.45324" lon="0.87625">
        <ele>60</ele>
        <time>2015-12-30T14:28:47.000Z</time>
      </trkpt>
      <trkpt lat="47.45314" lon="0.87617">
        <ele>60</ele>
        <time>2015-12-30T14:28:49.000Z</time>
      </trkpt>
      <trkpt lat="47.45305" lon="0.8761">
        <ele>60</ele>
        <time>2015-12-30T14:28:51.000Z</time>
      </trkpt>
      <trkpt lat="47.45295" lon="0.87599">
        <ele>60</ele>
        <time>2015-12-30T14:28:53.000Z</time>
      </trkpt>
      <trkpt lat="47.45284" lon="0.8759">
        <ele>60</ele>
        <time>2015-12-30T14:28:55.000Z</time>
      </trkpt>
      <trkpt lat="47.45274" lon="0.8758">
        <ele>60</ele>
        <time>2015-12-30T14:28:57.000Z</time>
      </trkpt>
      <trkpt lat="47.45263" lon="0.8757">
        <ele>60</ele>
        <time>2015-12-30T14:28:59.000Z</time>
      </trkpt>
      <trkpt lat="47.45254" lon="0.8756">
        <ele>60</ele>
        <time>2015-12-30T14:29:01.000Z</time>
      </trkpt>
      <trkpt lat="47.45245" lon="0.87549">
        <ele>59.799999237061</ele>
        <time>2015-12-30T14:29:03.000Z</time>
      </trkpt>
      <trkpt lat="47.45234" lon="0.8754">
        <ele>59.400001525879</ele>
        <time>2015-12-30T14:29:05.000Z</time>
      </trkpt>
      <trkpt lat="47.45226" lon="0.87532">
        <ele>59.200000762939</ele>
        <time>2015-12-30T14:29:07.000Z</time>
      </trkpt>
      <trkpt lat="47.45217" lon="0.87526">
        <ele>58.799999237061</ele>
        <time>2015-12-30T14:29:09.000Z</time>
      </trkpt>
      <trkpt lat="47.45217" lon="0.87526">
        <ele>58.799999237061</ele>
        <time>2015-12-30T14:29:11.000Z</time>
      </trkpt>
      <trkpt lat="47.45217" lon="0.87526">
        <ele>58.799999237061</ele>
        <time>2015-12-30T14:29:13.000Z</time>
      </trkpt>
      <trkpt lat="47.45217" lon="0.87526">
        <ele>58.799999237061</ele>
        <time>2015-12-30T14:29:15.000Z</time>
      </trkpt>
      <trkpt lat="47.45217" lon="0.87526">
        <ele>58.799999237061</ele>
        <time>2015-12-30T14:29:17.000Z</time>
      </trkpt>
      <trkpt lat="47.45217" lon="0.87526">
        <ele>58.799999237061</ele>
        <time>2015-12-30T14:29:19.000Z</time>
      </trkpt>
      <trkpt lat="47.45217" lon="0.87526">
        <ele>58.799999237061</ele>
        <time>2015-12-30T14:29:21.000Z</time>
      </trkpt>
      <trkpt lat="47.45217" lon="0.87526">
        <ele>58.799999237061</ele>
        <time>2015-12-30T14:29:23.000Z</time>
      </trkpt>
      <trkpt lat="47.45217" lon="0.87526">
        <ele>58.799999237061</ele>
        <time>2015-12-30T14:29:25.000Z</time>
      </trkpt>
      <trkpt lat="47.45217" lon="0.87526">
        <ele>58.799999237061</ele>
        <time>2015-12-30T14:29:27.000Z</time>
      </trkpt>
      <trkpt lat="47.45217" lon="0.87526">
        <ele>58.799999237061</ele>
        <time>2015-12-30T14:29:29.000Z</time>
      </trkpt>
      <trkpt lat="47.45217" lon="0.87526">
        <ele>58.799999237061</ele>
        <time>2015-12-30T14:29:32.000Z</time>
      </trkpt>
      <trkpt lat="47.45217" lon="0.87526">
        <ele>58.799999237061</ele>
        <time>2015-12-30T14:29:34.000Z</time>
      </trkpt>
      <trkpt lat="47.45217" lon="0.87526">
        <ele>58.799999237061</ele>
        <time>2015-12-30T14:29:36.000Z</time>
      </trkpt>
      <trkpt lat="47.45217" lon="0.87526">
        <ele>58.799999237061</ele>
        <time>2015-12-30T14:29:38.000Z</time>
      </trkpt>
      <trkpt lat="47.45217" lon="0.87526">
        <ele>58.799999237061</ele>
        <time>2015-12-30T14:29:40.000Z</time>
      </trkpt>
      <trkpt lat="47.45174" lon="0.8748">
        <ele>57.400001525879</ele>
        <time>2015-12-30T14:32:02.000Z</time>
      </trkpt>
      <trkpt lat="47.4515" lon="0.87454">
        <ele>57.599998474121</ele>
        <time>2015-12-30T14:32:04.000Z</time>
      </trkpt>
      <trkpt lat="47.45135" lon="0.87438">
        <ele>58.200000762939</ele>
        <time>2015-12-30T14:32:06.000Z</time>
      </trkpt>
      <trkpt lat="47.45124" lon="0.87428">
        <ele>58.599998474121</ele>
        <time>2015-12-30T14:32:08.000Z</time>
      </trkpt>
      <trkpt lat="47.45116" lon="0.87419">
        <ele>58.799999237061</ele>
        <time>2015-12-30T14:32:10.000Z</time>
      </trkpt>
      <trkpt lat="47.45102" lon="0.87405">
        <ele>59.400001525879</ele>
        <time>2015-12-30T14:32:12.000Z</time>
      </trkpt>
      <trkpt lat="47.4509" lon="0.87392">
        <ele>59.799999237061</ele>
        <time>2015-12-30T14:32:16.000Z</time>
      </trkpt>
      <trkpt lat="47.45079" lon="0.87377">
        <ele>60</ele>
        <time>2015-12-30T14:32:20.000Z</time>
      </trkpt>
      <trkpt lat="47.45079" lon="0.87377">
        <ele>60</ele>
        <time>2015-12-30T14:32:22.000Z</time>
      </trkpt>
      <trkpt lat="47.45079" lon="0.87377">
        <ele>60</ele>
        <time>2015-12-30T14:32:24.000Z</time>
      </trkpt>
      <trkpt lat="47.45079" lon="0.87377">
        <ele>60</ele>
        <time>2015-12-30T14:32:26.000Z</time>
      </trkpt>
      <trkpt lat="47.45079" lon="0.87377">
        <ele>60</ele>
        <time>2015-12-30T14:32:28.000Z</time>
      </trkpt>
      <trkpt lat="47.45079" lon="0.87377">
        <ele>60</ele>
        <time>2015-12-30T14:32:30.000Z</time>
      </trkpt>
      <trkpt lat="47.45047" lon="0.87336">
        <ele>59.599998474121</ele>
        <time>2015-12-30T14:32:32.000Z</time>
      </trkpt>
      <trkpt lat="47.4504" lon="0.87327">
        <ele>59.400001525879</ele>
        <time>2015-12-30T14:32:34.000Z</time>
      </trkpt>
      <trkpt lat="47.45033" lon="0.87317">
        <ele>59.400001525879</ele>
        <time>2015-12-30T14:32:36.000Z</time>
      </trkpt>
      <trkpt lat="47.45021" lon="0.873">
        <ele>59.200000762939</ele>
        <time>2015-12-30T14:32:40.000Z</time>
      </trkpt>
      <trkpt lat="47.45014" lon="0.8729">
        <ele>59.200000762939</ele>
        <time>2015-12-30T14:32:42.000Z</time>
      </trkpt>
      <trkpt lat="47.45002" lon="0.87272">
        <ele>59</ele>
        <time>2015-12-30T14:32:46.000Z</time>
      </trkpt>
      <trkpt lat="47.44995" lon="0.87261">
        <ele>59</ele>
        <time>2015-12-30T14:32:48.000Z</time>
      </trkpt>
      <trkpt lat="47.44986" lon="0.87252">
        <ele>58.799999237061</ele>
        <time>2015-12-30T14:32:50.000Z</time>
      </trkpt>
      <trkpt lat="47.44986" lon="0.87252">
        <ele>58.799999237061</ele>
        <time>2015-12-30T14:32:52.000Z</time>
      </trkpt>
      <trkpt lat="47.44986" lon="0.87252">
        <ele>58.799999237061</ele>
        <time>2015-12-30T14:32:54.000Z</time>
      </trkpt>
      <trkpt lat="47.44986" lon="0.87252">
        <ele>58.799999237061</ele>
        <time>2015-12-30T14:32:56.000Z</time>
      </trkpt>
      <trkpt lat="47.44986" lon="0.87252">
        <ele>58.799999237061</ele>
        <time>2015-12-30T14:32:58.000Z</time>
      </trkpt>
      <trkpt lat="47.44942" lon="0.87196">
        <ele>58</ele>
        <time>2015-12-30T14:33:04.000Z</time>
      </trkpt>
      <trkpt lat="47.44942" lon="0.87196">
        <ele>58</ele>
        <time>2015-12-30T14:33:06.000Z</time>
      </trkpt>
      <trkpt lat="47.44942" lon="0.87196">
        <ele>58</ele>
        <time>2015-12-30T14:33:08.000Z</time>
      </trkpt>
      <trkpt lat="47.44942" lon="0.87196">
        <ele>58</ele>
        <time>2015-12-30T14:33:10.000Z</time>
      </trkpt>
      <trkpt lat="47.44942" lon="0.87196">
        <ele>58</ele>
        <time>2015-12-30T14:33:12.000Z</time>
      </trkpt>
      <trkpt lat="47.44942" lon="0.87196">
        <ele>58</ele>
        <time>2015-12-30T14:33:14.000Z</time>
      </trkpt>
      <trkpt lat="47.44942" lon="0.87196">
        <ele>58</ele>
        <time>2015-12-30T14:33:16.000Z</time>
      </trkpt>
      <trkpt lat="47.44942" lon="0.87196">
        <ele>58</ele>
        <time>2015-12-30T14:33:18.000Z</time>
      </trkpt>
      <trkpt lat="47.44942" lon="0.87196">
        <ele>58</ele>
        <time>2015-12-30T14:33:20.000Z</time>
      </trkpt>
      <trkpt lat="47.44942" lon="0.87196">
        <ele>58</ele>
        <time>2015-12-30T14:33:22.000Z</time>
      </trkpt>
      <trkpt lat="47.44942" lon="0.87196">
        <ele>58</ele>
        <time>2015-12-30T14:33:24.000Z</time>
      </trkpt>
      <trkpt lat="47.44942" lon="0.87196">
        <ele>58</ele>
        <time>2015-12-30T14:33:26.000Z</time>
      </trkpt>
      <trkpt lat="47.44942" lon="0.87196">
        <ele>58</ele>
        <time>2015-12-30T14:33:28.000Z</time>
      </trkpt>
      <trkpt lat="47.44942" lon="0.87196">
        <ele>58</ele>
        <time>2015-12-30T14:33:30.000Z</time>
      </trkpt>
      <trkpt lat="47.44942" lon="0.87196">
        <ele>58</ele>
        <time>2015-12-30T14:33:36.000Z</time>
      </trkpt>
      <trkpt lat="47.44918" lon="0.87151">
        <ele>57.200000762939</ele>
        <time>2015-12-30T14:33:38.000Z</time>
      </trkpt>
      <trkpt lat="47.4491" lon="0.87131">
        <ele>57</ele>
        <time>2015-12-30T14:33:40.000Z</time>
      </trkpt>
      <trkpt lat="47.44909" lon="0.87124">
        <ele>57.200000762939</ele>
        <time>2015-12-30T14:33:42.000Z</time>
      </trkpt>
      <trkpt lat="47.44917" lon="0.87123">
        <ele>57.200000762939</ele>
        <time>2015-12-30T14:33:46.000Z</time>
      </trkpt>
      <trkpt lat="47.44925" lon="0.87121">
        <ele>57.599998474121</ele>
        <time>2015-12-30T14:33:48.000Z</time>
      </trkpt>
      <trkpt lat="47.44933" lon="0.87116">
        <ele>58.200000762939</ele>
        <time>2015-12-30T14:33:50.000Z</time>
      </trkpt>
      <trkpt lat="47.44941" lon="0.8711">
        <ele>58.599998474121</ele>
        <time>2015-12-30T14:33:52.000Z</time>
      </trkpt>
      <trkpt lat="47.44949" lon="0.87103">
        <ele>59</ele>
        <time>2015-12-30T14:33:54.000Z</time>
      </trkpt>
      <trkpt lat="47.44949" lon="0.87103">
        <ele>59</ele>
        <time>2015-12-30T14:33:56.000Z</time>
      </trkpt>
      <trkpt lat="47.44949" lon="0.87103">
        <ele>59</ele>
        <time>2015-12-30T14:33:58.000Z</time>
      </trkpt>
      <trkpt lat="47.44949" lon="0.87103">
        <ele>59</ele>
        <time>2015-12-30T14:34:00.000Z</time>
      </trkpt>
      <trkpt lat="47.44949" lon="0.87103">
        <ele>59</ele>
        <time>2015-12-30T14:34:02.000Z</time>
      </trkpt>
      <trkpt lat="47.44949" lon="0.87103">
        <ele>59</ele>
        <time>2015-12-30T14:34:04.000Z</time>
      </trkpt>
      <trkpt lat="47.44949" lon="0.87103">
        <ele>59</ele>
        <time>2015-12-30T14:34:06.000Z</time>
      </trkpt>
      <trkpt lat="47.44949" lon="0.87103">
        <ele>59</ele>
        <time>2015-12-30T14:34:08.000Z</time>
      </trkpt>
      <trkpt lat="47.44949" lon="0.87103">
        <ele>59</ele>
        <time>2015-12-30T14:34:10.000Z</time>
      </trkpt>
      <trkpt lat="47.44967" lon="0.87025">
        <ele>62.400001525879</ele>
        <time>2015-12-30T14:34:16.000Z</time>
      </trkpt>
      <trkpt lat="47.44965" lon="0.87005">
        <ele>62.400001525879</ele>
        <time>2015-12-30T14:34:20.000Z</time>
      </trkpt>
      <trkpt lat="47.44956" lon="0.86985">
        <ele>62</ele>
        <time>2015-12-30T14:34:24.000Z</time>
      </trkpt>
      <trkpt lat="47.44946" lon="0.86961">
        <ele>61.799999237061</ele>
        <time>2015-12-30T14:34:28.000Z</time>
      </trkpt>
      <trkpt lat="47.4494" lon="0.8695">
        <ele>61.799999237061</ele>
        <time>2015-12-30T14:34:30.000Z</time>
      </trkpt>
      <trkpt lat="47.44934" lon="0.86937">
        <ele>61.799999237061</ele>
        <time>2015-12-30T14:34:32.000Z</time>
      </trkpt>
      <trkpt lat="47.44928" lon="0.86926">
        <ele>61.799999237061</ele>
        <time>2015-12-30T14:34:34.000Z</time>
      </trkpt>
      <trkpt lat="47.44917" lon="0.86902">
        <ele>61.799999237061</ele>
        <time>2015-12-30T14:34:37.000Z</time>
      </trkpt>
      <trkpt lat="47.4491" lon="0.86889">
        <ele>61.599998474121</ele>
        <time>2015-12-30T14:34:39.000Z</time>
      </trkpt>
      <trkpt lat="47.44903" lon="0.86878">
        <ele>61.400001525879</ele>
        <time>2015-12-30T14:34:41.000Z</time>
      </trkpt>
      <trkpt lat="47.44896" lon="0.86867">
        <ele>61.400001525879</ele>
        <time>2015-12-30T14:34:43.000Z</time>
      </trkpt>
      <trkpt lat="47.44887" lon="0.86852">
        <ele>61.200000762939</ele>
        <time>2015-12-30T14:34:45.000Z</time>
      </trkpt>
      <trkpt lat="47.4488" lon="0.86838">
        <ele>61</ele>
        <time>2015-12-30T14:34:47.000Z</time>
      </trkpt>
      <trkpt lat="47.44872" lon="0.86827">
        <ele>60.799999237061</ele>
        <time>2015-12-30T14:34:49.000Z</time>
      </trkpt>
      <trkpt lat="47.44865" lon="0.86813">
        <ele>60.799999237061</ele>
        <time>2015-12-30T14:34:51.000Z</time>
      </trkpt>
      <trkpt lat="47.44859" lon="0.868">
        <ele>60.799999237061</ele>
        <time>2015-12-30T14:34:53.000Z</time>
      </trkpt>
      <trkpt lat="47.44852" lon="0.86786">
        <ele>60.599998474121</ele>
        <time>2015-12-30T14:34:55.000Z</time>
      </trkpt>
      <trkpt lat="47.44845" lon="0.86773">
        <ele>60.599998474121</ele>
        <time>2015-12-30T14:34:57.000Z</time>
      </trkpt>
      <trkpt lat="47.44839" lon="0.8676">
        <ele>60.400001525879</ele>
        <time>2015-12-30T14:34:59.000Z</time>
      </trkpt>
      <trkpt lat="47.44832" lon="0.86745">
        <ele>60.400001525879</ele>
        <time>2015-12-30T14:35:01.000Z</time>
      </trkpt>
      <trkpt lat="47.44827" lon="0.8673">
        <ele>60.799999237061</ele>
        <time>2015-12-30T14:35:03.000Z</time>
      </trkpt>
      <trkpt lat="47.44821" lon="0.86712">
        <ele>60.599998474121</ele>
        <time>2015-12-30T14:35:05.000Z</time>
      </trkpt>
      <trkpt lat="47.44816" lon="0.86694">
        <ele>60.799999237061</ele>
        <time>2015-12-30T14:35:07.000Z</time>
      </trkpt>
      <trkpt lat="47.4481" lon="0.86677">
        <ele>61</ele>
        <time>2015-12-30T14:35:09.000Z</time>
      </trkpt>
      <trkpt lat="47.44804" lon="0.86661">
        <ele>61.200000762939</ele>
        <time>2015-12-30T14:35:11.000Z</time>
      </trkpt>
      <trkpt lat="47.44797" lon="0.86648">
        <ele>61.200000762939</ele>
        <time>2015-12-30T14:35:13.000Z</time>
      </trkpt>
      <trkpt lat="47.4479" lon="0.86632">
        <ele>61.200000762939</ele>
        <time>2015-12-30T14:35:15.000Z</time>
      </trkpt>
      <trkpt lat="47.44782" lon="0.86621">
        <ele>61</ele>
        <time>2015-12-30T14:35:17.000Z</time>
      </trkpt>
      <trkpt lat="47.44773" lon="0.86611">
        <ele>60.799999237061</ele>
        <time>2015-12-30T14:35:19.000Z</time>
      </trkpt>
      <trkpt lat="47.44765" lon="0.86601">
        <ele>60.400001525879</ele>
        <time>2015-12-30T14:35:21.000Z</time>
      </trkpt>
      <trkpt lat="47.44756" lon="0.86593">
        <ele>60.200000762939</ele>
        <time>2015-12-30T14:35:23.000Z</time>
      </trkpt>
      <trkpt lat="47.44744" lon="0.86584">
        <ele>59.799999237061</ele>
        <time>2015-12-30T14:35:25.000Z</time>
      </trkpt>
      <trkpt lat="47.44744" lon="0.86584">
        <ele>59.799999237061</ele>
        <time>2015-12-30T14:35:27.000Z</time>
      </trkpt>
      <trkpt lat="47.44731" lon="0.86567">
        <ele>59.400001525879</ele>
        <time>2015-12-30T14:35:29.000Z</time>
      </trkpt>
      <trkpt lat="47.44726" lon="0.86553">
        <ele>59.799999237061</ele>
        <time>2015-12-30T14:35:31.000Z</time>
      </trkpt>
      <trkpt lat="47.44719" lon="0.86536">
        <ele>60.200000762939</ele>
        <time>2015-12-30T14:35:33.000Z</time>
      </trkpt>
      <trkpt lat="47.44713" lon="0.86522">
        <ele>60.400001525879</ele>
        <time>2015-12-30T14:35:35.000Z</time>
      </trkpt>
      <trkpt lat="47.44708" lon="0.86508">
        <ele>60.599998474121</ele>
        <time>2015-12-30T14:35:37.000Z</time>
      </trkpt>
      <trkpt lat="47.44703" lon="0.86494">
        <ele>60.799999237061</ele>
        <time>2015-12-30T14:35:39.000Z</time>
      </trkpt>
      <trkpt lat="47.44698" lon="0.8648">
        <ele>61</ele>
        <time>2015-12-30T14:35:41.000Z</time>
      </trkpt>
      <trkpt lat="47.44691" lon="0.86465">
        <ele>61</ele>
        <time>2015-12-30T14:35:43.000Z</time>
      </trkpt>
      <trkpt lat="47.44685" lon="0.86451">
        <ele>61</ele>
        <time>2015-12-30T14:35:45.000Z</time>
      </trkpt>
      <trkpt lat="47.44681" lon="0.86435">
        <ele>61</ele>
        <time>2015-12-30T14:35:47.000Z</time>
      </trkpt>
      <trkpt lat="47.44676" lon="0.86419">
        <ele>61</ele>
        <time>2015-12-30T14:35:49.000Z</time>
      </trkpt>
      <trkpt lat="47.44671" lon="0.86403">
        <ele>61</ele>
        <time>2015-12-30T14:35:51.000Z</time>
      </trkpt>
      <trkpt lat="47.44667" lon="0.86388">
        <ele>61</ele>
        <time>2015-12-30T14:35:53.000Z</time>
      </trkpt>
      <trkpt lat="47.44663" lon="0.86374">
        <ele>61</ele>
        <time>2015-12-30T14:35:55.000Z</time>
      </trkpt>
      <trkpt lat="47.44659" lon="0.86359">
        <ele>61</ele>
        <time>2015-12-30T14:35:57.000Z</time>
      </trkpt>
      <trkpt lat="47.44659" lon="0.86359">
        <ele>61</ele>
        <time>2015-12-30T14:35:59.000Z</time>
      </trkpt>
      <trkpt lat="47.44659" lon="0.86359">
        <ele>61</ele>
        <time>2015-12-30T14:36:01.000Z</time>
      </trkpt>
      <trkpt lat="47.44659" lon="0.86359">
        <ele>61</ele>
        <time>2015-12-30T14:36:03.000Z</time>
      </trkpt>
      <trkpt lat="47.44659" lon="0.86359">
        <ele>61</ele>
        <time>2015-12-30T14:36:05.000Z</time>
      </trkpt>
      <trkpt lat="47.44659" lon="0.86359">
        <ele>61</ele>
        <time>2015-12-30T14:36:07.000Z</time>
      </trkpt>
      <trkpt lat="47.44659" lon="0.86359">
        <ele>61</ele>
        <time>2015-12-30T14:36:09.000Z</time>
      </trkpt>
      <trkpt lat="47.44659" lon="0.86359">
        <ele>61</ele>
        <time>2015-12-30T14:36:11.000Z</time>
      </trkpt>
      <trkpt lat="47.44621" lon="0.86231">
        <ele>61.400001525879</ele>
        <time>2015-12-30T14:36:15.000Z</time>
      </trkpt>
      <trkpt lat="47.44614" lon="0.86216">
        <ele>61.400001525879</ele>
        <time>2015-12-30T14:36:17.000Z</time>
      </trkpt>
      <trkpt lat="47.44607" lon="0.86205">
        <ele>61.599998474121</ele>
        <time>2015-12-30T14:36:19.000Z</time>
      </trkpt>
      <trkpt lat="47.446" lon="0.86192">
        <ele>61.599998474121</ele>
        <time>2015-12-30T14:36:21.000Z</time>
      </trkpt>
      <trkpt lat="47.44592" lon="0.8618">
        <ele>61.599998474121</ele>
        <time>2015-12-30T14:36:23.000Z</time>
      </trkpt>
      <trkpt lat="47.44584" lon="0.86168">
        <ele>61.599998474121</ele>
        <time>2015-12-30T14:36:25.000Z</time>
      </trkpt>
      <trkpt lat="47.44576" lon="0.86158">
        <ele>61.599998474121</ele>
        <time>2015-12-30T14:36:27.000Z</time>
      </trkpt>
      <trkpt lat="47.44567" lon="0.86147">
        <ele>61.799999237061</ele>
        <time>2015-12-30T14:36:29.000Z</time>
      </trkpt>
      <trkpt lat="47.44558" lon="0.86134">
        <ele>61.799999237061</ele>
        <time>2015-12-30T14:36:31.000Z</time>
      </trkpt>
      <trkpt lat="47.44549" lon="0.86119">
        <ele>61.599998474121</ele>
        <time>2015-12-30T14:36:33.000Z</time>
      </trkpt>
      <trkpt lat="47.44541" lon="0.86105">
        <ele>61.400001525879</ele>
        <time>2015-12-30T14:36:35.000Z</time>
      </trkpt>
      <trkpt lat="47.44534" lon="0.86089">
        <ele>61.400001525879</ele>
        <time>2015-12-30T14:36:37.000Z</time>
      </trkpt>
      <trkpt lat="47.44527" lon="0.86075">
        <ele>61.200000762939</ele>
        <time>2015-12-30T14:36:39.000Z</time>
      </trkpt>
      <trkpt lat="47.44522" lon="0.8606">
        <ele>60.799999237061</ele>
        <time>2015-12-30T14:36:41.000Z</time>
      </trkpt>
      <trkpt lat="47.44516" lon="0.86045">
        <ele>60.799999237061</ele>
        <time>2015-12-30T14:36:43.000Z</time>
      </trkpt>
      <trkpt lat="47.44512" lon="0.8603">
        <ele>60.799999237061</ele>
        <time>2015-12-30T14:36:45.000Z</time>
      </trkpt>
      <trkpt lat="47.44512" lon="0.8603">
        <ele>60.799999237061</ele>
        <time>2015-12-30T14:36:47.000Z</time>
      </trkpt>
      <trkpt lat="47.44512" lon="0.8603">
        <ele>60.799999237061</ele>
        <time>2015-12-30T14:36:49.000Z</time>
      </trkpt>
      <trkpt lat="47.44512" lon="0.8603">
        <ele>60.799999237061</ele>
        <time>2015-12-30T14:36:51.000Z</time>
      </trkpt>
      <trkpt lat="47.44512" lon="0.8603">
        <ele>60.799999237061</ele>
        <time>2015-12-30T14:36:53.000Z</time>
      </trkpt>
      <trkpt lat="47.44512" lon="0.8603">
        <ele>60.799999237061</ele>
        <time>2015-12-30T14:36:55.000Z</time>
      </trkpt>
      <trkpt lat="47.44512" lon="0.8603">
        <ele>60.799999237061</ele>
        <time>2015-12-30T14:36:57.000Z</time>
      </trkpt>
      <trkpt lat="47.44512" lon="0.8603">
        <ele>60.799999237061</ele>
        <time>2015-12-30T14:36:59.000Z</time>
      </trkpt>
      <trkpt lat="47.44512" lon="0.8603">
        <ele>60.799999237061</ele>
        <time>2015-12-30T14:37:01.000Z</time>
      </trkpt>
      <trkpt lat="47.4451" lon="0.86006">
        <ele>60.799999237061</ele>
        <time>2015-12-30T14:37:27.000Z</time>
      </trkpt>
      <trkpt lat="47.44509" lon="0.85992">
        <ele>60.799999237061</ele>
        <time>2015-12-30T14:37:29.000Z</time>
      </trkpt>
      <trkpt lat="47.44508" lon="0.85985">
        <ele>60.799999237061</ele>
        <time>2015-12-30T14:37:31.000Z</time>
      </trkpt>
      <trkpt lat="47.44507" lon="0.85977">
        <ele>61</ele>
        <time>2015-12-30T14:37:35.000Z</time>
      </trkpt>
      <trkpt lat="47.44507" lon="0.8597">
        <ele>61</ele>
        <time>2015-12-30T14:37:39.000Z</time>
      </trkpt>
      <trkpt lat="47.44506" lon="0.85963">
        <ele>61.200000762939</ele>
        <time>2015-12-30T14:37:43.000Z</time>
      </trkpt>
      <trkpt lat="47.44505" lon="0.85956">
        <ele>61.400001525879</ele>
        <time>2015-12-30T14:37:47.000Z</time>
      </trkpt>
      <trkpt lat="47.44504" lon="0.85948">
        <ele>61.599998474121</ele>
        <time>2015-12-30T14:37:51.000Z</time>
      </trkpt>
      <trkpt lat="47.44503" lon="0.8594">
        <ele>61.799999237061</ele>
        <time>2015-12-30T14:37:55.000Z</time>
      </trkpt>
      <trkpt lat="47.44502" lon="0.85931">
        <ele>62</ele>
        <time>2015-12-30T14:37:59.000Z</time>
      </trkpt>
      <trkpt lat="47.44503" lon="0.85923">
        <ele>62.200000762939</ele>
        <time>2015-12-30T14:38:03.000Z</time>
      </trkpt>
      <trkpt lat="47.44503" lon="0.85915">
        <ele>62.400001525879</ele>
        <time>2015-12-30T14:38:05.000Z</time>
      </trkpt>
      <trkpt lat="47.44503" lon="0.85904">
        <ele>62.599998474121</ele>
        <time>2015-12-30T14:38:09.000Z</time>
      </trkpt>
      <trkpt lat="47.44502" lon="0.85894">
        <ele>62.799999237061</ele>
        <time>2015-12-30T14:38:11.000Z</time>
      </trkpt>
      <trkpt lat="47.44501" lon="0.85883">
        <ele>63.200000762939</ele>
        <time>2015-12-30T14:38:13.000Z</time>
      </trkpt>
      <trkpt lat="47.445" lon="0.85873">
        <ele>63.400001525879</ele>
        <time>2015-12-30T14:38:15.000Z</time>
      </trkpt>
      <trkpt lat="47.44498" lon="0.85863">
        <ele>63.599998474121</ele>
        <time>2015-12-30T14:38:17.000Z</time>
      </trkpt>
      <trkpt lat="47.44498" lon="0.85846">
        <ele>64</ele>
        <time>2015-12-30T14:38:19.000Z</time>
      </trkpt>
      <trkpt lat="47.44497" lon="0.85831">
        <ele>64.400001525879</ele>
        <time>2015-12-30T14:38:23.000Z</time>
      </trkpt>
      <trkpt lat="47.44501" lon="0.85814">
        <ele>64.800003051758</ele>
        <time>2015-12-30T14:38:27.000Z</time>
      </trkpt>
      <trkpt lat="47.44503" lon="0.85796">
        <ele>65.400001525879</ele>
        <time>2015-12-30T14:38:31.000Z</time>
      </trkpt>
      <trkpt lat="47.44503" lon="0.85796">
        <ele>65.400001525879</ele>
        <time>2015-12-30T14:38:33.000Z</time>
      </trkpt>
      <trkpt lat="47.44503" lon="0.85796">
        <ele>65.400001525879</ele>
        <time>2015-12-30T14:38:35.000Z</time>
      </trkpt>
      <trkpt lat="47.44503" lon="0.85796">
        <ele>65.400001525879</ele>
        <time>2015-12-30T14:38:37.000Z</time>
      </trkpt>
      <trkpt lat="47.44503" lon="0.85796">
        <ele>65.400001525879</ele>
        <time>2015-12-30T14:38:39.000Z</time>
      </trkpt>
      <trkpt lat="47.44512" lon="0.85751">
        <ele>67</ele>
        <time>2015-12-30T14:38:43.000Z</time>
      </trkpt>
      <trkpt lat="47.44521" lon="0.85739">
        <ele>68</ele>
        <time>2015-12-30T14:38:47.000Z</time>
      </trkpt>
      <trkpt lat="47.44534" lon="0.85732">
        <ele>68.800003051758</ele>
        <time>2015-12-30T14:38:51.000Z</time>
      </trkpt>
      <trkpt lat="47.44547" lon="0.85729">
        <ele>69.599998474121</ele>
        <time>2015-12-30T14:38:55.000Z</time>
      </trkpt>
      <trkpt lat="47.44559" lon="0.85725">
        <ele>70.599998474121</ele>
        <time>2015-12-30T14:38:59.000Z</time>
      </trkpt>
      <trkpt lat="47.44559" lon="0.85725">
        <ele>70.599998474121</ele>
        <time>2015-12-30T14:39:01.000Z</time>
      </trkpt>
      <trkpt lat="47.44559" lon="0.85725">
        <ele>70.599998474121</ele>
        <time>2015-12-30T14:39:03.000Z</time>
      </trkpt>
      <trkpt lat="47.44579" lon="0.85718">
        <ele>71.599998474121</ele>
        <time>2015-12-30T14:39:05.000Z</time>
      </trkpt>
      <trkpt lat="47.44595" lon="0.85712">
        <ele>72.599998474121</ele>
        <time>2015-12-30T14:39:09.000Z</time>
      </trkpt>
      <trkpt lat="47.44604" lon="0.8571">
        <ele>73.599998474121</ele>
        <time>2015-12-30T14:39:11.000Z</time>
      </trkpt>
      <trkpt lat="47.44614" lon="0.85706">
        <ele>74.199996948242</ele>
        <time>2015-12-30T14:39:13.000Z</time>
      </trkpt>
      <trkpt lat="47.44625" lon="0.857">
        <ele>75</ele>
        <time>2015-12-30T14:39:15.000Z</time>
      </trkpt>
      <trkpt lat="47.44634" lon="0.85692">
        <ele>75.599998474121</ele>
        <time>2015-12-30T14:39:17.000Z</time>
      </trkpt>
      <trkpt lat="47.44642" lon="0.8568">
        <ele>74.800003051758</ele>
        <time>2015-12-30T14:39:19.000Z</time>
      </trkpt>
      <trkpt lat="47.4465" lon="0.85667">
        <ele>74</ele>
        <time>2015-12-30T14:39:21.000Z</time>
      </trkpt>
      <trkpt lat="47.44659" lon="0.85659">
        <ele>73.599998474121</ele>
        <time>2015-12-30T14:39:23.000Z</time>
      </trkpt>
      <trkpt lat="47.4467" lon="0.85651">
        <ele>73.599998474121</ele>
        <time>2015-12-30T14:39:25.000Z</time>
      </trkpt>
      <trkpt lat="47.4467" lon="0.85651">
        <ele>73.599998474121</ele>
        <time>2015-12-30T14:39:27.000Z</time>
      </trkpt>
      <trkpt lat="47.4467" lon="0.85651">
        <ele>73.599998474121</ele>
        <time>2015-12-30T14:39:29.000Z</time>
      </trkpt>
      <trkpt lat="47.4467" lon="0.85651">
        <ele>73.599998474121</ele>
        <time>2015-12-30T14:39:31.000Z</time>
      </trkpt>
      <trkpt lat="47.4467" lon="0.85651">
        <ele>73.599998474121</ele>
        <time>2015-12-30T14:39:33.000Z</time>
      </trkpt>
      <trkpt lat="47.4467" lon="0.85651">
        <ele>73.599998474121</ele>
        <time>2015-12-30T14:39:35.000Z</time>
      </trkpt>
      <trkpt lat="47.4467" lon="0.85651">
        <ele>73.599998474121</ele>
        <time>2015-12-30T14:39:37.000Z</time>
      </trkpt>
      <trkpt lat="47.4467" lon="0.85651">
        <ele>73.599998474121</ele>
        <time>2015-12-30T14:39:39.000Z</time>
      </trkpt>
      <trkpt lat="47.4467" lon="0.85651">
        <ele>73.599998474121</ele>
        <time>2015-12-30T14:39:43.000Z</time>
      </trkpt>
      <trkpt lat="47.4467" lon="0.85651">
        <ele>73.599998474121</ele>
        <time>2015-12-30T14:39:45.000Z</time>
      </trkpt>
      <trkpt lat="47.44764" lon="0.85592">
        <ele>76.400001525879</ele>
        <time>2015-12-30T14:39:47.000Z</time>
      </trkpt>
      <trkpt lat="47.44772" lon="0.85585">
        <ele>77</ele>
        <time>2015-12-30T14:39:49.000Z</time>
      </trkpt>
      <trkpt lat="47.4478" lon="0.85578">
        <ele>77.199996948242</ele>
        <time>2015-12-30T14:39:51.000Z</time>
      </trkpt>
      <trkpt lat="47.44791" lon="0.85574">
        <ele>77.199996948242</ele>
        <time>2015-12-30T14:39:53.000Z</time>
      </trkpt>
      <trkpt lat="47.448" lon="0.85565">
        <ele>76.599998474121</ele>
        <time>2015-12-30T14:39:55.000Z</time>
      </trkpt>
      <trkpt lat="47.44816" lon="0.8555">
        <ele>76.599998474121</ele>
        <time>2015-12-30T14:39:59.000Z</time>
      </trkpt>
      <trkpt lat="47.44825" lon="0.85543">
        <ele>76.800003051758</ele>
        <time>2015-12-30T14:40:01.000Z</time>
      </trkpt>
      <trkpt lat="47.44825" lon="0.85543">
        <ele>76.800003051758</ele>
        <time>2015-12-30T14:40:03.000Z</time>
      </trkpt>
      <trkpt lat="47.44825" lon="0.85543">
        <ele>76.800003051758</ele>
        <time>2015-12-30T14:40:05.000Z</time>
      </trkpt>
      <trkpt lat="47.44825" lon="0.85543">
        <ele>76.800003051758</ele>
        <time>2015-12-30T14:40:07.000Z</time>
      </trkpt>
      <trkpt lat="47.44825" lon="0.85543">
        <ele>76.800003051758</ele>
        <time>2015-12-30T14:40:09.000Z</time>
      </trkpt>
      <trkpt lat="47.44849" lon="0.85523">
        <ele>75.599998474121</ele>
        <time>2015-12-30T14:40:13.000Z</time>
      </trkpt>
      <trkpt lat="47.44866" lon="0.85509">
        <ele>75</ele>
        <time>2015-12-30T14:40:15.000Z</time>
      </trkpt>
      <trkpt lat="47.44878" lon="0.85498">
        <ele>74.800003051758</ele>
        <time>2015-12-30T14:40:17.000Z</time>
      </trkpt>
      <trkpt lat="47.44878" lon="0.85498">
        <ele>74.800003051758</ele>
        <time>2015-12-30T14:40:19.000Z</time>
      </trkpt>
      <trkpt lat="47.44878" lon="0.85498">
        <ele>74.800003051758</ele>
        <time>2015-12-30T14:40:21.000Z</time>
      </trkpt>
      <trkpt lat="47.44878" lon="0.85498">
        <ele>74.800003051758</ele>
        <time>2015-12-30T14:40:23.000Z</time>
      </trkpt>
      <trkpt lat="47.44878" lon="0.85498">
        <ele>74.800003051758</ele>
        <time>2015-12-30T14:40:25.000Z</time>
      </trkpt>
      <trkpt lat="47.4491" lon="0.85473">
        <ele>74.599998474121</ele>
        <time>2015-12-30T14:40:29.000Z</time>
      </trkpt>
      <trkpt lat="47.44931" lon="0.85456">
        <ele>74.800003051758</ele>
        <time>2015-12-30T14:40:31.000Z</time>
      </trkpt>
      <trkpt lat="47.44931" lon="0.85456">
        <ele>74.800003051758</ele>
        <time>2015-12-30T14:40:33.000Z</time>
      </trkpt>
      <trkpt lat="47.44931" lon="0.85456">
        <ele>74.800003051758</ele>
        <time>2015-12-30T14:40:35.000Z</time>
      </trkpt>
      <trkpt lat="47.44931" lon="0.85456">
        <ele>74.800003051758</ele>
        <time>2015-12-30T14:40:37.000Z</time>
      </trkpt>
      <trkpt lat="47.44931" lon="0.85456">
        <ele>74.800003051758</ele>
        <time>2015-12-30T14:40:39.000Z</time>
      </trkpt>
      <trkpt lat="47.44931" lon="0.85456">
        <ele>74.800003051758</ele>
        <time>2015-12-30T14:40:41.000Z</time>
      </trkpt>
      <trkpt lat="47.44931" lon="0.85456">
        <ele>74.800003051758</ele>
        <time>2015-12-30T14:40:43.000Z</time>
      </trkpt>
      <trkpt lat="47.4497" lon="0.85419">
        <ele>74.599998474121</ele>
        <time>2015-12-30T14:40:47.000Z</time>
      </trkpt>
      <trkpt lat="47.44992" lon="0.85397">
        <ele>75</ele>
        <time>2015-12-30T14:40:49.000Z</time>
      </trkpt>
      <trkpt lat="47.45008" lon="0.85382">
        <ele>75.599998474121</ele>
        <time>2015-12-30T14:40:51.000Z</time>
      </trkpt>
      <trkpt lat="47.45021" lon="0.85372">
        <ele>76.400001525879</ele>
        <time>2015-12-30T14:40:53.000Z</time>
      </trkpt>
      <trkpt lat="47.45031" lon="0.85365">
        <ele>77.199996948242</ele>
        <time>2015-12-30T14:40:55.000Z</time>
      </trkpt>
      <trkpt lat="47.45031" lon="0.85365">
        <ele>77.199996948242</ele>
        <time>2015-12-30T14:40:57.000Z</time>
      </trkpt>
      <trkpt lat="47.45031" lon="0.85365">
        <ele>77.199996948242</ele>
        <time>2015-12-30T14:40:59.000Z</time>
      </trkpt>
      <trkpt lat="47.45075" lon="0.8534">
        <ele>78.199996948242</ele>
        <time>2015-12-30T14:41:03.000Z</time>
      </trkpt>
      <trkpt lat="47.45075" lon="0.8534">
        <ele>78.199996948242</ele>
        <time>2015-12-30T14:41:05.000Z</time>
      </trkpt>
      <trkpt lat="47.45075" lon="0.8534">
        <ele>78.199996948242</ele>
        <time>2015-12-30T14:41:08.000Z</time>
      </trkpt>
      <trkpt lat="47.45075" lon="0.8534">
        <ele>78.199996948242</ele>
        <time>2015-12-30T14:41:10.000Z</time>
      </trkpt>
      <trkpt lat="47.45115" lon="0.85364">
        <ele>79.800003051758</ele>
        <time>2015-12-30T14:41:12.000Z</time>
      </trkpt>
      <trkpt lat="47.45123" lon="0.85375">
        <ele>80.400001525879</ele>
        <time>2015-12-30T14:41:14.000Z</time>
      </trkpt>
      <trkpt lat="47.45131" lon="0.85382">
        <ele>81</ele>
        <time>2015-12-30T14:41:16.000Z</time>
      </trkpt>
      <trkpt lat="47.45141" lon="0.85386">
        <ele>81.199996948242</ele>
        <time>2015-12-30T14:41:18.000Z</time>
      </trkpt>
      <trkpt lat="47.45141" lon="0.85386">
        <ele>81.199996948242</ele>
        <time>2015-12-30T14:41:20.000Z</time>
      </trkpt>
      <trkpt lat="47.45141" lon="0.85386">
        <ele>81.199996948242</ele>
        <time>2015-12-30T14:41:22.000Z</time>
      </trkpt>
      <trkpt lat="47.45141" lon="0.85386">
        <ele>81.199996948242</ele>
        <time>2015-12-30T14:41:24.000Z</time>
      </trkpt>
      <trkpt lat="47.45141" lon="0.85386">
        <ele>81.199996948242</ele>
        <time>2015-12-30T14:41:26.000Z</time>
      </trkpt>
      <trkpt lat="47.45141" lon="0.85386">
        <ele>81.199996948242</ele>
        <time>2015-12-30T14:41:28.000Z</time>
      </trkpt>
      <trkpt lat="47.45141" lon="0.85386">
        <ele>81.199996948242</ele>
        <time>2015-12-30T14:41:34.000Z</time>
      </trkpt>
      <trkpt lat="47.45141" lon="0.85386">
        <ele>81.199996948242</ele>
        <time>2015-12-30T14:41:36.000Z</time>
      </trkpt>
      <trkpt lat="47.45141" lon="0.85386">
        <ele>81.199996948242</ele>
        <time>2015-12-30T14:41:38.000Z</time>
      </trkpt>
      <trkpt lat="47.45141" lon="0.85386">
        <ele>81.199996948242</ele>
        <time>2015-12-30T14:41:40.000Z</time>
      </trkpt>
      <trkpt lat="47.45141" lon="0.85386">
        <ele>81.199996948242</ele>
        <time>2015-12-30T14:41:42.000Z</time>
      </trkpt>
      <trkpt lat="47.45141" lon="0.85386">
        <ele>81.199996948242</ele>
        <time>2015-12-30T14:41:44.000Z</time>
      </trkpt>
      <trkpt lat="47.45141" lon="0.85386">
        <ele>81.199996948242</ele>
        <time>2015-12-30T14:41:46.000Z</time>
      </trkpt>
      <trkpt lat="47.45141" lon="0.85386">
        <ele>81.199996948242</ele>
        <time>2015-12-30T14:41:48.000Z</time>
      </trkpt>
      <trkpt lat="47.45141" lon="0.85386">
        <ele>81.199996948242</ele>
        <time>2015-12-30T14:41:50.000Z</time>
      </trkpt>
      <trkpt lat="47.45141" lon="0.85386">
        <ele>81.199996948242</ele>
        <time>2015-12-30T14:41:52.000Z</time>
      </trkpt>
      <trkpt lat="47.45265" lon="0.85427">
        <ele>89.800003051758</ele>
        <time>2015-12-30T14:41:56.000Z</time>
      </trkpt>
      <trkpt lat="47.45277" lon="0.85438">
        <ele>90.400001525879</ele>
        <time>2015-12-30T14:42:00.000Z</time>
      </trkpt>
      <trkpt lat="47.45277" lon="0.85438">
        <ele>90.400001525879</ele>
        <time>2015-12-30T14:42:02.000Z</time>
      </trkpt>
      <trkpt lat="47.45277" lon="0.85438">
        <ele>90.400001525879</ele>
        <time>2015-12-30T14:42:04.000Z</time>
      </trkpt>
      <trkpt lat="47.45277" lon="0.85438">
        <ele>90.400001525879</ele>
        <time>2015-12-30T14:42:06.000Z</time>
      </trkpt>
      <trkpt lat="47.45277" lon="0.85438">
        <ele>90.400001525879</ele>
        <time>2015-12-30T14:42:08.000Z</time>
      </trkpt>
      <trkpt lat="47.45277" lon="0.85438">
        <ele>90.400001525879</ele>
        <time>2015-12-30T14:42:10.000Z</time>
      </trkpt>
      <trkpt lat="47.45297" lon="0.85446">
        <ele>91.199996948242</ele>
        <time>2015-12-30T14:42:14.000Z</time>
      </trkpt>
      <trkpt lat="47.4531" lon="0.85453">
        <ele>91.599998474121</ele>
        <time>2015-12-30T14:42:16.000Z</time>
      </trkpt>
      <trkpt lat="47.4532" lon="0.8546">
        <ele>92</ele>
        <time>2015-12-30T14:42:18.000Z</time>
      </trkpt>
      <trkpt lat="47.4533" lon="0.85465">
        <ele>92.599998474121</ele>
        <time>2015-12-30T14:42:20.000Z</time>
      </trkpt>
      <trkpt lat="47.45339" lon="0.85472">
        <ele>92.599998474121</ele>
        <time>2015-12-30T14:42:22.000Z</time>
      </trkpt>
      <trkpt lat="47.45356" lon="0.85481">
        <ele>91.800003051758</ele>
        <time>2015-12-30T14:42:24.000Z</time>
      </trkpt>
      <trkpt lat="47.45356" lon="0.85481">
        <ele>91.800003051758</ele>
        <time>2015-12-30T14:42:26.000Z</time>
      </trkpt>
      <trkpt lat="47.45372" lon="0.85497">
        <ele>91</ele>
        <time>2015-12-30T14:42:28.000Z</time>
      </trkpt>
      <trkpt lat="47.4538" lon="0.85505">
        <ele>90.599998474121</ele>
        <time>2015-12-30T14:42:30.000Z</time>
      </trkpt>
      <trkpt lat="47.45394" lon="0.85519">
        <ele>89.800003051758</ele>
        <time>2015-12-30T14:42:34.000Z</time>
      </trkpt>
      <trkpt lat="47.45402" lon="0.85525">
        <ele>89.400001525879</ele>
        <time>2015-12-30T14:42:36.000Z</time>
      </trkpt>
      <trkpt lat="47.45411" lon="0.85533">
        <ele>89</ele>
        <time>2015-12-30T14:42:38.000Z</time>
      </trkpt>
      <trkpt lat="47.45411" lon="0.85533">
        <ele>89</ele>
        <time>2015-12-30T14:42:40.000Z</time>
      </trkpt>
      <trkpt lat="47.45411" lon="0.85533">
        <ele>89</ele>
        <time>2015-12-30T14:42:42.000Z</time>
      </trkpt>
      <trkpt lat="47.45411" lon="0.85533">
        <ele>89</ele>
        <time>2015-12-30T14:42:44.000Z</time>
      </trkpt>
      <trkpt lat="47.45411" lon="0.85533">
        <ele>89</ele>
        <time>2015-12-30T14:42:46.000Z</time>
      </trkpt>
      <trkpt lat="47.45411" lon="0.85533">
        <ele>89</ele>
        <time>2015-12-30T14:42:48.000Z</time>
      </trkpt>
      <trkpt lat="47.45411" lon="0.85533">
        <ele>89</ele>
        <time>2015-12-30T14:42:50.000Z</time>
      </trkpt>
      <trkpt lat="47.45411" lon="0.85533">
        <ele>89</ele>
        <time>2015-12-30T14:42:52.000Z</time>
      </trkpt>
      <trkpt lat="47.45411" lon="0.85533">
        <ele>89</ele>
        <time>2015-12-30T14:42:54.000Z</time>
      </trkpt>
      <trkpt lat="47.45411" lon="0.85533">
        <ele>89</ele>
        <time>2015-12-30T14:42:56.000Z</time>
      </trkpt>
      <trkpt lat="47.45411" lon="0.85533">
        <ele>89</ele>
        <time>2015-12-30T14:42:58.000Z</time>
      </trkpt>
      <trkpt lat="47.45496" lon="0.85582">
        <ele>92.400001525879</ele>
        <time>2015-12-30T14:43:02.000Z</time>
      </trkpt>
      <trkpt lat="47.45496" lon="0.85582">
        <ele>92.400001525879</ele>
        <time>2015-12-30T14:43:04.000Z</time>
      </trkpt>
      <trkpt lat="47.45496" lon="0.85582">
        <ele>92.400001525879</ele>
        <time>2015-12-30T14:43:06.000Z</time>
      </trkpt>
      <trkpt lat="47.45496" lon="0.85582">
        <ele>92.400001525879</ele>
        <time>2015-12-30T14:43:08.000Z</time>
      </trkpt>
      <trkpt lat="47.45538" lon="0.85611">
        <ele>95.199996948242</ele>
        <time>2015-12-30T14:43:14.000Z</time>
      </trkpt>
      <trkpt lat="47.45538" lon="0.85611">
        <ele>95.199996948242</ele>
        <time>2015-12-30T14:43:16.000Z</time>
      </trkpt>
      <trkpt lat="47.45538" lon="0.85611">
        <ele>95.199996948242</ele>
        <time>2015-12-30T14:43:18.000Z</time>
      </trkpt>
      <trkpt lat="47.45538" lon="0.85611">
        <ele>95.199996948242</ele>
        <time>2015-12-30T14:43:20.000Z</time>
      </trkpt>
      <trkpt lat="47.45538" lon="0.85611">
        <ele>95.199996948242</ele>
        <time>2015-12-30T14:43:22.000Z</time>
      </trkpt>
      <trkpt lat="47.45572" lon="0.85625">
        <ele>97</ele>
        <time>2015-12-30T14:43:28.000Z</time>
      </trkpt>
      <trkpt lat="47.45581" lon="0.8563">
        <ele>97.800003051758</ele>
        <time>2015-12-30T14:43:30.000Z</time>
      </trkpt>
      <trkpt lat="47.45594" lon="0.85637">
        <ele>98.199996948242</ele>
        <time>2015-12-30T14:43:34.000Z</time>
      </trkpt>
      <trkpt lat="47.45594" lon="0.85637">
        <ele>98.199996948242</ele>
        <time>2015-12-30T14:43:36.000Z</time>
      </trkpt>
      <trkpt lat="47.45606" lon="0.85638">
        <ele>98.599998474121</ele>
        <time>2015-12-30T14:43:38.000Z</time>
      </trkpt>
      <trkpt lat="47.45618" lon="0.85644">
        <ele>99</ele>
        <time>2015-12-30T14:43:42.000Z</time>
      </trkpt>
      <trkpt lat="47.45618" lon="0.85644">
        <ele>99</ele>
        <time>2015-12-30T14:43:46.000Z</time>
      </trkpt>
      <trkpt lat="47.45618" lon="0.85644">
        <ele>99</ele>
        <time>2015-12-30T14:43:48.000Z</time>
      </trkpt>
      <trkpt lat="47.45618" lon="0.85644">
        <ele>99</ele>
        <time>2015-12-30T14:43:50.000Z</time>
      </trkpt>
      <trkpt lat="47.45618" lon="0.85644">
        <ele>99</ele>
        <time>2015-12-30T14:43:52.000Z</time>
      </trkpt>
      <trkpt lat="47.45618" lon="0.85644">
        <ele>99</ele>
        <time>2015-12-30T14:43:54.000Z</time>
      </trkpt>
      <trkpt lat="47.45618" lon="0.85644">
        <ele>99</ele>
        <time>2015-12-30T14:43:56.000Z</time>
      </trkpt>
      <trkpt lat="47.45618" lon="0.85644">
        <ele>99</ele>
        <time>2015-12-30T14:43:58.000Z</time>
      </trkpt>
      <trkpt lat="47.45618" lon="0.85644">
        <ele>99</ele>
        <time>2015-12-30T14:44:00.000Z</time>
      </trkpt>
      <trkpt lat="47.45618" lon="0.85644">
        <ele>99</ele>
        <time>2015-12-30T14:44:02.000Z</time>
      </trkpt>
      <trkpt lat="47.45647" lon="0.8565">
        <ele>100</ele>
        <time>2015-12-30T14:44:06.000Z</time>
      </trkpt>
      <trkpt lat="47.45664" lon="0.85654">
        <ele>100.40000152588</ele>
        <time>2015-12-30T14:44:08.000Z</time>
      </trkpt>
      <trkpt lat="47.45675" lon="0.85655">
        <ele>100.59999847412</ele>
        <time>2015-12-30T14:44:10.000Z</time>
      </trkpt>
      <trkpt lat="47.45682" lon="0.85655">
        <ele>100.59999847412</ele>
        <time>2015-12-30T14:44:12.000Z</time>
      </trkpt>
      <trkpt lat="47.4569" lon="0.85655">
        <ele>100.80000305176</ele>
        <time>2015-12-30T14:44:14.000Z</time>
      </trkpt>
      <trkpt lat="47.45702" lon="0.85653">
        <ele>101</ele>
        <time>2015-12-30T14:44:16.000Z</time>
      </trkpt>
      <trkpt lat="47.45713" lon="0.85652">
        <ele>101.19999694824</ele>
        <time>2015-12-30T14:44:20.000Z</time>
      </trkpt>
      <trkpt lat="47.45713" lon="0.85652">
        <ele>101.19999694824</ele>
        <time>2015-12-30T14:44:22.000Z</time>
      </trkpt>
      <trkpt lat="47.45713" lon="0.85652">
        <ele>101.19999694824</ele>
        <time>2015-12-30T14:44:24.000Z</time>
      </trkpt>
      <trkpt lat="47.45713" lon="0.85652">
        <ele>101.19999694824</ele>
        <time>2015-12-30T14:44:26.000Z</time>
      </trkpt>
      <trkpt lat="47.45713" lon="0.85652">
        <ele>101.19999694824</ele>
        <time>2015-12-30T14:44:28.000Z</time>
      </trkpt>
      <trkpt lat="47.45713" lon="0.85652">
        <ele>101.19999694824</ele>
        <time>2015-12-30T14:44:32.000Z</time>
      </trkpt>
      <trkpt lat="47.45713" lon="0.85652">
        <ele>101.19999694824</ele>
        <time>2015-12-30T14:44:34.000Z</time>
      </trkpt>
      <trkpt lat="47.45713" lon="0.85652">
        <ele>101.19999694824</ele>
        <time>2015-12-30T14:44:36.000Z</time>
      </trkpt>
      <trkpt lat="47.45713" lon="0.85652">
        <ele>101.19999694824</ele>
        <time>2015-12-30T14:44:38.000Z</time>
      </trkpt>
      <trkpt lat="47.45761" lon="0.85646">
        <ele>103</ele>
        <time>2015-12-30T14:44:42.000Z</time>
      </trkpt>
      <trkpt lat="47.45773" lon="0.85646">
        <ele>103.59999847412</ele>
        <time>2015-12-30T14:44:46.000Z</time>
      </trkpt>
      <trkpt lat="47.45786" lon="0.85648">
        <ele>104.59999847412</ele>
        <time>2015-12-30T14:44:52.000Z</time>
      </trkpt>
      <trkpt lat="47.45798" lon="0.85646">
        <ele>105.19999694824</ele>
        <time>2015-12-30T14:44:56.000Z</time>
      </trkpt>
      <trkpt lat="47.4581" lon="0.85643">
        <ele>105.80000305176</ele>
        <time>2015-12-30T14:45:00.000Z</time>
      </trkpt>
      <trkpt lat="47.45819" lon="0.85647">
        <ele>106.40000152588</ele>
        <time>2015-12-30T14:45:04.000Z</time>
      </trkpt>
      <trkpt lat="47.45819" lon="0.85647">
        <ele>106.40000152588</ele>
        <time>2015-12-30T14:45:06.000Z</time>
      </trkpt>
      <trkpt lat="47.45819" lon="0.85647">
        <ele>106.40000152588</ele>
        <time>2015-12-30T14:45:08.000Z</time>
      </trkpt>
      <trkpt lat="47.45819" lon="0.85647">
        <ele>106.40000152588</ele>
        <time>2015-12-30T14:45:10.000Z</time>
      </trkpt>
      <trkpt lat="47.45819" lon="0.85647">
        <ele>106.40000152588</ele>
        <time>2015-12-30T14:45:12.000Z</time>
      </trkpt>
      <trkpt lat="47.45819" lon="0.85647">
        <ele>106.40000152588</ele>
        <time>2015-12-30T14:45:14.000Z</time>
      </trkpt>
      <trkpt lat="47.45819" lon="0.85647">
        <ele>106.40000152588</ele>
        <time>2015-12-30T14:45:16.000Z</time>
      </trkpt>
      <trkpt lat="47.45819" lon="0.85647">
        <ele>106.40000152588</ele>
        <time>2015-12-30T14:45:18.000Z</time>
      </trkpt>
      <trkpt lat="47.45819" lon="0.85647">
        <ele>106.40000152588</ele>
        <time>2015-12-30T14:45:20.000Z</time>
      </trkpt>
      <trkpt lat="47.45819" lon="0.85647">
        <ele>106.40000152588</ele>
        <time>2015-12-30T14:45:22.000Z</time>
      </trkpt>
      <trkpt lat="47.45819" lon="0.85647">
        <ele>106.40000152588</ele>
        <time>2015-12-30T14:45:24.000Z</time>
      </trkpt>
      <trkpt lat="47.45819" lon="0.85647">
        <ele>106.40000152588</ele>
        <time>2015-12-30T14:45:26.000Z</time>
      </trkpt>
      <trkpt lat="47.45847" lon="0.85667">
        <ele>108</ele>
        <time>2015-12-30T14:45:32.000Z</time>
      </trkpt>
      <trkpt lat="47.45863" lon="0.85679">
        <ele>108.40000152588</ele>
        <time>2015-12-30T14:45:34.000Z</time>
      </trkpt>
      <trkpt lat="47.45873" lon="0.85687">
        <ele>108.80000305176</ele>
        <time>2015-12-30T14:45:36.000Z</time>
      </trkpt>
      <trkpt lat="47.45881" lon="0.85694">
        <ele>109</ele>
        <time>2015-12-30T14:45:38.000Z</time>
      </trkpt>
      <trkpt lat="47.45887" lon="0.857">
        <ele>109.19999694824</ele>
        <time>2015-12-30T14:45:40.000Z</time>
      </trkpt>
      <trkpt lat="47.45901" lon="0.85705">
        <ele>109.40000152588</ele>
        <time>2015-12-30T14:45:42.000Z</time>
      </trkpt>
      <trkpt lat="47.45913" lon="0.85707">
        <ele>110</ele>
        <time>2015-12-30T14:45:46.000Z</time>
      </trkpt>
      <trkpt lat="47.45923" lon="0.85706">
        <ele>110.19999694824</ele>
        <time>2015-12-30T14:45:50.000Z</time>
      </trkpt>
      <trkpt lat="47.45923" lon="0.85706">
        <ele>110.19999694824</ele>
        <time>2015-12-30T14:45:52.000Z</time>
      </trkpt>
      <trkpt lat="47.45935" lon="0.85702">
        <ele>110.19999694824</ele>
        <time>2015-12-30T14:45:54.000Z</time>
      </trkpt>
      <trkpt lat="47.45935" lon="0.85702">
        <ele>110.19999694824</ele>
        <time>2015-12-30T14:45:56.000Z</time>
      </trkpt>
      <trkpt lat="47.4595" lon="0.85703">
        <ele>110.19999694824</ele>
        <time>2015-12-30T14:45:58.000Z</time>
      </trkpt>
      <trkpt lat="47.4596" lon="0.85703">
        <ele>110.19999694824</ele>
        <time>2015-12-30T14:46:02.000Z</time>
      </trkpt>
      <trkpt lat="47.4596" lon="0.85703">
        <ele>110.19999694824</ele>
        <time>2015-12-30T14:46:04.000Z</time>
      </trkpt>
      <trkpt lat="47.45974" lon="0.85705">
        <ele>110.19999694824</ele>
        <time>2015-12-30T14:46:06.000Z</time>
      </trkpt>
      <trkpt lat="47.45988" lon="0.85697">
        <ele>110.19999694824</ele>
        <time>2015-12-30T14:46:10.000Z</time>
      </trkpt>
      <trkpt lat="47.46005" lon="0.85696">
        <ele>110</ele>
        <time>2015-12-30T14:46:14.000Z</time>
      </trkpt>
      <trkpt lat="47.4602" lon="0.85696">
        <ele>110.19999694824</ele>
        <time>2015-12-30T14:46:18.000Z</time>
      </trkpt>
      <trkpt lat="47.46035" lon="0.85696">
        <ele>110.40000152588</ele>
        <time>2015-12-30T14:46:22.000Z</time>
      </trkpt>
      <trkpt lat="47.46051" lon="0.85698">
        <ele>110.59999847412</ele>
        <time>2015-12-30T14:46:26.000Z</time>
      </trkpt>
      <trkpt lat="47.46067" lon="0.85706">
        <ele>110.80000305176</ele>
        <time>2015-12-30T14:46:30.000Z</time>
      </trkpt>
      <trkpt lat="47.46075" lon="0.85724">
        <ele>111</ele>
        <time>2015-12-30T14:46:34.000Z</time>
      </trkpt>
      <trkpt lat="47.46084" lon="0.85744">
        <ele>111</ele>
        <time>2015-12-30T14:46:38.000Z</time>
      </trkpt>
      <trkpt lat="47.46084" lon="0.85744">
        <ele>111</ele>
        <time>2015-12-30T14:46:40.000Z</time>
      </trkpt>
      <trkpt lat="47.46084" lon="0.85744">
        <ele>111</ele>
        <time>2015-12-30T14:46:42.000Z</time>
      </trkpt>
      <trkpt lat="47.46084" lon="0.85744">
        <ele>111</ele>
        <time>2015-12-30T14:46:44.000Z</time>
      </trkpt>
      <trkpt lat="47.46084" lon="0.85744">
        <ele>111</ele>
        <time>2015-12-30T14:46:46.000Z</time>
      </trkpt>
      <trkpt lat="47.46084" lon="0.85744">
        <ele>111</ele>
        <time>2015-12-30T14:46:48.000Z</time>
      </trkpt>
      <trkpt lat="47.46084" lon="0.85744">
        <ele>111</ele>
        <time>2015-12-30T14:46:50.000Z</time>
      </trkpt>
      <trkpt lat="47.46084" lon="0.85744">
        <ele>111</ele>
        <time>2015-12-30T14:46:52.000Z</time>
      </trkpt>
      <trkpt lat="47.46084" lon="0.85744">
        <ele>111</ele>
        <time>2015-12-30T14:46:54.000Z</time>
      </trkpt>
      <trkpt lat="47.46084" lon="0.85744">
        <ele>111</ele>
        <time>2015-12-30T14:46:56.000Z</time>
      </trkpt>
      <trkpt lat="47.46084" lon="0.85744">
        <ele>111</ele>
        <time>2015-12-30T14:46:58.000Z</time>
      </trkpt>
      <trkpt lat="47.46148" lon="0.85815">
        <ele>111</ele>
        <time>2015-12-30T14:47:04.000Z</time>
      </trkpt>
      <trkpt lat="47.46162" lon="0.85814">
        <ele>111</ele>
        <time>2015-12-30T14:47:08.000Z</time>
      </trkpt>
      <trkpt lat="47.46178" lon="0.85811">
        <ele>111.19999694824</ele>
        <time>2015-12-30T14:47:12.000Z</time>
      </trkpt>
      <trkpt lat="47.46196" lon="0.85808">
        <ele>111.40000152588</ele>
        <time>2015-12-30T14:47:16.000Z</time>
      </trkpt>
      <trkpt lat="47.46203" lon="0.85807">
        <ele>111.40000152588</ele>
        <time>2015-12-30T14:47:20.000Z</time>
      </trkpt>
      <trkpt lat="47.4621" lon="0.85805">
        <ele>111.59999847412</ele>
        <time>2015-12-30T14:47:22.000Z</time>
      </trkpt>
      <trkpt lat="47.46218" lon="0.85805">
        <ele>111.59999847412</ele>
        <time>2015-12-30T14:47:24.000Z</time>
      </trkpt>
      <trkpt lat="47.46226" lon="0.85804">
        <ele>111.80000305176</ele>
        <time>2015-12-30T14:47:26.000Z</time>
      </trkpt>
      <trkpt lat="47.46234" lon="0.85803">
        <ele>111.80000305176</ele>
        <time>2015-12-30T14:47:28.000Z</time>
      </trkpt>
      <trkpt lat="47.4625" lon="0.85803">
        <ele>112</ele>
        <time>2015-12-30T14:47:30.000Z</time>
      </trkpt>
      <trkpt lat="47.4625" lon="0.85803">
        <ele>112</ele>
        <time>2015-12-30T14:47:32.000Z</time>
      </trkpt>
      <trkpt lat="47.4625" lon="0.85803">
        <ele>112</ele>
        <time>2015-12-30T14:47:34.000Z</time>
      </trkpt>
      <trkpt lat="47.46288" lon="0.85803">
        <ele>111.59999847412</ele>
        <time>2015-12-30T14:47:40.000Z</time>
      </trkpt>
      <trkpt lat="47.46303" lon="0.85802">
        <ele>111.40000152588</ele>
        <time>2015-12-30T14:47:44.000Z</time>
      </trkpt>
      <trkpt lat="47.4632" lon="0.858">
        <ele>111.19999694824</ele>
        <time>2015-12-30T14:47:48.000Z</time>
      </trkpt>
      <trkpt lat="47.46329" lon="0.85799">
        <ele>111</ele>
        <time>2015-12-30T14:47:50.000Z</time>
      </trkpt>
      <trkpt lat="47.46338" lon="0.85796">
        <ele>110.80000305176</ele>
        <time>2015-12-30T14:47:52.000Z</time>
      </trkpt>
      <trkpt lat="47.46357" lon="0.85786">
        <ele>110.40000152588</ele>
        <time>2015-12-30T14:47:56.000Z</time>
      </trkpt>
      <trkpt lat="47.46366" lon="0.85779">
        <ele>110.19999694824</ele>
        <time>2015-12-30T14:47:58.000Z</time>
      </trkpt>
      <trkpt lat="47.46377" lon="0.85771">
        <ele>110</ele>
        <time>2015-12-30T14:48:00.000Z</time>
      </trkpt>
      <trkpt lat="47.46389" lon="0.8576">
        <ele>109.59999847412</ele>
        <time>2015-12-30T14:48:02.000Z</time>
      </trkpt>
      <trkpt lat="47.46403" lon="0.85747">
        <ele>109.40000152588</ele>
        <time>2015-12-30T14:48:04.000Z</time>
      </trkpt>
      <trkpt lat="47.46414" lon="0.85736">
        <ele>109</ele>
        <time>2015-12-30T14:48:06.000Z</time>
      </trkpt>
      <trkpt lat="47.46425" lon="0.85724">
        <ele>108.59999847412</ele>
        <time>2015-12-30T14:48:09.000Z</time>
      </trkpt>
      <trkpt lat="47.46452" lon="0.85695">
        <ele>108.59999847412</ele>
        <time>2015-12-30T14:48:13.000Z</time>
      </trkpt>
      <trkpt lat="47.46465" lon="0.85682">
        <ele>108.40000152588</ele>
        <time>2015-12-30T14:48:15.000Z</time>
      </trkpt>
      <trkpt lat="47.46478" lon="0.85671">
        <ele>107.80000305176</ele>
        <time>2015-12-30T14:48:17.000Z</time>
      </trkpt>
      <trkpt lat="47.46492" lon="0.85671">
        <ele>106.80000305176</ele>
        <time>2015-12-30T14:48:19.000Z</time>
      </trkpt>
      <trkpt lat="47.46506" lon="0.85677">
        <ele>106.19999694824</ele>
        <time>2015-12-30T14:48:21.000Z</time>
      </trkpt>
      <trkpt lat="47.46519" lon="0.85686">
        <ele>106.40000152588</ele>
        <time>2015-12-30T14:48:23.000Z</time>
      </trkpt>
      <trkpt lat="47.46533" lon="0.85694">
        <ele>106.40000152588</ele>
        <time>2015-12-30T14:48:25.000Z</time>
      </trkpt>
      <trkpt lat="47.4655" lon="0.85693">
        <ele>107</ele>
        <time>2015-12-30T14:48:28.000Z</time>
      </trkpt>
      <trkpt lat="47.46562" lon="0.85691">
        <ele>107.19999694824</ele>
        <time>2015-12-30T14:48:30.000Z</time>
      </trkpt>
      <trkpt lat="47.46573" lon="0.85686">
        <ele>107.59999847412</ele>
        <time>2015-12-30T14:48:32.000Z</time>
      </trkpt>
      <trkpt lat="47.46585" lon="0.8568">
        <ele>108</ele>
        <time>2015-12-30T14:48:34.000Z</time>
      </trkpt>
      <trkpt lat="47.46598" lon="0.85675">
        <ele>108.59999847412</ele>
        <time>2015-12-30T14:48:36.000Z</time>
      </trkpt>
      <trkpt lat="47.46609" lon="0.8567">
        <ele>109.19999694824</ele>
        <time>2015-12-30T14:48:38.000Z</time>
      </trkpt>
      <trkpt lat="47.46621" lon="0.85665">
        <ele>109.40000152588</ele>
        <time>2015-12-30T14:48:40.000Z</time>
      </trkpt>
      <trkpt lat="47.46632" lon="0.85662">
        <ele>109.59999847412</ele>
        <time>2015-12-30T14:48:42.000Z</time>
      </trkpt>
      <trkpt lat="47.46645" lon="0.85658">
        <ele>109.80000305176</ele>
        <time>2015-12-30T14:48:44.000Z</time>
      </trkpt>
      <trkpt lat="47.46656" lon="0.85654">
        <ele>109.80000305176</ele>
        <time>2015-12-30T14:48:46.000Z</time>
      </trkpt>
      <trkpt lat="47.46665" lon="0.8565">
        <ele>110</ele>
        <time>2015-12-30T14:48:48.000Z</time>
      </trkpt>
      <trkpt lat="47.46665" lon="0.8565">
        <ele>110</ele>
        <time>2015-12-30T14:48:50.000Z</time>
      </trkpt>
      <trkpt lat="47.46665" lon="0.8565">
        <ele>110</ele>
        <time>2015-12-30T14:48:52.000Z</time>
      </trkpt>
      <trkpt lat="47.46665" lon="0.8565">
        <ele>110</ele>
        <time>2015-12-30T14:48:54.000Z</time>
      </trkpt>
      <trkpt lat="47.46665" lon="0.8565">
        <ele>110</ele>
        <time>2015-12-30T14:48:56.000Z</time>
      </trkpt>
      <trkpt lat="47.46665" lon="0.8565">
        <ele>110</ele>
        <time>2015-12-30T14:48:58.000Z</time>
      </trkpt>
      <trkpt lat="47.46665" lon="0.8565">
        <ele>110</ele>
        <time>2015-12-30T14:49:00.000Z</time>
      </trkpt>
      <trkpt lat="47.46731" lon="0.85623">
        <ele>112</ele>
        <time>2015-12-30T14:49:04.000Z</time>
      </trkpt>
      <trkpt lat="47.46749" lon="0.85616">
        <ele>112</ele>
        <time>2015-12-30T14:49:08.000Z</time>
      </trkpt>
      <trkpt lat="47.46759" lon="0.85613">
        <ele>111.80000305176</ele>
        <time>2015-12-30T14:49:10.000Z</time>
      </trkpt>
      <trkpt lat="47.4677" lon="0.8561">
        <ele>111.80000305176</ele>
        <time>2015-12-30T14:49:12.000Z</time>
      </trkpt>
      <trkpt lat="47.4678" lon="0.85606">
        <ele>111.59999847412</ele>
        <time>2015-12-30T14:49:14.000Z</time>
      </trkpt>
      <trkpt lat="47.46791" lon="0.85601">
        <ele>111.59999847412</ele>
        <time>2015-12-30T14:49:16.000Z</time>
      </trkpt>
      <trkpt lat="47.46801" lon="0.85598">
        <ele>111.40000152588</ele>
        <time>2015-12-30T14:49:18.000Z</time>
      </trkpt>
      <trkpt lat="47.4681" lon="0.85595">
        <ele>111.19999694824</ele>
        <time>2015-12-30T14:49:20.000Z</time>
      </trkpt>
      <trkpt lat="47.46822" lon="0.85591">
        <ele>111.19999694824</ele>
        <time>2015-12-30T14:49:22.000Z</time>
      </trkpt>
      <trkpt lat="47.46831" lon="0.85587">
        <ele>111</ele>
        <time>2015-12-30T14:49:24.000Z</time>
      </trkpt>
      <trkpt lat="47.46841" lon="0.85582">
        <ele>110.80000305176</ele>
        <time>2015-12-30T14:49:26.000Z</time>
      </trkpt>
      <trkpt lat="47.46854" lon="0.85578">
        <ele>110.80000305176</ele>
        <time>2015-12-30T14:49:28.000Z</time>
      </trkpt>
      <trkpt lat="47.46865" lon="0.85574">
        <ele>111</ele>
        <time>2015-12-30T14:49:30.000Z</time>
      </trkpt>
      <trkpt lat="47.46877" lon="0.8557">
        <ele>111.19999694824</ele>
        <time>2015-12-30T14:49:32.000Z</time>
      </trkpt>
      <trkpt lat="47.46889" lon="0.85567">
        <ele>111.40000152588</ele>
        <time>2015-12-30T14:49:34.000Z</time>
      </trkpt>
      <trkpt lat="47.469" lon="0.85565">
        <ele>111.59999847412</ele>
        <time>2015-12-30T14:49:36.000Z</time>
      </trkpt>
      <trkpt lat="47.46912" lon="0.85562">
        <ele>111.80000305176</ele>
        <time>2015-12-30T14:49:38.000Z</time>
      </trkpt>
      <trkpt lat="47.46922" lon="0.85559">
        <ele>111.80000305176</ele>
        <time>2015-12-30T14:49:40.000Z</time>
      </trkpt>
      <trkpt lat="47.46922" lon="0.85559">
        <ele>111.80000305176</ele>
        <time>2015-12-30T14:49:42.000Z</time>
      </trkpt>
      <trkpt lat="47.46943" lon="0.85553">
        <ele>111.40000152588</ele>
        <time>2015-12-30T14:49:44.000Z</time>
      </trkpt>
      <trkpt lat="47.46952" lon="0.85548">
        <ele>111.19999694824</ele>
        <time>2015-12-30T14:49:46.000Z</time>
      </trkpt>
      <trkpt lat="47.46962" lon="0.85542">
        <ele>111</ele>
        <time>2015-12-30T14:49:48.000Z</time>
      </trkpt>
      <trkpt lat="47.46962" lon="0.85542">
        <ele>111</ele>
        <time>2015-12-30T14:49:50.000Z</time>
      </trkpt>
      <trkpt lat="47.46962" lon="0.85542">
        <ele>111</ele>
        <time>2015-12-30T14:49:52.000Z</time>
      </trkpt>
      <trkpt lat="47.46962" lon="0.85542">
        <ele>111</ele>
        <time>2015-12-30T14:49:54.000Z</time>
      </trkpt>
      <trkpt lat="47.46962" lon="0.85542">
        <ele>111</ele>
        <time>2015-12-30T14:49:56.000Z</time>
      </trkpt>
      <trkpt lat="47.46962" lon="0.85542">
        <ele>111</ele>
        <time>2015-12-30T14:49:58.000Z</time>
      </trkpt>
      <trkpt lat="47.46962" lon="0.85542">
        <ele>111</ele>
        <time>2015-12-30T14:50:00.000Z</time>
      </trkpt>
      <trkpt lat="47.46962" lon="0.85542">
        <ele>111</ele>
        <time>2015-12-30T14:50:02.000Z</time>
      </trkpt>
      <trkpt lat="47.46962" lon="0.85542">
        <ele>111</ele>
        <time>2015-12-30T14:50:04.000Z</time>
      </trkpt>
      <trkpt lat="47.46987" lon="0.85458">
        <ele>112</ele>
        <time>2015-12-30T14:50:10.000Z</time>
      </trkpt>
      <trkpt lat="47.46978" lon="0.8544">
        <ele>112.19999694824</ele>
        <time>2015-12-30T14:50:14.000Z</time>
      </trkpt>
      <trkpt lat="47.4697" lon="0.85424">
        <ele>112.40000152588</ele>
        <time>2015-12-30T14:50:18.000Z</time>
      </trkpt>
      <trkpt lat="47.4697" lon="0.85424">
        <ele>112.40000152588</ele>
        <time>2015-12-30T14:50:20.000Z</time>
      </trkpt>
      <trkpt lat="47.4696" lon="0.85405">
        <ele>112.59999847412</ele>
        <time>2015-12-30T14:50:22.000Z</time>
      </trkpt>
      <trkpt lat="47.46956" lon="0.85396">
        <ele>112.59999847412</ele>
        <time>2015-12-30T14:50:26.000Z</time>
      </trkpt>
      <trkpt lat="47.46951" lon="0.85387">
        <ele>112.80000305176</ele>
        <time>2015-12-30T14:50:28.000Z</time>
      </trkpt>
      <trkpt lat="47.46947" lon="0.85377">
        <ele>112.80000305176</ele>
        <time>2015-12-30T14:50:30.000Z</time>
      </trkpt>
      <trkpt lat="47.46943" lon="0.85368">
        <ele>112.80000305176</ele>
        <time>2015-12-30T14:50:32.000Z</time>
      </trkpt>
      <trkpt lat="47.46943" lon="0.85368">
        <ele>112.80000305176</ele>
        <time>2015-12-30T14:50:34.000Z</time>
      </trkpt>
      <trkpt lat="47.46943" lon="0.85368">
        <ele>112.80000305176</ele>
        <time>2015-12-30T14:50:36.000Z</time>
      </trkpt>
      <trkpt lat="47.46943" lon="0.85368">
        <ele>112.80000305176</ele>
        <time>2015-12-30T14:50:38.000Z</time>
      </trkpt>
      <trkpt lat="47.46926" lon="0.85331">
        <ele>113</ele>
        <time>2015-12-30T14:50:44.000Z</time>
      </trkpt>
      <trkpt lat="47.46916" lon="0.85308">
        <ele>113</ele>
        <time>2015-12-30T14:50:46.000Z</time>
      </trkpt>
      <trkpt lat="47.46909" lon="0.85294">
        <ele>113.19999694824</ele>
        <time>2015-12-30T14:50:48.000Z</time>
      </trkpt>
      <trkpt lat="47.46899" lon="0.85277">
        <ele>113.19999694824</ele>
        <time>2015-12-30T14:50:51.000Z</time>
      </trkpt>
      <trkpt lat="47.46892" lon="0.85263">
        <ele>113.40000152588</ele>
        <time>2015-12-30T14:50:53.000Z</time>
      </trkpt>
      <trkpt lat="47.4688" lon="0.8524">
        <ele>113.59999847412</ele>
        <time>2015-12-30T14:50:55.000Z</time>
      </trkpt>
      <trkpt lat="47.4688" lon="0.8524">
        <ele>113.59999847412</ele>
        <time>2015-12-30T14:50:57.000Z</time>
      </trkpt>
      <trkpt lat="47.4687" lon="0.85217">
        <ele>114</ele>
        <time>2015-12-30T14:50:59.000Z</time>
      </trkpt>
      <trkpt lat="47.4687" lon="0.85217">
        <ele>114</ele>
        <time>2015-12-30T14:51:01.000Z</time>
      </trkpt>
      <trkpt lat="47.46859" lon="0.85196">
        <ele>114.59999847412</ele>
        <time>2015-12-30T14:51:03.000Z</time>
      </trkpt>
      <trkpt lat="47.46854" lon="0.85183">
        <ele>115</ele>
        <time>2015-12-30T14:51:05.000Z</time>
      </trkpt>
      <trkpt lat="47.46844" lon="0.85162">
        <ele>115.40000152588</ele>
        <time>2015-12-30T14:51:09.000Z</time>
      </trkpt>
      <trkpt lat="47.46844" lon="0.85162">
        <ele>115.40000152588</ele>
        <time>2015-12-30T14:51:11.000Z</time>
      </trkpt>
      <trkpt lat="47.46831" lon="0.8514">
        <ele>116</ele>
        <time>2015-12-30T14:51:13.000Z</time>
      </trkpt>
      <trkpt lat="47.46831" lon="0.8514">
        <ele>116</ele>
        <time>2015-12-30T14:51:15.000Z</time>
      </trkpt>
      <trkpt lat="47.46831" lon="0.8514">
        <ele>116</ele>
        <time>2015-12-30T14:51:17.000Z</time>
      </trkpt>
      <trkpt lat="47.46831" lon="0.8514">
        <ele>116</ele>
        <time>2015-12-30T14:51:19.000Z</time>
      </trkpt>
      <trkpt lat="47.46831" lon="0.8514">
        <ele>116</ele>
        <time>2015-12-30T14:51:21.000Z</time>
      </trkpt>
      <trkpt lat="47.46831" lon="0.8514">
        <ele>116</ele>
        <time>2015-12-30T14:51:23.000Z</time>
      </trkpt>
      <trkpt lat="47.46831" lon="0.8514">
        <ele>116</ele>
        <time>2015-12-30T14:51:25.000Z</time>
      </trkpt>
      <trkpt lat="47.46778" lon="0.85065">
        <ele>116</ele>
        <time>2015-12-30T14:51:29.000Z</time>
      </trkpt>
      <trkpt lat="47.46778" lon="0.85065">
        <ele>116</ele>
        <time>2015-12-30T14:51:31.000Z</time>
      </trkpt>
      <trkpt lat="47.46763" lon="0.85054">
        <ele>116</ele>
        <time>2015-12-30T14:51:33.000Z</time>
      </trkpt>
      <trkpt lat="47.46754" lon="0.85048">
        <ele>115.80000305176</ele>
        <time>2015-12-30T14:51:35.000Z</time>
      </trkpt>
      <trkpt lat="47.46745" lon="0.85042">
        <ele>115.59999847412</ele>
        <time>2015-12-30T14:51:37.000Z</time>
      </trkpt>
      <trkpt lat="47.46737" lon="0.85036">
        <ele>115.40000152588</ele>
        <time>2015-12-30T14:51:39.000Z</time>
      </trkpt>
      <trkpt lat="47.46727" lon="0.85031">
        <ele>115.19999694824</ele>
        <time>2015-12-30T14:51:41.000Z</time>
      </trkpt>
      <trkpt lat="47.46727" lon="0.85031">
        <ele>115.19999694824</ele>
        <time>2015-12-30T14:51:43.000Z</time>
      </trkpt>
      <trkpt lat="47.46708" lon="0.85019">
        <ele>114.59999847412</ele>
        <time>2015-12-30T14:51:45.000Z</time>
      </trkpt>
      <trkpt lat="47.467" lon="0.85013">
        <ele>114.19999694824</ele>
        <time>2015-12-30T14:51:47.000Z</time>
      </trkpt>
      <trkpt lat="47.4669" lon="0.85007">
        <ele>114</ele>
        <time>2015-12-30T14:51:49.000Z</time>
      </trkpt>
      <trkpt lat="47.46674" lon="0.84997">
        <ele>113.40000152588</ele>
        <time>2015-12-30T14:51:53.000Z</time>
      </trkpt>
      <trkpt lat="47.46665" lon="0.84991">
        <ele>113.19999694824</ele>
        <time>2015-12-30T14:51:55.000Z</time>
      </trkpt>
      <trkpt lat="47.46655" lon="0.84984">
        <ele>112.80000305176</ele>
        <time>2015-12-30T14:51:57.000Z</time>
      </trkpt>
      <trkpt lat="47.46655" lon="0.84984">
        <ele>112.80000305176</ele>
        <time>2015-12-30T14:51:59.000Z</time>
      </trkpt>
      <trkpt lat="47.46636" lon="0.84976">
        <ele>112.40000152588</ele>
        <time>2015-12-30T14:52:01.000Z</time>
      </trkpt>
      <trkpt lat="47.46626" lon="0.84973">
        <ele>112</ele>
        <time>2015-12-30T14:52:03.000Z</time>
      </trkpt>
      <trkpt lat="47.46615" lon="0.84972">
        <ele>111.80000305176</ele>
        <time>2015-12-30T14:52:05.000Z</time>
      </trkpt>
      <trkpt lat="47.46606" lon="0.84974">
        <ele>111.59999847412</ele>
        <time>2015-12-30T14:52:07.000Z</time>
      </trkpt>
      <trkpt lat="47.46596" lon="0.84974">
        <ele>111.40000152588</ele>
        <time>2015-12-30T14:52:09.000Z</time>
      </trkpt>
      <trkpt lat="47.46585" lon="0.84973">
        <ele>111</ele>
        <time>2015-12-30T14:52:11.000Z</time>
      </trkpt>
      <trkpt lat="47.46576" lon="0.84974">
        <ele>111.19999694824</ele>
        <time>2015-12-30T14:52:13.000Z</time>
      </trkpt>
      <trkpt lat="47.46564" lon="0.84973">
        <ele>111.40000152588</ele>
        <time>2015-12-30T14:52:15.000Z</time>
      </trkpt>
      <trkpt lat="47.46554" lon="0.84969">
        <ele>111.59999847412</ele>
        <time>2015-12-30T14:52:17.000Z</time>
      </trkpt>
      <trkpt lat="47.4654" lon="0.84964">
        <ele>112</ele>
        <time>2015-12-30T14:52:19.000Z</time>
      </trkpt>
      <trkpt lat="47.46527" lon="0.84959">
        <ele>112.40000152588</ele>
        <time>2015-12-30T14:52:21.000Z</time>
      </trkpt>
      <trkpt lat="47.46517" lon="0.84952">
        <ele>112.59999847412</ele>
        <time>2015-12-30T14:52:23.000Z</time>
      </trkpt>
      <trkpt lat="47.46507" lon="0.84943">
        <ele>112.80000305176</ele>
        <time>2015-12-30T14:52:25.000Z</time>
      </trkpt>
      <trkpt lat="47.46496" lon="0.84933">
        <ele>113.19999694824</ele>
        <time>2015-12-30T14:52:27.000Z</time>
      </trkpt>
      <trkpt lat="47.46487" lon="0.84924">
        <ele>113.40000152588</ele>
        <time>2015-12-30T14:52:29.000Z</time>
      </trkpt>
      <trkpt lat="47.4648" lon="0.84915">
        <ele>113.80000305176</ele>
        <time>2015-12-30T14:52:31.000Z</time>
      </trkpt>
      <trkpt lat="47.4648" lon="0.84915">
        <ele>113.80000305176</ele>
        <time>2015-12-30T14:52:33.000Z</time>
      </trkpt>
      <trkpt lat="47.4648" lon="0.84915">
        <ele>113.80000305176</ele>
        <time>2015-12-30T14:52:35.000Z</time>
      </trkpt>
      <trkpt lat="47.4648" lon="0.84915">
        <ele>113.80000305176</ele>
        <time>2015-12-30T14:52:37.000Z</time>
      </trkpt>
      <trkpt lat="47.4648" lon="0.84915">
        <ele>113.80000305176</ele>
        <time>2015-12-30T14:52:40.000Z</time>
      </trkpt>
      <trkpt lat="47.4648" lon="0.84915">
        <ele>113.80000305176</ele>
        <time>2015-12-30T14:52:41.000Z</time>
      </trkpt>
      <trkpt lat="47.4648" lon="0.84915">
        <ele>113.80000305176</ele>
        <time>2015-12-30T14:52:43.000Z</time>
      </trkpt>
      <trkpt lat="47.4648" lon="0.84915">
        <ele>113.80000305176</ele>
        <time>2015-12-30T14:52:45.000Z</time>
      </trkpt>
      <trkpt lat="47.4648" lon="0.84915">
        <ele>113.80000305176</ele>
        <time>2015-12-30T14:52:47.000Z</time>
      </trkpt>
      <trkpt lat="47.4648" lon="0.84915">
        <ele>113.80000305176</ele>
        <time>2015-12-30T14:52:49.000Z</time>
      </trkpt>
      <trkpt lat="47.4648" lon="0.84915">
        <ele>113.80000305176</ele>
        <time>2015-12-30T14:52:51.000Z</time>
      </trkpt>
      <trkpt lat="47.4648" lon="0.84915">
        <ele>113.80000305176</ele>
        <time>2015-12-30T14:52:53.000Z</time>
      </trkpt>
      <trkpt lat="47.4648" lon="0.84915">
        <ele>113.80000305176</ele>
        <time>2015-12-30T14:52:55.000Z</time>
      </trkpt>
      <trkpt lat="47.4648" lon="0.84915">
        <ele>113.80000305176</ele>
        <time>2015-12-30T14:52:57.000Z</time>
      </trkpt>
      <trkpt lat="47.4648" lon="0.84915">
        <ele>113.80000305176</ele>
        <time>2015-12-30T14:53:07.000Z</time>
      </trkpt>
      <trkpt lat="47.4648" lon="0.84915">
        <ele>113.80000305176</ele>
        <time>2015-12-30T14:53:09.000Z</time>
      </trkpt>
      <trkpt lat="47.4648" lon="0.84915">
        <ele>113.80000305176</ele>
        <time>2015-12-30T14:53:11.000Z</time>
      </trkpt>
      <trkpt lat="47.4648" lon="0.84915">
        <ele>113.80000305176</ele>
        <time>2015-12-30T14:53:13.000Z</time>
      </trkpt>
      <trkpt lat="47.4648" lon="0.84915">
        <ele>113.80000305176</ele>
        <time>2015-12-30T14:53:15.000Z</time>
      </trkpt>
      <trkpt lat="47.4648" lon="0.84915">
        <ele>113.80000305176</ele>
        <time>2015-12-30T14:53:17.000Z</time>
      </trkpt>
      <trkpt lat="47.4648" lon="0.84915">
        <ele>113.80000305176</ele>
        <time>2015-12-30T14:53:19.000Z</time>
      </trkpt>
      <trkpt lat="47.4648" lon="0.84915">
        <ele>113.80000305176</ele>
        <time>2015-12-30T14:53:21.000Z</time>
      </trkpt>
      <trkpt lat="47.4648" lon="0.84915">
        <ele>113.80000305176</ele>
        <time>2015-12-30T14:53:23.000Z</time>
      </trkpt>
      <trkpt lat="47.46391" lon="0.84787">
        <ele>113.40000152588</ele>
        <time>2015-12-30T14:53:25.000Z</time>
      </trkpt>
      <trkpt lat="47.46344" lon="0.84718">
        <ele>113.40000152588</ele>
        <time>2015-12-30T14:53:27.000Z</time>
      </trkpt>
      <trkpt lat="47.46318" lon="0.84677">
        <ele>112.59999847412</ele>
        <time>2015-12-30T14:53:29.000Z</time>
      </trkpt>
      <trkpt lat="47.46302" lon="0.84652">
        <ele>111.80000305176</ele>
        <time>2015-12-30T14:53:31.000Z</time>
      </trkpt>
      <trkpt lat="47.46302" lon="0.84652">
        <ele>111.80000305176</ele>
        <time>2015-12-30T14:53:33.000Z</time>
      </trkpt>
      <trkpt lat="47.46302" lon="0.84652">
        <ele>111.80000305176</ele>
        <time>2015-12-30T14:53:35.000Z</time>
      </trkpt>
      <trkpt lat="47.46302" lon="0.84652">
        <ele>111.80000305176</ele>
        <time>2015-12-30T14:53:37.000Z</time>
      </trkpt>
      <trkpt lat="47.46302" lon="0.84652">
        <ele>111.80000305176</ele>
        <time>2015-12-30T14:53:39.000Z</time>
      </trkpt>
      <trkpt lat="47.46302" lon="0.84652">
        <ele>111.80000305176</ele>
        <time>2015-12-30T14:53:41.000Z</time>
      </trkpt>
      <trkpt lat="47.46302" lon="0.84652">
        <ele>111.80000305176</ele>
        <time>2015-12-30T14:53:44.000Z</time>
      </trkpt>
      <trkpt lat="47.46302" lon="0.84652">
        <ele>111.80000305176</ele>
        <time>2015-12-30T14:53:46.000Z</time>
      </trkpt>
      <trkpt lat="47.46278" lon="0.84616">
        <ele>112</ele>
        <time>2015-12-30T14:53:50.000Z</time>
      </trkpt>
      <trkpt lat="47.46262" lon="0.84598">
        <ele>112.40000152588</ele>
        <time>2015-12-30T14:53:52.000Z</time>
      </trkpt>
      <trkpt lat="47.46251" lon="0.84591">
        <ele>112.59999847412</ele>
        <time>2015-12-30T14:53:54.000Z</time>
      </trkpt>
      <trkpt lat="47.4624" lon="0.84588">
        <ele>112.59999847412</ele>
        <time>2015-12-30T14:53:56.000Z</time>
      </trkpt>
      <trkpt lat="47.4623" lon="0.84585">
        <ele>112.40000152588</ele>
        <time>2015-12-30T14:53:58.000Z</time>
      </trkpt>
      <trkpt lat="47.46212" lon="0.8458">
        <ele>112.19999694824</ele>
        <time>2015-12-30T14:54:00.000Z</time>
      </trkpt>
      <trkpt lat="47.46202" lon="0.84578">
        <ele>112.19999694824</ele>
        <time>2015-12-30T14:54:02.000Z</time>
      </trkpt>
      <trkpt lat="47.46185" lon="0.84579">
        <ele>112</ele>
        <time>2015-12-30T14:54:06.000Z</time>
      </trkpt>
      <trkpt lat="47.46175" lon="0.84578">
        <ele>111.80000305176</ele>
        <time>2015-12-30T14:54:08.000Z</time>
      </trkpt>
      <trkpt lat="47.46166" lon="0.84577">
        <ele>111.80000305176</ele>
        <time>2015-12-30T14:54:10.000Z</time>
      </trkpt>
      <trkpt lat="47.46152" lon="0.84572">
        <ele>111.59999847412</ele>
        <time>2015-12-30T14:54:12.000Z</time>
      </trkpt>
      <trkpt lat="47.46139" lon="0.84567">
        <ele>111.59999847412</ele>
        <time>2015-12-30T14:54:16.000Z</time>
      </trkpt>
      <trkpt lat="47.46139" lon="0.84567">
        <ele>111.59999847412</ele>
        <time>2015-12-30T14:54:18.000Z</time>
      </trkpt>
      <trkpt lat="47.46123" lon="0.84563">
        <ele>111.40000152588</ele>
        <time>2015-12-30T14:54:20.000Z</time>
      </trkpt>
      <trkpt lat="47.46093" lon="0.84558">
        <ele>111</ele>
        <time>2015-12-30T14:54:26.000Z</time>
      </trkpt>
      <trkpt lat="47.46093" lon="0.84558">
        <ele>111</ele>
        <time>2015-12-30T14:54:28.000Z</time>
      </trkpt>
      <trkpt lat="47.46093" lon="0.84558">
        <ele>111</ele>
        <time>2015-12-30T14:54:30.000Z</time>
      </trkpt>
      <trkpt lat="47.46093" lon="0.84558">
        <ele>111</ele>
        <time>2015-12-30T14:54:32.000Z</time>
      </trkpt>
      <trkpt lat="47.46093" lon="0.84558">
        <ele>111</ele>
        <time>2015-12-30T14:54:34.000Z</time>
      </trkpt>
      <trkpt lat="47.4603" lon="0.84534">
        <ele>112.19999694824</ele>
        <time>2015-12-30T14:54:42.000Z</time>
      </trkpt>
      <trkpt lat="47.46021" lon="0.84531">
        <ele>112.40000152588</ele>
        <time>2015-12-30T14:54:44.000Z</time>
      </trkpt>
      <trkpt lat="47.46004" lon="0.84525">
        <ele>112.59999847412</ele>
        <time>2015-12-30T14:54:48.000Z</time>
      </trkpt>
      <trkpt lat="47.45995" lon="0.84522">
        <ele>112.80000305176</ele>
        <time>2015-12-30T14:54:50.000Z</time>
      </trkpt>
      <trkpt lat="47.45986" lon="0.84518">
        <ele>112.80000305176</ele>
        <time>2015-12-30T14:54:52.000Z</time>
      </trkpt>
      <trkpt lat="47.45974" lon="0.84514">
        <ele>112.80000305176</ele>
        <time>2015-12-30T14:54:54.000Z</time>
      </trkpt>
      <trkpt lat="47.45967" lon="0.84503">
        <ele>112.80000305176</ele>
        <time>2015-12-30T14:54:56.000Z</time>
      </trkpt>
      <trkpt lat="47.45957" lon="0.84499">
        <ele>112.80000305176</ele>
        <time>2015-12-30T14:54:58.000Z</time>
      </trkpt>
      <trkpt lat="47.45957" lon="0.84499">
        <ele>112.80000305176</ele>
        <time>2015-12-30T14:55:00.000Z</time>
      </trkpt>
      <trkpt lat="47.45943" lon="0.8449">
        <ele>112.80000305176</ele>
        <time>2015-12-30T14:55:02.000Z</time>
      </trkpt>
      <trkpt lat="47.45943" lon="0.8449">
        <ele>112.80000305176</ele>
        <time>2015-12-30T14:55:04.000Z</time>
      </trkpt>
      <trkpt lat="47.45943" lon="0.8449">
        <ele>112.80000305176</ele>
        <time>2015-12-30T14:55:06.000Z</time>
      </trkpt>
      <trkpt lat="47.45943" lon="0.8449">
        <ele>112.80000305176</ele>
        <time>2015-12-30T14:55:08.000Z</time>
      </trkpt>
      <trkpt lat="47.45943" lon="0.8449">
        <ele>112.80000305176</ele>
        <time>2015-12-30T14:55:10.000Z</time>
      </trkpt>
      <trkpt lat="47.45943" lon="0.8449">
        <ele>112.80000305176</ele>
        <time>2015-12-30T14:55:14.000Z</time>
      </trkpt>
      <trkpt lat="47.45943" lon="0.8449">
        <ele>112.80000305176</ele>
        <time>2015-12-30T14:55:16.000Z</time>
      </trkpt>
      <trkpt lat="47.45879" lon="0.84464">
        <ele>111.80000305176</ele>
        <time>2015-12-30T14:55:18.000Z</time>
      </trkpt>
      <trkpt lat="47.45864" lon="0.84462">
        <ele>111.19999694824</ele>
        <time>2015-12-30T14:55:22.000Z</time>
      </trkpt>
      <trkpt lat="47.45864" lon="0.84462">
        <ele>111.19999694824</ele>
        <time>2015-12-30T14:55:24.000Z</time>
      </trkpt>
      <trkpt lat="47.45864" lon="0.84462">
        <ele>111.19999694824</ele>
        <time>2015-12-30T14:55:27.000Z</time>
      </trkpt>
      <trkpt lat="47.45864" lon="0.84462">
        <ele>111.19999694824</ele>
        <time>2015-12-30T14:55:28.000Z</time>
      </trkpt>
      <trkpt lat="47.45864" lon="0.84462">
        <ele>111.19999694824</ele>
        <time>2015-12-30T14:55:30.000Z</time>
      </trkpt>
      <trkpt lat="47.45864" lon="0.84462">
        <ele>111.19999694824</ele>
        <time>2015-12-30T14:55:32.000Z</time>
      </trkpt>
      <trkpt lat="47.45864" lon="0.84462">
        <ele>111.19999694824</ele>
        <time>2015-12-30T14:55:34.000Z</time>
      </trkpt>
      <trkpt lat="47.45864" lon="0.84462">
        <ele>111.19999694824</ele>
        <time>2015-12-30T14:55:36.000Z</time>
      </trkpt>
      <trkpt lat="47.45864" lon="0.84462">
        <ele>111.19999694824</ele>
        <time>2015-12-30T14:55:38.000Z</time>
      </trkpt>
      <trkpt lat="47.45864" lon="0.84462">
        <ele>111.19999694824</ele>
        <time>2015-12-30T14:55:40.000Z</time>
      </trkpt>
      <trkpt lat="47.45864" lon="0.84462">
        <ele>111.19999694824</ele>
        <time>2015-12-30T14:55:42.000Z</time>
      </trkpt>
      <trkpt lat="47.45819" lon="0.84474">
        <ele>110.19999694824</ele>
        <time>2015-12-30T14:55:48.000Z</time>
      </trkpt>
      <trkpt lat="47.45794" lon="0.84481">
        <ele>110.40000152588</ele>
        <time>2015-12-30T14:55:50.000Z</time>
      </trkpt>
      <trkpt lat="47.45778" lon="0.84485">
        <ele>110.59999847412</ele>
        <time>2015-12-30T14:55:52.000Z</time>
      </trkpt>
      <trkpt lat="47.45767" lon="0.84489">
        <ele>110.59999847412</ele>
        <time>2015-12-30T14:55:54.000Z</time>
      </trkpt>
      <trkpt lat="47.45767" lon="0.84489">
        <ele>110.59999847412</ele>
        <time>2015-12-30T14:55:56.000Z</time>
      </trkpt>
      <trkpt lat="47.45767" lon="0.84489">
        <ele>110.59999847412</ele>
        <time>2015-12-30T14:55:58.000Z</time>
      </trkpt>
      <trkpt lat="47.45767" lon="0.84489">
        <ele>110.59999847412</ele>
        <time>2015-12-30T14:56:00.000Z</time>
      </trkpt>
      <trkpt lat="47.45767" lon="0.84489">
        <ele>110.59999847412</ele>
        <time>2015-12-30T14:56:02.000Z</time>
      </trkpt>
      <trkpt lat="47.45767" lon="0.84489">
        <ele>110.59999847412</ele>
        <time>2015-12-30T14:56:04.000Z</time>
      </trkpt>
      <trkpt lat="47.45767" lon="0.84489">
        <ele>110.59999847412</ele>
        <time>2015-12-30T14:56:08.000Z</time>
      </trkpt>
      <trkpt lat="47.45767" lon="0.84489">
        <ele>110.59999847412</ele>
        <time>2015-12-30T14:56:10.000Z</time>
      </trkpt>
      <trkpt lat="47.45767" lon="0.84489">
        <ele>110.59999847412</ele>
        <time>2015-12-30T14:56:12.000Z</time>
      </trkpt>
      <trkpt lat="47.45767" lon="0.84489">
        <ele>110.59999847412</ele>
        <time>2015-12-30T14:56:16.000Z</time>
      </trkpt>
      <trkpt lat="47.45767" lon="0.84489">
        <ele>110.59999847412</ele>
        <time>2015-12-30T14:56:18.000Z</time>
      </trkpt>
      <trkpt lat="47.4572" lon="0.84502">
        <ele>110.59999847412</ele>
        <time>2015-12-30T14:56:22.000Z</time>
      </trkpt>
      <trkpt lat="47.45694" lon="0.84509">
        <ele>110.59999847412</ele>
        <time>2015-12-30T14:56:24.000Z</time>
      </trkpt>
      <trkpt lat="47.45678" lon="0.84513">
        <ele>110.59999847412</ele>
        <time>2015-12-30T14:56:26.000Z</time>
      </trkpt>
      <trkpt lat="47.45678" lon="0.84513">
        <ele>110.59999847412</ele>
        <time>2015-12-30T14:56:28.000Z</time>
      </trkpt>
      <trkpt lat="47.45678" lon="0.84513">
        <ele>110.59999847412</ele>
        <time>2015-12-30T14:56:30.000Z</time>
      </trkpt>
      <trkpt lat="47.45678" lon="0.84513">
        <ele>110.59999847412</ele>
        <time>2015-12-30T14:56:32.000Z</time>
      </trkpt>
      <trkpt lat="47.45678" lon="0.84513">
        <ele>110.59999847412</ele>
        <time>2015-12-30T14:56:34.000Z</time>
      </trkpt>
      <trkpt lat="47.45678" lon="0.84513">
        <ele>110.59999847412</ele>
        <time>2015-12-30T14:56:36.000Z</time>
      </trkpt>
      <trkpt lat="47.45653" lon="0.84517">
        <ele>110.40000152588</ele>
        <time>2015-12-30T14:56:40.000Z</time>
      </trkpt>
      <trkpt lat="47.45638" lon="0.84521">
        <ele>110.40000152588</ele>
        <time>2015-12-30T14:56:42.000Z</time>
      </trkpt>
      <trkpt lat="47.45626" lon="0.84524">
        <ele>110.40000152588</ele>
        <time>2015-12-30T14:56:44.000Z</time>
      </trkpt>
      <trkpt lat="47.45618" lon="0.84525">
        <ele>110.59999847412</ele>
        <time>2015-12-30T14:56:46.000Z</time>
      </trkpt>
      <trkpt lat="47.45618" lon="0.84525">
        <ele>110.59999847412</ele>
        <time>2015-12-30T14:56:48.000Z</time>
      </trkpt>
      <trkpt lat="47.45618" lon="0.84525">
        <ele>110.59999847412</ele>
        <time>2015-12-30T14:56:50.000Z</time>
      </trkpt>
      <trkpt lat="47.45618" lon="0.84525">
        <ele>110.59999847412</ele>
        <time>2015-12-30T14:56:52.000Z</time>
      </trkpt>
      <trkpt lat="47.45613" lon="0.84508">
        <ele>110.59999847412</ele>
        <time>2015-12-30T14:56:56.000Z</time>
      </trkpt>
      <trkpt lat="47.45609" lon="0.84495">
        <ele>110.80000305176</ele>
        <time>2015-12-30T14:56:58.000Z</time>
      </trkpt>
      <trkpt lat="47.45607" lon="0.84483">
        <ele>110.80000305176</ele>
        <time>2015-12-30T14:57:00.000Z</time>
      </trkpt>
      <trkpt lat="47.45605" lon="0.84473">
        <ele>111</ele>
        <time>2015-12-30T14:57:02.000Z</time>
      </trkpt>
      <trkpt lat="47.45603" lon="0.84463">
        <ele>111</ele>
        <time>2015-12-30T14:57:04.000Z</time>
      </trkpt>
      <trkpt lat="47.456" lon="0.84445">
        <ele>111</ele>
        <time>2015-12-30T14:57:06.000Z</time>
      </trkpt>
      <trkpt lat="47.45597" lon="0.84427">
        <ele>111</ele>
        <time>2015-12-30T14:57:10.000Z</time>
      </trkpt>
      <trkpt lat="47.45597" lon="0.84427">
        <ele>111</ele>
        <time>2015-12-30T14:57:12.000Z</time>
      </trkpt>
      <trkpt lat="47.45597" lon="0.84427">
        <ele>111</ele>
        <time>2015-12-30T14:57:14.000Z</time>
      </trkpt>
      <trkpt lat="47.45597" lon="0.84427">
        <ele>111</ele>
        <time>2015-12-30T14:57:16.000Z</time>
      </trkpt>
      <trkpt lat="47.45576" lon="0.84406">
        <ele>111</ele>
        <time>2015-12-30T14:57:20.000Z</time>
      </trkpt>
      <trkpt lat="47.45562" lon="0.84407">
        <ele>111</ele>
        <time>2015-12-30T14:57:24.000Z</time>
      </trkpt>
      <trkpt lat="47.45549" lon="0.84411">
        <ele>111</ele>
        <time>2015-12-30T14:57:28.000Z</time>
      </trkpt>
      <trkpt lat="47.45535" lon="0.84414">
        <ele>111</ele>
        <time>2015-12-30T14:57:32.000Z</time>
      </trkpt>
      <trkpt lat="47.4552" lon="0.84421">
        <ele>110.80000305176</ele>
        <time>2015-12-30T14:57:36.000Z</time>
      </trkpt>
      <trkpt lat="47.4552" lon="0.84421">
        <ele>110.80000305176</ele>
        <time>2015-12-30T14:57:38.000Z</time>
      </trkpt>
      <trkpt lat="47.45505" lon="0.84423">
        <ele>110.59999847412</ele>
        <time>2015-12-30T14:57:40.000Z</time>
      </trkpt>
      <trkpt lat="47.45505" lon="0.84423">
        <ele>110.59999847412</ele>
        <time>2015-12-30T14:57:42.000Z</time>
      </trkpt>
      <trkpt lat="47.45505" lon="0.84423">
        <ele>110.59999847412</ele>
        <time>2015-12-30T14:57:44.000Z</time>
      </trkpt>
      <trkpt lat="47.45505" lon="0.84423">
        <ele>110.59999847412</ele>
        <time>2015-12-30T14:57:46.000Z</time>
      </trkpt>
      <trkpt lat="47.45505" lon="0.84423">
        <ele>110.59999847412</ele>
        <time>2015-12-30T14:57:48.000Z</time>
      </trkpt>
      <trkpt lat="47.45505" lon="0.84423">
        <ele>110.59999847412</ele>
        <time>2015-12-30T14:57:50.000Z</time>
      </trkpt>
      <trkpt lat="47.45505" lon="0.84423">
        <ele>110.59999847412</ele>
        <time>2015-12-30T14:57:52.000Z</time>
      </trkpt>
      <trkpt lat="47.45505" lon="0.84423">
        <ele>110.59999847412</ele>
        <time>2015-12-30T14:57:54.000Z</time>
      </trkpt>
      <trkpt lat="47.45505" lon="0.84423">
        <ele>110.59999847412</ele>
        <time>2015-12-30T14:57:56.000Z</time>
      </trkpt>
      <trkpt lat="47.45459" lon="0.8439">
        <ele>110.40000152588</ele>
        <time>2015-12-30T14:57:58.000Z</time>
      </trkpt>
      <trkpt lat="47.4545" lon="0.84375">
        <ele>110.40000152588</ele>
        <time>2015-12-30T14:58:02.000Z</time>
      </trkpt>
      <trkpt lat="47.4544" lon="0.84357">
        <ele>110.19999694824</ele>
        <time>2015-12-30T14:58:06.000Z</time>
      </trkpt>
      <trkpt lat="47.45431" lon="0.84339">
        <ele>110.19999694824</ele>
        <time>2015-12-30T14:58:10.000Z</time>
      </trkpt>
      <trkpt lat="47.45431" lon="0.84339">
        <ele>110.19999694824</ele>
        <time>2015-12-30T14:58:12.000Z</time>
      </trkpt>
      <trkpt lat="47.45431" lon="0.84339">
        <ele>110.19999694824</ele>
        <time>2015-12-30T14:58:14.000Z</time>
      </trkpt>
      <trkpt lat="47.45431" lon="0.84339">
        <ele>110.19999694824</ele>
        <time>2015-12-30T14:58:16.000Z</time>
      </trkpt>
      <trkpt lat="47.45431" lon="0.84339">
        <ele>110.19999694824</ele>
        <time>2015-12-30T14:58:18.000Z</time>
      </trkpt>
      <trkpt lat="47.45393" lon="0.84345">
        <ele>110</ele>
        <time>2015-12-30T14:58:22.000Z</time>
      </trkpt>
      <trkpt lat="47.45379" lon="0.84348">
        <ele>110</ele>
        <time>2015-12-30T14:58:26.000Z</time>
      </trkpt>
      <trkpt lat="47.45363" lon="0.84354">
        <ele>109.80000305176</ele>
        <time>2015-12-30T14:58:30.000Z</time>
      </trkpt>
      <trkpt lat="47.45347" lon="0.84358">
        <ele>109.59999847412</ele>
        <time>2015-12-30T14:58:34.000Z</time>
      </trkpt>
      <trkpt lat="47.45339" lon="0.8436">
        <ele>109.40000152588</ele>
        <time>2015-12-30T14:58:38.000Z</time>
      </trkpt>
      <trkpt lat="47.45331" lon="0.84362">
        <ele>109.19999694824</ele>
        <time>2015-12-30T14:58:40.000Z</time>
      </trkpt>
      <trkpt lat="47.45322" lon="0.84364">
        <ele>109</ele>
        <time>2015-12-30T14:58:42.000Z</time>
      </trkpt>
      <trkpt lat="47.45314" lon="0.84367">
        <ele>108.80000305176</ele>
        <time>2015-12-30T14:58:44.000Z</time>
      </trkpt>
      <trkpt lat="47.45306" lon="0.84369">
        <ele>108.59999847412</ele>
        <time>2015-12-30T14:58:46.000Z</time>
      </trkpt>
      <trkpt lat="47.45289" lon="0.84373">
        <ele>108.40000152588</ele>
        <time>2015-12-30T14:58:48.000Z</time>
      </trkpt>
      <trkpt lat="47.45272" lon="0.84378">
        <ele>108.19999694824</ele>
        <time>2015-12-30T14:58:52.000Z</time>
      </trkpt>
      <trkpt lat="47.45272" lon="0.84378">
        <ele>108.19999694824</ele>
        <time>2015-12-30T14:58:54.000Z</time>
      </trkpt>
      <trkpt lat="47.45272" lon="0.84378">
        <ele>108.19999694824</ele>
        <time>2015-12-30T14:58:56.000Z</time>
      </trkpt>
      <trkpt lat="47.45272" lon="0.84378">
        <ele>108.19999694824</ele>
        <time>2015-12-30T14:58:58.000Z</time>
      </trkpt>
      <trkpt lat="47.45272" lon="0.84378">
        <ele>108.19999694824</ele>
        <time>2015-12-30T14:59:00.000Z</time>
      </trkpt>
      <trkpt lat="47.45272" lon="0.84378">
        <ele>108.19999694824</ele>
        <time>2015-12-30T14:59:02.000Z</time>
      </trkpt>
      <trkpt lat="47.45272" lon="0.84378">
        <ele>108.19999694824</ele>
        <time>2015-12-30T14:59:04.000Z</time>
      </trkpt>
      <trkpt lat="47.45272" lon="0.84378">
        <ele>108.19999694824</ele>
        <time>2015-12-30T14:59:06.000Z</time>
      </trkpt>
      <trkpt lat="47.45272" lon="0.84378">
        <ele>108.19999694824</ele>
        <time>2015-12-30T14:59:08.000Z</time>
      </trkpt>
      <trkpt lat="47.45272" lon="0.84378">
        <ele>108.19999694824</ele>
        <time>2015-12-30T14:59:10.000Z</time>
      </trkpt>
      <trkpt lat="47.45272" lon="0.84378">
        <ele>108.19999694824</ele>
        <time>2015-12-30T14:59:12.000Z</time>
      </trkpt>
      <trkpt lat="47.45272" lon="0.84378">
        <ele>108.19999694824</ele>
        <time>2015-12-30T14:59:14.000Z</time>
      </trkpt>
      <trkpt lat="47.45209" lon="0.84339">
        <ele>107</ele>
        <time>2015-12-30T14:59:19.000Z</time>
      </trkpt>
      <trkpt lat="47.45209" lon="0.84339">
        <ele>107</ele>
        <time>2015-12-30T14:59:21.000Z</time>
      </trkpt>
      <trkpt lat="47.45198" lon="0.84308">
        <ele>106.80000305176</ele>
        <time>2015-12-30T14:59:25.000Z</time>
      </trkpt>
      <trkpt lat="47.45195" lon="0.84294">
        <ele>106</ele>
        <time>2015-12-30T14:59:29.000Z</time>
      </trkpt>
      <trkpt lat="47.45195" lon="0.84294">
        <ele>106</ele>
        <time>2015-12-30T14:59:31.000Z</time>
      </trkpt>
      <trkpt lat="47.45189" lon="0.84275">
        <ele>104.80000305176</ele>
        <time>2015-12-30T14:59:33.000Z</time>
      </trkpt>
      <trkpt lat="47.45183" lon="0.84265">
        <ele>104</ele>
        <time>2015-12-30T14:59:35.000Z</time>
      </trkpt>
      <trkpt lat="47.45176" lon="0.84249">
        <ele>102.80000305176</ele>
        <time>2015-12-30T14:59:37.000Z</time>
      </trkpt>
      <trkpt lat="47.45162" lon="0.84233">
        <ele>101.59999847412</ele>
        <time>2015-12-30T14:59:39.000Z</time>
      </trkpt>
      <trkpt lat="47.45147" lon="0.84227">
        <ele>100.59999847412</ele>
        <time>2015-12-30T14:59:41.000Z</time>
      </trkpt>
      <trkpt lat="47.45128" lon="0.84227">
        <ele>100</ele>
        <time>2015-12-30T14:59:43.000Z</time>
      </trkpt>
      <trkpt lat="47.45106" lon="0.84227">
        <ele>99.199996948242</ele>
        <time>2015-12-30T14:59:45.000Z</time>
      </trkpt>
      <trkpt lat="47.45084" lon="0.84231">
        <ele>98.599998474121</ele>
        <time>2015-12-30T14:59:47.000Z</time>
      </trkpt>
      <trkpt lat="47.45061" lon="0.84234">
        <ele>96.400001525879</ele>
        <time>2015-12-30T14:59:49.000Z</time>
      </trkpt>
      <trkpt lat="47.45042" lon="0.8424">
        <ele>94.800003051758</ele>
        <time>2015-12-30T14:59:51.000Z</time>
      </trkpt>
      <trkpt lat="47.45021" lon="0.84238">
        <ele>92.199996948242</ele>
        <time>2015-12-30T14:59:54.000Z</time>
      </trkpt>
      <trkpt lat="47.45021" lon="0.84238">
        <ele>92.199996948242</ele>
        <time>2015-12-30T14:59:58.000Z</time>
      </trkpt>
      <trkpt lat="47.4505" lon="0.84205">
        <ele>91.800003051758</ele>
        <time>2015-12-30T15:00:06.000Z</time>
      </trkpt>
      <trkpt lat="47.4505" lon="0.84205">
        <ele>91.800003051758</ele>
        <time>2015-12-30T15:00:08.000Z</time>
      </trkpt>
      <trkpt lat="47.4505" lon="0.84205">
        <ele>91.800003051758</ele>
        <time>2015-12-30T15:00:10.000Z</time>
      </trkpt>
      <trkpt lat="47.4505" lon="0.84205">
        <ele>91.800003051758</ele>
        <time>2015-12-30T15:00:12.000Z</time>
      </trkpt>
      <trkpt lat="47.45091" lon="0.84183">
        <ele>90.800003051758</ele>
        <time>2015-12-30T15:00:18.000Z</time>
      </trkpt>
      <trkpt lat="47.45103" lon="0.84178">
        <ele>90.199996948242</ele>
        <time>2015-12-30T15:00:22.000Z</time>
      </trkpt>
      <trkpt lat="47.45103" lon="0.84178">
        <ele>90.199996948242</ele>
        <time>2015-12-30T15:00:25.000Z</time>
      </trkpt>
      <trkpt lat="47.45103" lon="0.84178">
        <ele>90.199996948242</ele>
        <time>2015-12-30T15:00:26.000Z</time>
      </trkpt>
      <trkpt lat="47.45103" lon="0.84178">
        <ele>90.199996948242</ele>
        <time>2015-12-30T15:00:28.000Z</time>
      </trkpt>
      <trkpt lat="47.45103" lon="0.84178">
        <ele>90.199996948242</ele>
        <time>2015-12-30T15:00:30.000Z</time>
      </trkpt>
      <trkpt lat="47.45103" lon="0.84178">
        <ele>90.199996948242</ele>
        <time>2015-12-30T15:00:32.000Z</time>
      </trkpt>
      <trkpt lat="47.45125" lon="0.84172">
        <ele>90.199996948242</ele>
        <time>2015-12-30T15:00:36.000Z</time>
      </trkpt>
      <trkpt lat="47.45139" lon="0.84167">
        <ele>90.400001525879</ele>
        <time>2015-12-30T15:00:38.000Z</time>
      </trkpt>
      <trkpt lat="47.45148" lon="0.84165">
        <ele>90.800003051758</ele>
        <time>2015-12-30T15:00:40.000Z</time>
      </trkpt>
      <trkpt lat="47.45148" lon="0.84165">
        <ele>90.800003051758</ele>
        <time>2015-12-30T15:00:42.000Z</time>
      </trkpt>
      <trkpt lat="47.45162" lon="0.84161">
        <ele>91.199996948242</ele>
        <time>2015-12-30T15:00:44.000Z</time>
      </trkpt>
      <trkpt lat="47.45174" lon="0.8416">
        <ele>91.800003051758</ele>
        <time>2015-12-30T15:00:46.000Z</time>
      </trkpt>
      <trkpt lat="47.45184" lon="0.84159">
        <ele>92.400001525879</ele>
        <time>2015-12-30T15:00:48.000Z</time>
      </trkpt>
      <trkpt lat="47.45194" lon="0.84158">
        <ele>92.800003051758</ele>
        <time>2015-12-30T15:00:50.000Z</time>
      </trkpt>
      <trkpt lat="47.45203" lon="0.84156">
        <ele>93</ele>
        <time>2015-12-30T15:00:52.000Z</time>
      </trkpt>
      <trkpt lat="47.45221" lon="0.84153">
        <ele>93.199996948242</ele>
        <time>2015-12-30T15:00:54.000Z</time>
      </trkpt>
      <trkpt lat="47.45221" lon="0.84153">
        <ele>93.199996948242</ele>
        <time>2015-12-30T15:00:56.000Z</time>
      </trkpt>
      <trkpt lat="47.45221" lon="0.84153">
        <ele>93.199996948242</ele>
        <time>2015-12-30T15:00:58.000Z</time>
      </trkpt>
      <trkpt lat="47.45221" lon="0.84153">
        <ele>93.199996948242</ele>
        <time>2015-12-30T15:01:00.000Z</time>
      </trkpt>
      <trkpt lat="47.45221" lon="0.84153">
        <ele>93.199996948242</ele>
        <time>2015-12-30T15:01:02.000Z</time>
      </trkpt>
      <trkpt lat="47.45221" lon="0.84153">
        <ele>93.199996948242</ele>
        <time>2015-12-30T15:01:04.000Z</time>
      </trkpt>
      <trkpt lat="47.45221" lon="0.84153">
        <ele>93.199996948242</ele>
        <time>2015-12-30T15:01:06.000Z</time>
      </trkpt>
      <trkpt lat="47.45221" lon="0.84153">
        <ele>93.199996948242</ele>
        <time>2015-12-30T15:01:08.000Z</time>
      </trkpt>
      <trkpt lat="47.45221" lon="0.84153">
        <ele>93.199996948242</ele>
        <time>2015-12-30T15:01:10.000Z</time>
      </trkpt>
      <trkpt lat="47.45221" lon="0.84153">
        <ele>93.199996948242</ele>
        <time>2015-12-30T15:01:12.000Z</time>
      </trkpt>
      <trkpt lat="47.45221" lon="0.84153">
        <ele>93.199996948242</ele>
        <time>2015-12-30T15:04:36.000Z</time>
      </trkpt>
    </trkseg>
  </trk>
</gpx>